[[{"header":{"parameterUnit":"m.s-1","parameterCategory":1,"la1":31.0,"la2":29.5877,"lo1":-88.7671,"lo2":-86.6584,"dy":0.0162,"dx":0.0185,"nx":115,"ny":88,"refTime":"2024-06-10T00:00:00:Z","depth":0,"parameterNumber":2,"parameterNumberName":"U-component_of_WINDS"},"data":[0.0,0.0,0.0,0.0,0.0,0.0,0.0,0.0,0.0,0.0,0.0,0.0,0.0,0.0,0.0,0.0,0.0,0.0,0.0,0.0,0.0,0.0,0.0,0.0,0.0,0.0,0.0,0.0,0.0,0.0,0.0,0.0,0.0,0.0,0.0,0.0,0.0,0.0,0.0,0.0,0.0,0.0,0.0,0.0,0.0,0.0,0.0,0.0,0.0,0.0,0.0,0.0,0.0,0.0,0.0,0.0,0.0,0.0,0.0,0.0,0.0,0.0,0.0,0.0,0.0,0.0,0.0,0.0,0.0,0.0,0.0,0.0,0.0,0.0,0.0,0.0,0.0,0.0,0.0,0.0,0.0,0.0,0.0,0.0,0.0,0.0,0.0,0.0,0.0,0.0,0.0,0.0,0.0,0.0,0.0,0.0,0.0,0.0,0.0,0.0,0.0,0.0,0.0,0.0,0.0,0.0,0.0,0.0,0.0,0.0,0.0,0.0,0.0,0.0,0.0,0.0,0.0,0.0,0.0,0.0,0.0,0.0,0.0,0.0,0.0,0.0,0.0,0.0,0.0,0.0,0.0,0.0,0.0,0.0,0.0,0.0,0.0,0.0,0.0,0.0,0.0,0.0,0.0,0.0,0.0,0.0,0.0,0.0,0.0,0.0,0.0,0.0,0.0,0.0,0.0,0.0,0.0,0.0,0.0,0.0,0.0,0.0,0.0,0.0,0.0,0.0,0.0,0.0,0.0,0.0,0.0,0.0,0.0,0.0,0.0,0.0,0.0,0.0,0.0,0.0,0.0,0.0,0.0,0.0,0.0,0.0,0.0,0.0,0.0,0.0,0.0,0.0,0.0,0.0,0.0,0.0,0.0,0.0,0.0,0.0,0.0,0.0,0.0,0.0,0.0,0.0,0.0,0.0,0.0,0.0,0.0,0.0,0.0,0.0,0.0,0.0,0.0,0.0,0.0,0.0,0.0,0.0,0.0,0.0,0.0,0.0,0.0,0.0,0.0,0.0,0.0,0.0,0.0,0.0,0.0,0.0,0.0,0.0,0.0,0.0,0.0,0.0,0.0,0.0,0.0,0.0,0.0,0.0,0.0,0.0,0.0,0.0,0.0,0.0,0.0,0.0,0.0,0.0,0.0,0.0,0.0,0.0,0.0,0.0,0.0,0.0,0.0,0.0,0.0,0.0,0.0,0.0,0.0,0.0,0.0,0.0,0.0,0.0,0.0,0.0,0.0,0.0,0.0,0.0,0.0,0.0,0.0,0.0,0.0,0.0,0.0,0.0,0.0,0.0,0.0,0.0,0.0,0.0,0.0,0.0,0.0,0.0,0.0,0.0,0.0,0.0,0.0,0.0,0.0,0.0,0.0,0.0,0.0,0.0,0.0,0.0,0.0,0.0,0.0,0.0,0.0,0.0,0.0,0.0,0.0,0.0,0.0,0.0,0.0,0.0,0.0,0.0,0.0,0.0,0.0,0.0,0.0,0.0,0.0,0.0,0.0,0.0,0.0,0.0,0.0,0.0,0.0,0.0,0.0,0.0,0.0,0.0,0.0,0.0,0.0,0.0,0.0,0.0,0.0,0.0,0.0,0.0,0.0,0.0,0.0,0.0,0.0,0.0,0.0,0.0,0.0,0.0,0.0,0.0,0.0,0.0,0.0,0.0,0.0,0.0,0.0,0.0,0.0,0.0,0.0,0.0,0.0,0.0,0.0,0.0,0.0,0.0,0.0,0.0,0.0,0.0,0.0,0.0,0.0,0.0,0.0,0.0,0.0,0.0,0.0,0.0,0.0,0.0,0.0,0.0,0.0,0.0,0.0,0.0,0.0,0.0,0.0,0.0,0.0,0.0,0.0,0.0,0.0,0.0,0.0,0.0,0.0,0.0,0.0,0.0,0.0,0.0,0.0,0.0,0.0,0.0,0.0,0.0,0.0,0.0,0.0,0.0,0.0,0.0,0.0,0.0,0.0,0.0,0.0,0.0,0.0,0.0,0.0,0.0,0.0,0.0,0.0,0.0,0.0,0.0,0.0,0.0,0.0,0.0,0.0,0.0,0.0,0.0,0.0,0.0,0.0,0.0,0.0,0.0,0.0,0.0,0.0,0.0,0.0,0.0,0.0,0.0,0.0,0.0,0.0,0.0,0.0,0.0,0.0,0.0,0.0,0.0,0.0,0.0,0.0,0.0,0.0,0.0,0.0,0.0,0.0,0.0,0.0,0.0,0.0,0.0,0.0,0.0,0.0,0.0,0.0,0.0,0.0,0.0,0.0,0.0,0.0,0.0,0.0,0.0,0.0,0.0,0.0,0.0,0.0,0.0,0.0,0.0,0.0,0.0,0.0,0.0,0.0,0.0,0.0,0.0,0.0,0.0,0.0,0.0,0.0,0.0,0.0,0.0,0.0,0.0,0.0,0.0,0.0,0.0,0.0,0.0,0.0,0.0,0.0,0.0,0.0,0.0,0.0,0.0,0.0,0.0,0.0,0.0,0.0,0.0,0.0,0.0,0.0,0.0,0.0,0.0,0.0,0.0,0.0,0.0,0.0,0.0,0.0,0.0,0.0,0.0,0.0,0.0,0.0,0.0,0.0,0.0,0.0,0.0,0.0,0.0,0.0,0.0,0.0,0.0,0.0,0.0,0.0,0.0,0.0,0.0,0.0,0.0,0.0,0.0,0.0,0.0,0.0,0.0,0.0,0.0,0.0,0.0,0.0,0.0,0.0,0.0,0.0,0.0,0.0,0.0,0.0,0.0,0.0,0.0,0.0,0.0,0.0,0.0,0.0,0.0,0.0,0.0,0.0,0.0,0.0,0.0,0.0,0.0,0.0,0.0,0.0,0.0,0.0,0.0,0.0,0.0,0.0,0.0,0.0,0.0,0.0,0.0,0.0,0.0,0.0,0.0,0.0,0.0,0.0,0.0,0.0,0.0,0.0,0.0,0.0,0.0,0.0,0.0,0.0,0.0,0.0,0.0,0.0,0.0,0.0,0.0,0.0,0.0,0.0,0.0,0.0,0.0,0.0,0.0,0.0,0.0,0.0,0.0,0.0,0.0,0.0,0.0,0.0,0.0,0.0,0.0,0.0,0.0,0.0,0.0,0.0,0.0,0.0,0.0,0.0,0.0,0.0,0.0,0.0,0.0,0.0,0.0,0.0,0.0,0.0,0.0,0.0,0.0,0.0,0.0,0.0,0.0,0.0,0.0,0.0,0.0,0.0,0.0,0.0,0.0,0.0,0.0,0.0,0.0,0.0,0.0,0.0,0.0,0.0,0.0,0.0,0.0,0.0,0.0,0.0,0.0,0.0,0.0,0.0,0.0,0.0,0.0,0.0,0.0,0.0,0.0,0.0,0.0,0.0,0.0,0.0,0.0,0.0,0.0,0.0,0.0,0.0,0.0,0.0,0.0,0.0,0.0,0.0,0.0,0.0,0.0,0.0,0.0,0.0,0.0,0.0,0.0,0.0,0.0,0.0,0.0,0.0,0.0,0.0,0.0,0.0,0.0,0.0,0.0,0.0,0.0,0.0,0.0,0.0,0.0,0.0,0.0,0.0,0.0,0.0,0.0,0.0,0.0,0.0,0.0,0.0,0.0,0.0,0.0,0.0,0.0,0.0,0.0,0.0,0.0,0.0,0.0,0.0,0.0,0.0,0.0,0.0,0.0,0.0,0.0,0.0,0.0,0.0,0.0,0.0,0.0,0.0,0.0,0.0,0.0,0.0,0.0,0.0,0.0,0.0,0.0,0.0,0.0,0.0,0.0,0.0,0.0,0.0,0.0,0.0,0.0,0.0,0.0,0.0,0.0,0.0,0.0,0.0,0.0,0.0,0.0,0.0,0.0,0.0,0.0,0.0,0.0,0.0,0.0,0.0,0.0,0.0,0.0,0.0,0.0,0.0,0.0,0.0,0.0,0.0,0.0,0.0,0.0,0.0,0.0,0.0,0.0,0.0,0.0,0.0,0.0,0.0,0.0,0.0,0.0,0.0,0.0,0.0,0.0,0.0,0.0,0.0,0.0,0.0,0.0,0.0,0.0,0.0,0.0,0.0,0.0,0.0,0.0,0.0,0.0,0.0,0.0,0.0,0.0,0.0,0.0,0.0,0.0,0.0,0.0,0.0,0.0,0.0,0.0,0.0,0.0,0.0,0.0,0.0,0.0,0.0,0.0,0.0,0.0,0.0,0.0,0.0,0.0,0.0,0.0,0.0,0.0,0.0,0.0,0.0,0.0,0.0,0.0,0.0,0.0,0.0,0.0,0.0,0.0,-1.3454,0.0,0.0,0.0,0.0,0.0,0.0,0.0,0.0,0.0,0.0,0.0,0.0,0.0,0.0,0.0,0.0,0.0,0.0,0.0,0.0,0.0,0.0,0.0,0.0,0.0,0.0,0.0,0.0,0.0,0.0,0.0,0.0,0.0,0.0,0.0,0.0,0.0,0.0,0.0,0.0,0.0,0.0,0.0,0.0,0.0,0.0,0.0,0.0,0.0,0.0,0.0,0.0,0.0,0.0,0.0,0.0,0.0,0.0,0.0,0.0,0.0,0.0,0.0,0.0,0.0,0.0,0.0,0.0,0.0,0.0,0.0,0.0,0.0,0.0,0.0,0.0,0.0,0.0,0.0,0.0,0.0,0.0,0.0,0.0,0.0,0.0,0.0,0.0,0.0,0.0,0.0,0.0,0.0,0.0,0.0,0.0,0.0,0.0,0.0,0.0,0.0,0.0,0.0,0.0,0.0,0.0,0.0,0.0,0.0,0.0,-1.3348,-1.3832,-1.3782,-1.3911,-1.4276,0.0,0.0,0.0,0.0,0.0,0.0,0.0,0.0,0.0,0.0,0.0,0.0,0.0,0.0,0.0,0.0,0.0,0.0,0.0,0.0,0.0,0.0,0.0,0.0,0.0,0.0,0.0,0.0,0.0,0.0,0.0,0.0,0.0,0.0,0.0,0.0,0.0,0.0,0.0,0.0,0.0,0.0,0.0,0.0,0.0,0.0,0.0,0.0,0.0,0.0,0.0,0.0,0.0,0.0,0.0,0.0,0.0,0.0,0.0,0.0,0.0,0.0,0.0,0.0,0.0,0.0,0.0,0.0,0.0,0.0,0.0,0.0,0.0,0.0,0.0,0.0,0.0,0.0,0.0,0.0,0.0,0.0,0.0,0.0,0.0,0.0,0.0,0.0,0.0,0.0,0.0,0.0,0.0,0.0,0.0,0.0,0.0,0.0,0.0,0.0,0.0,0.0,0.0,0.0,0.0,0.0,0.0,0.0,0.0,0.0,0.0,0.0,-1.5228,-1.5301,-1.5473,0.0,0.0,0.0,0.0,0.0,0.0,0.0,0.0,0.0,0.0,0.0,0.0,0.0,0.0,0.0,0.0,0.0,0.0,0.0,0.0,0.0,0.0,0.0,0.0,0.0,0.0,0.0,0.0,0.0,0.0,0.0,0.0,0.0,0.0,0.0,0.0,0.0,0.0,0.0,0.0,0.0,0.0,0.0,0.0,0.0,0.0,0.0,0.0,0.0,0.0,0.0,0.0,0.0,0.0,0.0,0.0,0.0,0.0,0.0,0.0,0.0,0.0,0.0,0.0,0.0,0.0,0.0,0.0,0.0,0.0,0.0,0.0,0.0,0.0,0.0,0.0,0.0,0.0,0.0,0.0,0.0,0.0,0.0,0.0,0.0,0.0,0.0,0.0,0.0,0.0,0.0,0.0,0.0,0.0,0.0,0.0,0.0,0.0,0.0,0.0,0.0,0.0,0.0,0.0,0.0,0.0,0.0,0.0,0.0,0.0,-1.552,-1.7527,-1.7393,0.0,-1.7316,0.0,0.0,0.0,0.0,0.0,0.0,0.0,0.0,0.0,0.0,0.0,0.0,0.0,0.0,0.0,0.0,0.0,0.0,0.0,0.0,0.0,0.0,0.0,0.0,0.0,0.0,0.0,0.0,0.0,0.0,0.0,0.0,0.0,0.0,0.0,0.0,0.0,0.0,0.0,0.0,0.0,0.0,0.0,0.0,0.0,0.0,0.0,0.0,0.0,0.0,0.0,0.0,0.0,0.0,0.0,0.0,0.0,0.0,0.0,0.0,0.0,0.0,0.0,0.0,0.0,0.0,0.0,0.0,0.0,0.0,0.0,0.0,0.0,0.0,0.0,0.0,0.0,0.0,0.0,0.0,0.0,0.0,0.0,0.0,0.0,0.0,0.0,0.0,0.0,0.0,0.0,0.0,0.0,0.0,0.0,0.0,0.0,0.0,0.0,0.0,0.0,0.0,0.0,0.0,0.0,0.0,0.0,0.0,0.0,0.0,-1.78,-1.8759,-1.867,-1.8186,0.0,0.0,0.0,0.0,0.0,0.0,0.0,0.0,0.0,0.0,0.0,0.0,0.0,0.0,0.0,0.0,0.0,0.0,0.0,0.0,0.0,0.0,0.0,0.0,0.0,0.0,0.0,0.0,0.0,0.0,0.0,0.0,0.0,0.0,0.0,0.0,0.0,0.0,0.0,0.0,0.0,0.0,0.0,0.0,0.0,0.0,0.0,0.0,0.0,0.0,0.0,0.0,0.0,0.0,0.0,0.0,0.0,0.0,0.0,0.0,0.0,0.0,0.0,0.0,0.0,0.0,0.0,0.0,0.0,0.0,0.0,0.0,0.0,0.0,0.0,0.0,0.0,0.0,0.0,0.0,0.0,0.0,0.0,0.0,0.0,0.0,0.0,0.0,0.0,0.0,0.0,0.0,0.0,0.0,0.0,0.0,0.0,0.0,0.0,0.0,0.0,0.0,0.0,0.0,0.0,0.0,0.0,0.0,0.0,0.0,-1.8841,0.0,-2.0079,-1.9743,-1.881,-1.731,0.0,0.0,0.0,0.0,0.0,0.0,0.0,0.0,0.0,0.0,0.0,0.0,0.0,0.0,0.0,0.0,0.0,0.0,0.0,0.0,0.0,0.0,0.0,0.0,0.0,0.0,0.0,0.0,0.0,0.0,0.0,0.0,0.0,0.0,0.0,0.0,0.0,0.0,0.0,0.0,0.0,0.0,0.0,0.0,0.0,0.0,0.0,0.0,0.0,0.0,0.0,0.0,0.0,0.0,0.0,0.0,0.0,0.0,0.0,0.0,0.0,0.0,0.0,0.0,0.0,0.0,0.0,0.0,0.0,0.0,0.0,0.0,0.0,0.0,0.0,0.0,0.0,0.0,0.0,0.0,0.0,0.0,0.0,0.0,0.0,0.0,0.0,0.0,0.0,0.0,0.0,0.0,0.0,0.0,0.0,0.0,0.0,0.0,0.0,0.0,0.0,0.0,0.0,0.0,0.0,0.0,0.0,0.0,0.0,-2.0603,-2.048,-2.1903,-2.0811,-1.937,0.0,0.0,0.0,0.0,0.0,0.0,0.0,0.0,0.0,0.0,0.0,0.0,0.0,0.0,0.0,0.0,0.0,0.0,0.0,0.0,0.0,0.0,0.0,0.0,0.0,0.0,0.0,0.0,0.0,0.0,0.0,0.0,0.0,0.0,0.0,0.0,0.0,0.0,0.0,0.0,0.0,0.0,0.0,0.0,0.0,0.0,0.0,0.0,0.0,0.0,0.0,0.0,0.0,0.0,0.0,0.0,0.0,0.0,0.0,0.0,0.0,0.0,0.0,0.0,0.0,0.0,0.0,0.0,0.0,0.0,0.0,0.0,0.0,0.0,0.0,0.0,0.0,0.0,0.0,0.0,0.0,0.0,0.0,0.0,0.0,0.0,0.0,0.0,0.0,0.0,0.0,0.0,0.0,0.0,0.0,0.0,0.0,0.0,0.0,0.0,0.0,0.0,0.0,0.0,0.0,0.0,0.0,0.0,0.0,-1.8947,-1.9797,-2.1358,-2.3509,-2.152,-1.9791,0.0,0.0,0.0,0.0,0.0,0.0,0.0,0.0,0.0,0.0,0.0,0.0,0.0,0.0,0.0,0.0,0.0,0.0,0.0,0.0,0.0,0.0,0.0,0.0,0.0,0.0,0.0,0.0,0.0,0.0,0.0,0.0,0.0,0.0,0.0,0.0,0.0,0.0,0.0,0.0,0.0,0.0,0.0,0.0,0.0,0.0,0.0,0.0,0.0,0.0,0.0,0.0,0.0,0.0,0.0,0.0,0.0,0.0,0.0,0.0,0.0,0.0,0.0,0.0,0.0,0.0,0.0,0.0,0.0,0.0,0.0,0.0,0.0,0.0,0.0,0.0,0.0,0.0,0.0,0.0,0.0,0.0,0.0,0.0,0.0,0.0,0.0,0.0,0.0,0.0,0.0,0.0,0.0,0.0,0.0,0.0,0.0,0.0,0.0,0.0,0.0,0.0,0.0,0.0,0.0,0.0,0.0,0.0,0.0,-1.9082,0.0,-2.2903,0.0,-2.2091,-1.9979,0.0,0.0,0.0,0.0,0.0,0.0,0.0,0.0,0.0,0.0,0.0,0.0,0.0,0.0,0.0,0.0,0.0,0.0,0.0,0.0,0.0,0.0,0.0,0.0,0.0,0.0,0.0,0.0,0.0,0.0,0.0,0.0,0.0,0.0,0.0,0.0,0.0,0.0,0.0,0.0,0.0,0.0,0.0,0.0,0.0,0.0,0.0,0.0,0.0,0.0,0.0,0.0,0.0,0.0,0.0,0.0,0.0,0.0,0.0,0.0,0.0,0.0,0.0,0.0,0.0,0.0,0.0,0.0,0.0,0.0,0.0,0.0,0.0,0.0,0.0,0.0,0.0,0.0,0.0,0.0,0.0,0.0,0.0,0.0,0.0,0.0,0.0,0.0,0.0,0.0,0.0,0.0,0.0,0.0,0.0,0.0,0.0,0.0,0.0,0.0,0.0,0.0,0.0,0.0,0.0,0.0,0.0,0.0,-1.9332,-2.3215,-2.4908,-2.4919,-2.3395,-2.2483,-1.989,0.0,0.0,0.0,0.0,0.0,0.0,0.0,0.0,0.0,0.0,0.0,0.0,0.0,0.0,0.0,0.0,0.0,0.0,0.0,0.0,0.0,0.0,0.0,0.0,0.0,0.0,0.0,0.0,0.0,0.0,0.0,0.0,0.0,0.0,0.0,0.0,0.0,0.0,0.0,0.0,0.0,0.0,0.0,0.0,0.0,0.0,0.0,0.0,0.0,0.0,0.0,0.0,0.0,0.0,0.0,0.0,0.0,0.0,0.0,0.0,0.0,0.0,0.0,0.0,0.0,0.0,0.0,0.0,0.0,0.0,0.0,0.0,0.0,0.0,0.0,0.0,0.0,0.0,0.0,0.0,0.0,0.0,0.0,0.0,0.0,0.0,0.0,0.0,0.0,0.0,0.0,0.0,0.0,0.0,0.0,0.0,0.0,0.0,0.0,0.0,0.0,0.0,0.0,0.0,0.0,0.0,0.0,0.0,0.0,-2.1314,-2.2915,-2.4223,-2.5011,-2.2235,-2.0443,0.0,0.0,0.0,0.0,0.0,0.0,0.0,0.0,0.0,0.0,0.0,0.0,0.0,0.0,0.0,0.0,0.0,0.0,0.0,0.0,0.0,0.0,0.0,0.0,0.0,0.0,0.0,0.0,0.0,0.0,0.0,0.0,0.0,0.0,0.0,0.0,0.0,0.0,0.0,0.0,0.0,0.0,0.0,0.0,0.0,0.0,0.0,0.0,0.0,0.0,0.0,0.0,0.0,0.0,0.0,0.0,0.0,0.0,0.0,0.0,0.0,0.0,0.0,0.0,0.0,0.0,0.0,0.0,0.0,0.0,0.0,0.0,0.0,0.0,0.0,0.0,0.0,0.0,0.0,0.0,0.0,0.0,0.0,0.0,0.0,0.0,0.0,0.0,0.0,0.0,0.0,0.0,0.0,0.0,0.0,0.0,0.0,0.0,0.0,0.0,0.0,0.0,0.0,0.0,0.0,0.0,0.0,0.0,0.0,-2.3425,-2.5143,-2.6304,-2.6693,-2.3981,-2.1859,-2.0551,0.0,0.0,0.0,0.0,0.0,0.0,0.0,0.0,0.0,0.0,0.0,0.0,0.0,0.0,0.0,0.0,0.0,0.0,0.0,0.0,0.0,0.0,0.0,0.0,0.0,0.0,0.0,0.0,0.0,0.0,0.0,0.0,0.0,0.0,0.0,0.0,0.0,0.0,0.0,0.0,0.0,0.0,0.0,0.0,0.0,0.0,0.0,0.0,0.0,0.0,0.0,0.0,0.0,0.0,0.0,0.0,0.0,0.0,0.0,0.0,0.0,0.0,0.0,0.0,0.0,0.0,0.0,0.0,0.0,0.0,0.0,0.0,0.0,0.0,0.0,0.0,0.0,0.0,0.0,0.0,0.0,0.0,0.0,0.0,0.0,0.0,0.0,0.0,0.0,0.0,0.0,0.0,0.0,0.0,0.0,0.0,0.0,0.0,0.0,0.0,0.0,0.0,0.0,0.0,0.0,0.0,0.0,0.0,-2.8598,-3.0897,-3.0914,-2.8485,-2.7243,-2.4064,0.0,0.0,0.0,0.0,0.0,0.0,0.0,0.0,0.0,0.0,0.0,0.0,0.0,0.0,0.0,0.0,0.0,0.0,0.0,0.0,0.0,0.0,0.0,0.0,0.0,0.0,0.0,0.0,0.0,0.0,0.0,0.0,0.0,0.0,0.0,0.0,0.0,0.0,0.0,0.0,0.0,0.0,0.0,0.0,0.0,0.0,0.0,0.0,0.0,0.0,0.0,0.0,0.0,0.0,0.0,0.0,0.0,0.0,0.0,0.0,0.0,0.0,0.0,0.0,0.0,0.0,0.0,0.0,0.0,0.0,0.0,0.0,0.0,0.0,0.0,0.0,0.0,0.0,0.0,0.0,0.0,0.0,0.0,0.0,0.0,0.0,0.0,0.0,0.0,0.0,0.0,0.0,0.0,0.0,0.0,0.0,0.0,0.0,0.0,0.0,0.0,0.0,0.0,0.0,0.0,0.0,0.0,0.0,0.0,-3.1216,-3.5133,-3.6095,-3.3653,-2.9144,-2.5979,0.0,0.0,0.0,0.0,0.0,0.0,0.0,0.0,0.0,0.0,0.0,0.0,0.0,0.0,0.0,0.0,0.0,0.0,0.0,0.0,0.0,0.0,0.0,0.0,0.0,0.0,0.0,0.0,0.0,0.0,0.0,0.0,0.0,0.0,0.0,0.0,0.0,0.0,0.0,0.0,0.0,0.0,0.0,0.0,0.0,0.0,0.0,0.0,0.0,0.0,0.0,0.0,0.0,0.0,0.0,0.0,0.0,0.0,0.0,0.0,0.0,0.0,0.0,0.0,0.0,0.0,0.0,0.0,0.0,0.0,0.0,0.0,0.0,0.0,0.0,0.0,0.0,0.0,0.0,0.0,0.0,0.0,0.0,0.0,0.0,0.0,0.0,0.0,0.0,0.0,0.0,0.0,0.0,0.0,0.0,0.0,0.0,0.0,0.0,0.0,0.0,0.0,0.0,0.0,0.0,0.0,0.0,0.0,-3.05,-3.3428,-3.8322,-3.9979,-3.807,-3.237,-2.8159,0.0,0.0,0.0,0.0,0.0,0.0,0.0,0.0,0.0,0.0,0.0,0.0,0.0,0.0,0.0,0.0,0.0,0.0,0.0,0.0,0.0,0.0,0.0,0.0,0.0,0.0,0.0,0.0,0.0,0.0,0.0,0.0,0.0,0.0,0.0,0.0,0.0,0.0,0.0,0.0,0.0,0.0,0.0,0.0,0.0,0.0,0.0,0.0,0.0,0.0,0.0,0.0,0.0,0.0,0.0,0.0,0.0,0.0,0.0,0.0,0.0,0.0,0.0,0.0,0.0,0.0,0.0,0.0,0.0,0.0,0.0,0.0,0.0,0.0,0.0,0.0,0.0,0.0,0.0,0.0,0.0,0.0,0.0,0.0,0.0,0.0,0.0,0.0,0.0,0.0,0.0,0.0,0.0,0.0,0.0,0.0,0.0,0.0,0.0,0.0,0.0,0.0,0.0,0.0,0.0,0.0,0.0,0.0,-3.259,-3.5319,-4.0516,-4.2587,-4.1112,-3.5838,-3.0371,0.0,0.0,0.0,0.0,0.0,0.0,0.0,0.0,0.0,0.0,0.0,0.0,0.0,0.0,0.0,0.0,0.0,0.0,0.0,0.0,0.0,0.0,0.0,0.0,0.0,0.0,0.0,0.0,0.0,0.0,0.0,0.0,0.0,0.0,0.0,0.0,0.0,0.0,0.0,0.0,0.0,0.0,0.0,0.0,0.0,0.0,0.0,0.0,0.0,0.0,0.0,0.0,0.0,0.0,0.0,0.0,0.0,0.0,0.0,0.0,0.0,0.0,0.0,0.0,0.0,0.0,0.0,0.0,0.0,0.0,0.0,0.0,0.0,0.0,0.0,0.0,0.0,0.0,0.0,0.0,0.0,0.0,0.0,0.0,0.0,0.0,0.0,0.0,0.0,0.0,0.0,0.0,0.0,0.0,0.0,0.0,0.0,0.0,0.0,0.0,0.0,0.0,0.0,0.0,0.0,0.0,0.0,0.0,-3.3611,-3.6223,-4.0983,-4.2774,-4.1235,-3.6006,-3.147,0.0,0.0,0.0,0.0,0.0,0.0,0.0,0.0,0.0,0.0,0.0,0.0,0.0,0.0,0.0,0.0,0.0,0.0,0.0,0.0,0.0,0.0,0.0,0.0,0.0,0.0,0.0,0.0,0.0,0.0,0.0,0.0,0.0,0.0,0.0,0.0,0.0,0.0,0.0,0.0,0.0,0.0,0.0,0.0,0.0,0.0,0.0,0.0,-1.7156,0.0,0.0,0.0,0.0,0.0,0.0,0.0,0.0,0.0,0.0,0.0,0.0,0.0,0.0,0.0,0.0,0.0,0.0,0.0,0.0,0.0,0.0,0.0,0.0,0.0,0.0,0.0,0.0,0.0,0.0,0.0,0.0,0.0,0.0,0.0,0.0,0.0,0.0,0.0,0.0,0.0,0.0,0.0,0.0,0.0,0.0,0.0,0.0,0.0,0.0,0.0,0.0,0.0,0.0,0.0,0.0,0.0,0.0,0.0,-3.438,-3.7682,-4.1314,-4.263,-4.1302,-3.7,-3.2728,0.0,0.0,0.0,0.0,0.0,0.0,0.0,0.0,0.0,0.0,0.0,0.0,0.0,0.0,0.0,0.0,0.0,0.0,0.0,0.0,0.0,0.0,0.0,0.0,0.0,0.0,0.0,0.0,0.0,0.0,0.0,0.0,0.0,0.0,0.0,0.0,0.0,0.0,0.0,0.0,0.0,0.0,0.0,0.0,0.0,0.0,0.0,0.0,0.0,0.0,0.0,0.0,0.0,0.0,0.0,0.0,0.0,0.0,0.0,0.0,0.0,0.0,0.0,0.0,0.0,0.0,0.0,0.0,0.0,0.0,0.0,0.0,0.0,0.0,0.0,0.0,0.0,0.0,0.0,0.0,0.0,0.0,0.0,0.0,0.0,0.0,0.0,0.0,0.0,0.0,0.0,0.0,0.0,0.0,0.0,0.0,0.0,0.0,0.0,0.0,0.0,0.0,0.0,0.0,0.0,0.0,0.0,-3.0919,-3.4847,-3.9175,-4.1479,-4.224,-4.1404,-3.8029,-3.3849,-2.8943,0.0,0.0,0.0,0.0,0.0,0.0,0.0,0.0,0.0,0.0,0.0,0.0,0.0,0.0,0.0,0.0,0.0,0.0,0.0,0.0,0.0,0.0,0.0,0.0,0.0,0.0,0.0,0.0,0.0,0.0,0.0,0.0,0.0,0.0,0.0,0.0,0.0,0.0,-1.5012,-1.5438,0.0,0.0,0.0,0.0,0.0,0.0,0.0,0.0,-1.8576,0.0,0.0,0.0,0.0,0.0,0.0,0.0,0.0,0.0,0.0,0.0,0.0,0.0,0.0,0.0,0.0,0.0,0.0,0.0,0.0,0.0,0.0,0.0,0.0,0.0,0.0,0.0,0.0,0.0,0.0,0.0,0.0,0.0,0.0,0.0,0.0,0.0,0.0,0.0,0.0,0.0,0.0,0.0,0.0,0.0,0.0,0.0,0.0,0.0,0.0,0.0,0.0,0.0,0.0,0.0,0.0,-3.0509,-3.148,-3.4581,-4.0011,-4.1237,-4.1404,-4.055,-3.8006,-3.4234,-2.9239,0.0,0.0,0.0,0.0,0.0,0.0,0.0,0.0,0.0,0.0,0.0,0.0,0.0,0.0,0.0,0.0,0.0,0.0,0.0,0.0,0.0,0.0,0.0,0.0,0.0,0.0,0.0,0.0,0.0,0.0,0.0,0.0,0.0,0.0,0.0,0.0,0.0,0.0,0.0,-1.8011,-1.8548,0.0,0.0,0.0,0.0,0.0,0.0,0.0,0.0,-2.0997,0.0,0.0,0.0,0.0,0.0,0.0,0.0,0.0,0.0,0.0,0.0,0.0,0.0,0.0,0.0,0.0,0.0,0.0,0.0,0.0,0.0,0.0,0.0,0.0,0.0,0.0,0.0,0.0,0.0,0.0,0.0,0.0,0.0,0.0,0.0,0.0,0.0,0.0,0.0,0.0,0.0,0.0,0.0,0.0,0.0,0.0,0.0,0.0,0.0,0.0,0.0,0.0,0.0,0.0,0.0,-2.9961,-3.2553,-3.5957,-4.0323,-4.0882,-4.1106,-4.1036,-3.6912,-3.3087,0.0,0.0,0.0,0.0,0.0,0.0,0.0,0.0,0.0,0.0,0.0,0.0,0.0,0.0,0.0,0.0,0.0,0.0,0.0,0.0,0.0,0.0,0.0,0.0,0.0,0.0,0.0,0.0,0.0,0.0,0.0,0.0,0.0,0.0,0.0,0.0,0.0,0.0,0.0,0.0,-1.95,-2.0634,-2.2396,0.0,0.0,0.0,0.0,0.0,0.0,-2.2865,-2.2399,0.0,0.0,0.0,0.0,0.0,0.0,0.0,0.0,0.0,0.0,0.0,0.0,0.0,0.0,0.0,0.0,0.0,0.0,0.0,0.0,0.0,0.0,0.0,0.0,0.0,0.0,0.0,0.0,0.0,0.0,0.0,0.0,0.0,0.0,0.0,0.0,0.0,0.0,0.0,0.0,0.0,0.0,0.0,0.0,0.0,0.0,0.0,0.0,0.0,0.0,0.0,0.0,0.0,0.0,0.0,-2.9023,-3.3138,-3.6888,-4.0152,-4.0352,-4.0651,-4.1166,-3.5775,-3.1942,0.0,0.0,0.0,0.0,0.0,0.0,0.0,0.0,0.0,0.0,0.0,0.0,0.0,0.0,0.0,0.0,0.0,0.0,0.0,0.0,0.0,0.0,0.0,0.0,0.0,0.0,0.0,0.0,0.0,0.0,0.0,0.0,0.0,0.0,0.0,0.0,0.0,0.0,0.0,0.0,0.0,-2.2864,-2.4792,-2.3611,0.0,0.0,0.0,0.0,-2.4552,-2.4847,0.0,0.0,0.0,0.0,0.0,0.0,0.0,0.0,0.0,0.0,0.0,0.0,0.0,0.0,0.0,0.0,0.0,0.0,0.0,0.0,0.0,0.0,0.0,0.0,0.0,0.0,0.0,0.0,0.0,0.0,0.0,0.0,0.0,0.0,0.0,0.0,0.0,0.0,0.0,0.0,0.0,0.0,0.0,0.0,0.0,0.0,0.0,0.0,0.0,0.0,0.0,0.0,0.0,0.0,0.0,0.0,-2.895,-3.2045,-3.5495,-3.9218,-3.9558,-3.9614,-3.9554,-3.5401,-3.192,0.0,0.0,0.0,0.0,0.0,0.0,0.0,0.0,0.0,0.0,0.0,0.0,0.0,0.0,0.0,0.0,0.0,0.0,0.0,0.0,0.0,0.0,0.0,0.0,0.0,0.0,0.0,0.0,0.0,0.0,0.0,0.0,0.0,0.0,0.0,0.0,0.0,0.0,0.0,0.0,0.0,-2.5557,-2.5166,-2.5302,-2.5308,0.0,0.0,-2.817,-2.8183,-2.981,0.0,0.0,0.0,0.0,0.0,0.0,0.0,0.0,0.0,0.0,0.0,0.0,0.0,0.0,0.0,0.0,0.0,0.0,0.0,0.0,0.0,0.0,0.0,0.0,0.0,0.0,0.0,0.0,0.0,0.0,0.0,0.0,0.0,0.0,0.0,0.0,0.0,0.0,0.0,0.0,0.0,0.0,0.0,0.0,0.0,0.0,0.0,0.0,0.0,0.0,0.0,0.0,0.0,0.0,0.0,-2.4875,-2.906,-3.3224,-3.6911,-3.9989,-3.9639,-3.9626,-4.0114,-3.4685,-3.0686,0.0,0.0,0.0,0.0,0.0,0.0,0.0,0.0,0.0,0.0,0.0,0.0,0.0,0.0,0.0,0.0,0.0,0.0,0.0,0.0,0.0,0.0,0.0,0.0,0.0,0.0,0.0,0.0,0.0,0.0,0.0,0.0,0.0,0.0,0.0,0.0,0.0,0.0,0.0,0.0,0.0,0.0,-2.7821,-2.7827,0.0,0.0,0.0,-2.9608,-2.9496,0.0,0.0,0.0,0.0,0.0,0.0,0.0,0.0,0.0,0.0,0.0,0.0,0.0,0.0,0.0,0.0,0.0,0.0,0.0,0.0,0.0,0.0,0.0,0.0,0.0,0.0,0.0,0.0,0.0,0.0,0.0,0.0,0.0,0.0,0.0,0.0,0.0,0.0,0.0,0.0,0.0,0.0,0.0,0.0,0.0,0.0,0.0,0.0,0.0,0.0,0.0,0.0,0.0,0.0,0.0,0.0,0.0,-2.882,-3.4139,-3.7954,-4.0008,-3.9626,-3.9595,-4.0002,-3.4337,0.0,0.0,0.0,0.0,0.0,0.0,0.0,0.0,0.0,0.0,0.0,0.0,0.0,0.0,0.0,0.0,0.0,0.0,0.0,0.0,0.0,0.0,0.0,0.0,0.0,0.0,0.0,-1.2477,0.0,0.0,0.0,0.0,0.0,0.0,0.0,0.0,0.0,0.0,0.0,0.0,0.0,0.0,-2.8325,-2.9627,-2.9903,-3.0607,0.0,0.0,-3.1101,-3.0947,-3.2422,-3.2112,0.0,0.0,0.0,0.0,0.0,0.0,0.0,0.0,0.0,0.0,0.0,0.0,0.0,0.0,0.0,0.0,0.0,0.0,0.0,0.0,0.0,0.0,0.0,0.0,0.0,0.0,0.0,0.0,0.0,0.0,0.0,0.0,0.0,0.0,0.0,0.0,0.0,0.0,0.0,0.0,0.0,0.0,0.0,0.0,0.0,0.0,0.0,0.0,0.0,0.0,0.0,0.0,0.0,0.0,0.0,-2.8083,-3.3853,-3.7362,-3.8271,-3.9083,-3.9083,-3.8253,-3.4857,-3.1113,0.0,0.0,0.0,0.0,0.0,0.0,0.0,0.0,0.0,0.0,0.0,0.0,0.0,0.0,0.0,0.0,0.0,0.0,0.0,0.0,0.0,0.0,0.0,0.0,0.0,0.0,0.0,0.0,0.0,0.0,0.0,0.0,0.0,0.0,0.0,0.0,0.0,0.0,0.0,0.0,0.0,-2.988,-2.9093,-3.0909,-3.2794,0.0,0.0,-3.3476,-3.3436,-3.5721,-3.5334,-2.8972,0.0,0.0,0.0,0.0,0.0,0.0,0.0,0.0,0.0,0.0,0.0,0.0,0.0,0.0,0.0,0.0,0.0,0.0,0.0,0.0,0.0,0.0,0.0,0.0,0.0,0.0,0.0,0.0,0.0,0.0,0.0,0.0,0.0,0.0,0.0,0.0,0.0,0.0,0.0,0.0,0.0,0.0,0.0,0.0,0.0,0.0,0.0,0.0,0.0,0.0,0.0,0.0,0.0,-2.5652,-2.8052,-3.3806,-3.7461,-3.8838,-3.9136,-3.8893,-3.8109,-3.4825,-3.086,0.0,0.0,0.0,0.0,0.0,0.0,0.0,0.0,0.0,0.0,0.0,0.0,0.0,0.0,0.0,0.0,0.0,0.0,0.0,0.0,0.0,0.0,0.0,0.0,0.0,0.0,0.0,0.0,-1.5368,-1.5361,-1.4613,0.0,0.0,0.0,0.0,0.0,0.0,0.0,0.0,0.0,0.0,-3.1103,-3.2405,-3.3946,0.0,0.0,-3.6048,-3.5427,-3.4728,-3.5585,-3.4731,-2.9952,-2.8622,0.0,0.0,0.0,0.0,0.0,0.0,0.0,0.0,0.0,0.0,0.0,0.0,0.0,0.0,0.0,0.0,0.0,0.0,0.0,0.0,0.0,0.0,0.0,0.0,0.0,0.0,0.0,0.0,0.0,0.0,0.0,0.0,0.0,0.0,0.0,0.0,0.0,0.0,0.0,0.0,0.0,0.0,0.0,0.0,0.0,0.0,0.0,0.0,0.0,0.0,0.0,0.0,-2.562,-2.7724,-3.341,-3.6955,-3.8208,-3.8332,-3.8053,-3.7281,-3.4741,-3.1129,0.0,0.0,0.0,0.0,0.0,0.0,0.0,0.0,0.0,0.0,0.0,0.0,0.0,0.0,0.0,0.0,0.0,0.0,0.0,0.0,0.0,0.0,0.0,0.0,0.0,0.0,0.0,0.0,-1.5766,-1.5746,-1.4967,0.0,0.0,0.0,0.0,0.0,0.0,0.0,0.0,0.0,0.0,-3.2132,-3.3696,-3.4764,-3.5778,-3.682,-3.6026,-3.5166,-3.489,-3.4922,-3.3825,-3.0417,0.0,0.0,0.0,0.0,0.0,0.0,0.0,0.0,0.0,0.0,0.0,0.0,0.0,0.0,0.0,0.0,0.0,0.0,0.0,0.0,0.0,0.0,0.0,0.0,0.0,0.0,0.0,0.0,0.0,0.0,-1.5209,0.0,0.0,0.0,0.0,0.0,0.0,0.0,0.0,0.0,0.0,0.0,0.0,0.0,0.0,0.0,0.0,0.0,0.0,0.0,0.0,0.0,0.0,-2.5335,-2.6972,-3.2648,-3.5566,-3.5671,-3.6365,-3.642,-3.5603,-3.4643,-3.2228,-2.8096,0.0,0.0,0.0,0.0,0.0,0.0,0.0,0.0,0.0,0.0,0.0,0.0,0.0,0.0,0.0,0.0,0.0,0.0,0.0,0.0,0.0,0.0,0.0,0.0,0.0,0.0,-1.2898,-1.3903,-1.4902,0.0,0.0,0.0,0.0,0.0,0.0,0.0,0.0,0.0,0.0,-3.0325,-3.2824,-3.1888,-3.2507,-3.3708,-3.4968,-3.3222,-3.2269,-3.3901,-3.4059,-3.3056,0.0,0.0,0.0,0.0,0.0,0.0,0.0,0.0,0.0,0.0,0.0,0.0,0.0,0.0,0.0,0.0,0.0,0.0,0.0,0.0,0.0,0.0,0.0,0.0,0.0,0.0,0.0,-1.9413,-1.8816,0.0,0.0,0.0,0.0,0.0,0.0,0.0,0.0,0.0,0.0,0.0,-2.6238,-2.6115,0.0,0.0,0.0,0.0,0.0,0.0,0.0,0.0,0.0,0.0,0.0,0.0,-2.626,-2.8035,-3.2917,-3.5491,-3.551,-3.629,-3.6309,-3.5529,-3.4643,-3.2035,-2.7464,0.0,0.0,0.0,0.0,0.0,0.0,0.0,0.0,0.0,0.0,0.0,0.0,0.0,0.0,0.0,0.0,0.0,0.0,0.0,0.0,0.0,0.0,0.0,0.0,0.0,-1.4713,0.0,0.0,0.0,0.0,0.0,0.0,0.0,0.0,0.0,0.0,0.0,-2.6247,-2.8551,-3.0232,-3.1661,-3.288,-3.3977,-3.559,0.0,0.0,0.0,0.0,0.0,0.0,0.0,0.0,0.0,0.0,0.0,0.0,0.0,0.0,-2.5886,-2.2121,-2.1934,-2.2604,-2.3417,0.0,0.0,0.0,0.0,0.0,0.0,0.0,0.0,0.0,0.0,0.0,0.0,0.0,0.0,-2.2945,0.0,-2.1161,0.0,0.0,0.0,0.0,0.0,0.0,0.0,0.0,-2.793,-2.941,-3.0518,-3.0132,-2.9882,0.0,-2.813,-2.5466,0.0,0.0,0.0,0.0,0.0,0.0,0.0,0.0,-2.696,-2.8456,-3.2761,-3.5064,-3.507,-3.5566,-3.5584,-3.5064,-3.3901,-3.1781,-2.8598,-2.5434,-2.261,0.0,0.0,0.0,0.0,0.0,0.0,0.0,0.0,0.0,0.0,0.0,0.0,0.0,0.0,0.0,0.0,0.0,0.0,0.0,0.0,0.0,0.0,0.0,-1.5408,0.0,0.0,0.0,0.0,0.0,0.0,0.0,0.0,0.0,-2.5279,-2.6573,-2.834,-3.0745,-3.1405,-3.2087,-3.3152,0.0,0.0,0.0,0.0,0.0,0.0,0.0,-3.3246,-3.2704,-3.2597,-3.2929,-3.4049,-3.3999,-3.3665,-3.3277,0.0,0.0,-2.5629,-2.4979,-2.5432,-2.6197,-2.638,-2.6814,-2.8071,-2.7835,-2.7447,0.0,0.0,0.0,0.0,0.0,0.0,0.0,0.0,-2.6909,-2.6941,0.0,-2.5038,0.0,0.0,0.0,0.0,0.0,-2.6473,0.0,0.0,-3.4083,-3.5626,-3.4803,-3.3872,-3.332,-3.3007,-3.1512,-2.9866,-2.8038,-2.5104,0.0,0.0,0.0,0.0,0.0,0.0,-2.7466,-2.8445,-3.2236,-3.4216,-3.4216,-3.4234,-3.4216,-3.4197,-3.2531,-3.1548,-3.1341,-2.7556,-2.5179,-2.4639,-2.0461,0.0,0.0,0.0,0.0,0.0,0.0,0.0,0.0,0.0,0.0,0.0,0.0,0.0,0.0,0.0,0.0,0.0,0.0,0.0,0.0,-1.4831,0.0,0.0,0.0,0.0,0.0,0.0,0.0,0.0,0.0,0.0,-2.6463,-2.8799,-3.1214,-3.2647,0.0,0.0,0.0,0.0,-3.3564,-3.2486,-3.1476,-3.1342,-3.2199,-3.399,-3.526,-3.5073,0.0,0.0,-3.7461,-3.6067,-3.4923,-3.3725,-3.4605,-3.416,-3.0546,-2.888,-2.8302,-2.8884,-2.9158,-2.9531,-3.0528,-3.0878,-3.0747,-3.3095,0.0,0.0,0.0,0.0,-2.956,-3.0502,-3.1996,-3.1705,-3.1024,-3.0056,-2.881,0.0,0.0,0.0,0.0,0.0,0.0,-3.059,-3.2781,-3.4583,-3.5818,-3.6543,-3.5718,-3.5208,-3.4967,-3.391,-3.3111,-3.2448,-3.1004,-2.783,-2.3079,0.0,0.0,0.0,0.0,-2.8835,-3.0841,-3.3073,-3.4216,-3.4216,-3.4216,-3.4173,-3.4117,-3.244,-3.1519,-3.1476,-2.9205,-2.702,-2.5077,-2.3723,0.0,0.0,0.0,0.0,0.0,0.0,0.0,0.0,0.0,0.0,0.0,0.0,0.0,0.0,0.0,0.0,0.0,0.0,0.0,-1.5512,-1.6757,-1.7683,0.0,0.0,0.0,0.0,0.0,0.0,0.0,0.0,0.0,-3.0658,-3.0176,-3.0508,0.0,0.0,-3.1548,-3.2152,-3.3975,-3.5965,-3.7927,-3.7867,0.0,0.0,-3.8958,-3.7817,-3.7885,-3.9356,-4.0281,-3.9578,-3.997,-4.0111,-3.9215,-3.8654,-3.76,-3.5655,-3.4159,-3.3396,-3.3653,-3.3864,-3.4213,-3.4939,-3.4437,-3.3821,-3.7851,-3.384,-3.268,-3.2458,-3.2861,-3.2817,-3.3707,-3.5239,-3.5173,-3.4794,-3.4083,-3.2945,-3.1444,-2.9692,-2.8714,0.0,0.0,0.0,-3.3421,-3.5807,-3.6376,-3.73,-3.8373,-3.728,-3.6632,-3.6392,-3.525,-3.458,-3.436,-3.3519,-3.0961,-2.6795,0.0,0.0,-2.6571,-2.8542,-3.0293,-3.1782,-3.3332,-3.4124,-3.4124,-3.4124,-3.4068,-3.3986,-3.2361,-3.1483,-3.144,-2.9873,-2.8182,-2.644,-2.5601,-2.3518,0.0,0.0,0.0,0.0,0.0,0.0,0.0,0.0,0.0,0.0,0.0,-1.5638,-1.431,0.0,0.0,0.0,-1.5692,-1.6553,-1.883,-1.9279,0.0,0.0,0.0,0.0,0.0,0.0,0.0,-2.723,-3.0284,-3.281,-3.399,-3.3151,-3.3156,-3.5242,-3.4825,-3.4641,-3.5566,0.0,-3.9038,-4.0753,-4.0874,-4.1195,-4.2355,-4.1623,-4.1014,-4.1497,-4.1971,-4.2125,-4.1792,-4.2443,-4.2599,-4.1674,-4.0816,-3.9859,-3.8447,-3.7569,-3.6813,-3.6258,-3.6483,-3.6975,-3.7461,-3.6871,-3.6417,-4.1528,-4.0508,-3.7195,-3.5713,-3.5511,-3.5492,-3.6293,-3.7571,-3.7609,-3.8026,-3.8557,-3.7078,-3.5951,-3.5059,-3.29,0.0,-3.4222,-3.5148,-3.6804,-3.8994,-3.9176,-3.9652,-4.0291,-3.8602,-3.7651,-3.7374,-3.579,-3.4841,-3.4481,-3.3665,-3.278,-3.1879,-3.1024,-3.0191,-2.9498,-3.0782,-3.1567,-3.1708,-3.3148,-3.3943,-3.3998,-3.3998,-3.3941,-3.3784,-3.2293,-3.144,-3.1256,-2.9794,-2.8803,-2.8309,-2.6568,-2.4911,-2.333,0.0,0.0,0.0,0.0,0.0,0.0,0.0,0.0,0.0,0.0,0.0,0.0,0.0,0.0,0.0,-1.8205,0.0,-2.3197,-2.2315,0.0,0.0,0.0,-2.561,-2.8494,-2.9604,-3.0781,-3.2452,0.0,0.0,-3.6601,-3.7092,-3.8136,-4.0492,-4.0688,-4.0731,-4.1003,-4.1813,-4.2373,-4.1833,-4.182,-4.1717,-4.1887,-4.2886,-4.4084,-4.4757,-4.4828,-4.4073,-4.3597,-4.3515,-4.3035,-4.1754,-4.1492,-4.101,-3.9631,-3.9275,-3.8912,-3.73,-3.7488,-3.8107,-3.8237,-3.8171,-3.7918,-4.2691,-4.2417,-4.1426,-4.0196,-3.8918,-3.8918,-3.9106,-3.9378,-3.9397,-3.9119,-3.8652,-3.8273,-3.7628,-3.6823,-3.6948,-3.7214,-3.7601,-3.9142,-4.011,-4.0656,-4.1293,-4.1412,-4.098,-3.9335,-3.8184,-3.7452,-3.5874,-3.4927,-3.4645,-3.4475,-3.376,-3.2592,-3.2395,-3.1575,-3.0198,-3.0455,-3.1248,-3.2502,-3.289,-3.3389,-3.3979,-3.3947,-3.3613,-3.3011,-3.1979,-3.1091,-3.0436,-2.9471,-2.8827,-2.8596,-2.8149,-2.6878,-2.4651,-2.1274,0.0,0.0,0.0,0.0,0.0,0.0,0.0,0.0,0.0,-1.8613,-1.5734,0.0,-1.918,0.0,-2.1838,-2.4338,-2.5859,-2.6213,0.0,0.0,-2.8025,-2.8631,-3.1179,-3.2909,-3.3873,-3.3789,-3.6325,-3.8312,-3.8829,-4.0207,-4.2092,-4.4441,-4.1992,-4.032,-4.1332,-4.3299,-4.4557,-4.4466,-4.5558,-4.6581,-4.6036,-4.5432,-4.5045,-4.5252,-4.4496,-4.3759,-4.3628,-4.3615,-4.3127,-4.1819,-4.1492,-4.0925,-3.9646,-3.9532,-3.9474,-3.9043,-3.8624,-3.8296,-3.8363,-3.7704,-3.7053,-4.3436,-4.3101,-4.3281,-4.2305,-4.0689,-4.1078,-4.1149,-4.1073,-4.1073,-4.0797,-4.0339,-3.9949,-3.9551,-3.9134,-3.964,-3.9867,-3.9922,-4.1217,-4.1816,-4.1783,-4.2272,-4.1876,-4.0731,-3.9419,-3.8165,-3.6986,-3.572,-3.502,-3.487,-3.4793,-3.4386,-3.3635,-3.3467,-3.2754,-3.1493,-3.0956,-3.1176,-3.2108,-3.245,-3.3007,-3.3797,-3.3775,-3.3225,-3.2113,-3.1224,-3.0216,-2.9075,-2.8217,-2.7563,-2.7125,-2.7095,-2.6297,-2.4534,-2.2116,-2.0165,0.0,0.0,0.0,0.0,0.0,0.0,0.0,0.0,0.0,0.0,0.0,-2.1918,-2.2417,-2.5174,-2.7368,-2.8494,-2.8852,-2.9691,-3.1368,-3.176,-3.2704,-3.4726,-3.6197,-3.7165,-3.75,-3.8959,-4.0221,-4.1013,-4.1989,-4.341,-4.5517,-4.3502,-4.2411,-4.404,-4.5547,-4.6364,-4.6422,-4.7237,-4.7846,-4.7777,-4.6822,-4.5885,-4.5372,-4.4783,-4.4186,-4.37,-4.3615,-4.3127,-4.1819,-4.1492,-4.1026,-3.9717,-3.9496,-3.9481,-3.9002,-3.8331,-3.7927,-3.804,-3.7333,-3.6545,-4.4097,-4.3353,-4.3908,-4.3288,-4.194,-4.2631,-4.2555,-4.1931,-4.1836,-4.1882,-4.2041,-4.1567,-4.134,-4.137,-4.1484,-4.151,-4.1579,-4.2413,-4.2815,-4.2815,-4.2878,-4.2083,-4.0542,-3.9554,-3.8279,-3.6739,-3.5836,-3.5341,-3.5237,-3.5002,-3.478,-3.4531,-3.4076,-3.3451,-3.2607,-3.1657,-3.1206,-3.1307,-3.2004,-3.2757,-3.3437,-3.3273,-3.2461,-3.1064,-3.0142,-2.9028,-2.7588,-2.6783,-2.6023,-2.5274,-2.5227,-2.4922,-2.4245,-2.2569,-2.1394,0.0,-1.9245,0.0,0.0,0.0,0.0,0.0,0.0,0.0,0.0,-2.4042,-2.4979,-2.6575,-2.8288,-2.985,-3.1143,-3.1238,-3.2109,-3.4266,-3.5564,-3.68,-3.8101,-3.9001,-4.005,-4.1449,-4.1094,-4.1314,-4.2572,-4.281,-4.3333,-4.4639,-4.4524,-4.4766,-4.6795,-4.7269,-4.7416,-4.7633,-4.7425,-4.7396,-4.7434,-4.7075,-4.6363,-4.5485,-4.5037,-4.4756,-4.3759,-4.3509,-4.3066,-4.1949,-4.1492,-4.094,-3.9753,-3.9481,-3.9119,-3.8427,-3.7591,-3.7127,-3.7319,-3.6883,-3.6269,-4.5043,-4.4275,-4.4817,-4.4845,-4.4486,-4.4592,-4.2653,-3.9435,-3.8741,-3.9157,-4.0449,-4.1624,-4.2185,-4.2211,-4.2924,-4.3227,-4.3284,-4.4073,-4.4452,-4.4433,-4.4464,-4.3952,-4.2978,-4.1468,-4.0217,-3.9174,-3.7686,-3.6624,-3.5989,-3.6008,-3.5191,-3.3679,-3.3321,-3.2713,-3.1783,0.0,0.0,0.0,-3.2054,-3.2556,-3.2652,-3.1435,-3.0314,-2.9381,-2.8504,0.0,-2.6624,-2.6413,-2.62,-2.5922,-2.5911,0.0,0.0,0.0,0.0,0.0,0.0,0.0,0.0,0.0,0.0,0.0,-2.5137,-2.546,-2.5446,-2.7076,-2.8631,-2.9799,-3.1264,-3.2739,-3.4214,-3.5452,-3.631,-3.6822,-3.7748,-3.8517,-3.8985,-3.9885,-4.0702,-4.1082,-4.1598,-4.2045,-4.2286,-4.246,-4.2881,-4.3683,-4.4094,-4.467,-4.5546,-4.643,-4.7039,-4.7243,-4.725,-4.7391,-4.7496,-4.6454,-4.5639,-4.5241,-4.4468,-4.3919,-4.3611,-4.3113,-4.282,-4.2285,-4.1459,-4.065,-4.027,-3.9809,-3.9104,-3.8352,-3.7501,-3.6724,-3.6201,-3.5723,-3.5358,-4.5086,0.0,-4.4887,-4.487,0.0,-4.4102,-4.2438,-4.0072,-4.0837,-4.162,-4.2431,-4.3253,-4.3644,-4.3625,-4.3246,-4.3045,-4.3038,-4.264,-4.2875,-4.3663,-4.3682,-4.3227,-4.2431,-4.1605,-4.0309,-3.8679,-3.7807,-3.7211,-3.6794,-3.6415,-3.5751,-3.4781,-3.4132,-3.347,-3.284,-3.2392,-3.2023,-3.171,-3.212,-3.2547,-3.2897,-3.2165,-3.1177,-3.0019,0.0,0.0,0.0,0.0,0.0,0.0,0.0,0.0,0.0,0.0,0.0,-2.6941,-2.5945,-2.5599,-2.6359,-2.7125,-2.7769,-2.8258,-2.9748,-3.0007,-2.8504,-3.0889,-3.2603,-3.2945,-3.396,-3.4887,-3.5663,-3.6801,-3.7512,-3.7586,-3.8764,-3.9703,-3.9863,-4.0591,-4.1265,-4.1505,-4.1577,-4.1652,-4.1842,-4.1842,-4.2161,-4.2798,-4.2952,-4.3458,-4.4723,-4.5662,-4.6225,-4.6168,-4.6223,-4.6404,-4.6546,-4.5876,-4.5199,-4.5173,-4.4608,-4.3844,-4.3204,-4.2803,-4.238,-4.1738,-4.094,-4.0409,-3.9985,-3.9343,-3.8523,-3.7706,-3.6908,-3.6042,-3.5264,-3.4881,-3.4784,-4.5173,-4.4476,-4.4859,-4.468,-4.4088,-4.341,-4.2601,-4.1854,0.0,0.0,0.0,-4.4781,-4.4895,-4.48,-4.3455,-4.2848,-4.2742,-4.1393,-4.1419,-4.2586,-4.2562,-4.2134,-4.1358,-4.1207,-4.0026,-3.8058,-3.785,-3.7699,-3.7518,-3.6854,-3.6417,-3.6189,-3.518,-3.443,-3.4023,-3.3605,-3.3071,-3.2433,-3.2266,-3.2538,-3.3172,-3.2937,-3.2168,-3.0916,-3.0686,-2.9939,-2.8647,-2.8528,-2.7851,-2.6499,-2.641,-2.6426,-2.6519,-2.6519,-2.7209,-2.8691,-2.882,-2.9176,-2.9976,-3.0582,-3.1169,-3.1727,-3.3565,-3.3787,-3.1792,-3.4309,-3.5808,-3.5428,-3.6001,-3.6419,-3.6512,-3.7283,-3.7819,-3.7892,-3.9451,-4.0473,-4.0508,-4.0998,-4.1525,-4.1906,-4.1378,-4.1065,-4.1428,-4.1373,-4.1377,-4.1928,-4.1918,-4.2198,-4.3996,-4.5023,-4.5444,-4.5183,-4.5087,-4.5068,-4.5263,-4.5022,-4.4821,-4.4783,-4.4416,-4.3781,-4.2911,-4.238,-4.1835,-4.1026,-4.0462,-3.9884,-3.94,-3.8502,-3.7562,-3.6701,-3.5914,-3.5117,-3.4318,-3.4084,-3.4177,-4.6224,-4.4562,-4.5514,-4.5596,-4.5095,-4.4854,-4.4228,-4.3353,-4.2943,-4.2742,-4.2837,-4.4289,-4.4895,-4.4895,-4.4649,-4.4554,-4.4523,-4.4184,-4.3775,0.0,-4.3226,-4.2722,-4.1857,-4.1193,-4.0666,-4.029,-3.9563,-3.8848,-3.8193,-3.7823,-3.7331,-3.6553,-3.5334,-3.4272,-3.3491,-3.3352,-3.3283,-3.3212,-3.2585,-3.2341,-3.2413,-3.112,-3.0298,-3.0062,-2.9399,-2.8815,-2.8533,-2.8539,-2.8342,-2.8004,-2.7991,-2.8268,-2.8848,-2.8901,-2.9597,-3.1046,-3.1207,-3.1564,-3.2329,-3.2507,-3.2739,-3.3213,-3.3979,-3.4471,-3.4619,-3.5804,-3.6449,-3.6205,-3.6542,-3.6957,-3.7339,-3.8264,-3.9003,-3.9335,-4.0233,-4.0816,-4.0804,-4.0932,-4.1163,-4.1539,-4.1209,-4.1082,-4.1373,-4.1305,-4.1152,-4.1203,-4.1504,-4.2,-4.2975,-4.4285,-4.4934,-4.4714,-4.4325,-4.4135,-4.4097,-4.3861,-4.3627,-4.3651,-4.3211,-4.2731,-4.2328,-4.1513,-4.0932,-4.1213,-3.9793,-3.8906,-3.8948,-3.7636,-3.6334,-3.5366,-3.4687,-3.3947,-3.3211,-3.3038,-3.342,-4.6667,-4.5645,-4.6068,-4.5933,-4.5338,-4.448,-4.3888,-4.3423,-4.2726,-4.2666,-4.317,-4.3929,-4.4497,-4.4788,-4.3881,-4.3441,-4.3391,-4.2347,-4.2152,-4.2616,-4.2156,-4.1974,-4.1905,-4.1031,-4.036,-3.9924,-3.9381,-3.8936,-3.8537,-3.7964,-3.7483,-3.7049,-3.5494,-3.4499,-3.405,-3.3488,-3.3196,-3.3241,-3.3016,-3.2893,-3.2893,-3.2186,-3.1805,-3.1787,-3.1355,-3.1109,-3.1006,-3.0948,-3.0693,-3.0177,-3.0141,-3.029,-3.0618,-3.0636,-3.1044,-3.1952,-3.2236,-3.2428,-3.2554,-3.3097,-3.358,-3.4055,-3.477,-3.5347,-3.577,-3.6353,-3.6582,-3.6356,-3.6835,-3.7293,-3.7517,-3.869,-3.9527,-3.9687,-4.0405,-4.0877,-4.0918,-4.1111,-4.1214,-4.1209,-4.1209,-4.1232,-4.1186,-4.1111,-4.1018,-4.0976,-4.1499,-4.2037,-4.1985,-4.2801,-4.3461,-4.3361,-4.2875,-4.2585,-4.2652,-4.2381,-4.2189,-4.2144,-4.1769,-4.1203,-4.0642,-3.9984,-3.9807,-3.9373,-3.8582,-3.8106,-3.7811,-3.6456,-3.5245,-3.4492,-3.3735,-3.3105,-3.2765,-3.2672,-3.2974,-4.6984,-4.6405,-4.6387,-4.6049,-4.5365,-4.4022,-4.3351,-4.3088,-4.2353,-4.2394,-4.3005,-4.3279,-4.3872,-4.4447,-4.312,-4.2611,-4.2542,-4.1248,-4.1188,-4.2064,-4.1344,-4.1231,-4.148,-4.0542,-3.9705,-3.9138,-3.8832,-3.8711,-3.8637,-3.7959,-3.7477,-3.7109,-3.5624,-3.474,-3.4591,-3.3769,-3.3373,-3.3389,-3.3725,-3.3786,-3.3605,-3.3638,-3.3635,-3.362,-3.3593,-3.3427,-3.3119,-3.3042,-3.2677,-3.2043,-3.1974,-3.1972,-3.1956,-3.1972,-3.2097,-3.2435,-3.2688,-3.2777,-3.2651,-3.3248,-3.3987,-3.4753,-3.5327,-3.5814,-3.6159,-3.6461,-3.6523,-3.6429,-3.7119,-3.7659,-3.7919,-3.9022,-3.9864,-3.998,-4.0532,-4.0877,-4.0918,-4.1186,-4.1305,-4.1111,-4.1255,-4.1255,-4.1088,-4.0965,-4.0894,-4.1004,-4.1585,-4.1725,-4.1215,-4.1415,-4.1702,-4.1578,-4.1205,-4.0965,-4.1159,-4.0862,-4.0618,-4.0594,-4.0243,-3.9659,-3.891,-3.8888,-3.8648,-3.7769,-3.7433,-3.7028,-3.6096,-3.4913,-3.402,-3.3359,-3.2592,-3.198,-3.1705,-3.1666,-3.1977,-4.7481,-4.6465,-4.6444,-4.6001,-4.5379,-4.4326,-4.3446,-4.2649,-4.1411,-4.0898,-4.1099,-4.2073,-4.2988,-4.3696,-4.3479,-4.3718,-4.4333,-4.4032,-4.3473,-4.2805,-4.1967,-4.1169,-4.0523,-3.9472,-3.8907,-3.8788,-3.8556,-3.8412,-3.8396,-3.8094,-3.7479,-3.652,-3.5593,-3.4875,-3.4333,-3.4155,-3.4135,-3.4215,-3.4914,-3.4949,-3.4265,-3.4344,-3.439,-3.4321,-3.4357,-3.3968,-3.3155,-3.306,-3.2928,-3.2793,-3.2757,-3.2775,-3.2759,-3.2775,-3.2779,-3.2768,-3.2688,-3.2839,-3.3301,-3.3298,-3.392,-3.522,-3.5324,-3.5442,-3.583,-3.6131,-3.6322,-3.6443,-3.7328,-3.8132,-3.8533,-3.9568,-4.0356,-4.0625,-4.0808,-4.0894,-4.0894,-4.0918,-4.1088,-4.1423,-4.1186,-4.1065,-4.1283,-4.1065,-4.0888,-4.084,-4.1006,-4.1061,-4.0656,-4.0627,-4.0485,-3.9921,-3.9618,-3.9764,-3.9759,-3.9406,-3.9176,-3.9063,-3.8686,-3.8282,-3.7984,-3.7654,-3.7416,-3.6764,-3.6082,-3.5349,-3.4585,-3.3484,-3.2148,-3.1927,-3.1139,-3.0175,-2.9658,-2.9655,-3.0005,-4.7996,-4.7463,-4.7518,-4.7002,-4.6008,-4.3904,-4.274,-4.2297,-4.0973,-4.0127,-3.9832,-4.0646,-4.1974,-4.3548,-4.3402,-4.3748,-4.4421,-4.4237,-4.3666,-4.2832,-4.1838,-4.0932,-4.0092,-3.8894,-3.8318,-3.832,-3.8052,-3.7915,-3.7915,-3.781,-3.7542,-3.7059,-3.631,-3.5774,-3.5469,-3.504,-3.4807,-3.4823,-3.5144,-3.5395,-3.5501,-3.5241,-3.4839,-3.4389,-3.4323,-3.3932,-3.3149,-3.2979,-3.2932,-3.29,-3.29,-3.2752,-3.2418,-3.2436,-3.2196,-3.1768,-3.2183,-3.2783,-3.3458,-3.4132,-3.4723,-3.5145,-3.5406,-3.5526,-3.5448,-3.5588,-3.5655,-3.5841,-3.7305,-3.8621,-3.9209,-4.0106,-4.0718,-4.0866,-4.0894,-4.0894,-4.0894,-4.1094,-4.126,-4.1186,-4.1232,-4.1169,-4.1094,-4.0806,-4.0576,-4.0578,-4.0669,-4.0688,-4.0559,-4.0675,-4.0448,-3.9805,-3.93,-3.8772,-3.8525,-3.8359,-3.7914,-3.7266,-3.6935,-3.6814,-3.6478,-3.6157,-3.5761,-3.5414,-3.4607,-3.3725,-3.2917,-3.1811,-3.0655,-3.048,-3.0109,-2.9289,-2.8712,-2.8858,-2.9102,-4.8151,-4.8169,-4.8207,-4.7525,-4.6257,-4.4035,-4.2793,-4.2297,-4.1214,-4.0263,-3.9597,-4.0167,-4.1411,-4.2918,-4.2955,-4.3305,-4.3962,-4.386,-4.3335,-4.254,-4.1553,-4.0664,-3.9808,-3.8599,-3.8001,-3.7949,-3.7685,-3.7503,-3.7448,-3.7485,-3.7485,-3.7323,-3.6666,-3.6328,-3.6275,-3.5757,-3.5525,-3.556,-3.5721,-3.6149,-3.6559,-3.6092,-3.5388,-3.4686,-3.4549,-3.4051,-3.3049,-3.2932,-3.29,-3.29,-3.277,-3.2503,-3.2127,-3.1986,-3.1691,-3.1345,-3.2181,-3.3088,-3.3756,-3.4698,-3.5225,-3.5202,-3.5477,-3.5476,-3.5178,-3.5155,-3.5355,-3.5809,-3.7248,-3.8528,-3.9215,-4.0031,-4.0604,-4.0847,-4.0823,-4.0769,-4.0894,-4.1186,-4.1163,-4.083,-4.0931,-4.1013,-4.0621,-4.0279,-4.0146,-4.0426,-4.0581,-4.0742,-4.0756,-4.0781,-4.0512,-3.9914,-3.9027,-3.8292,-3.7676,-3.7211,-3.6631,-3.6087,-3.5731,-3.5451,-3.492,-3.46,-3.4257,-3.4018,-3.3264,-3.247,-3.159,-3.0448,-2.9598,-2.9332,-2.9055,-2.8621,-2.8047,-2.8355,-2.8115,-4.7854,-4.8128,-4.7986,-4.6957,-4.5503,-4.5134,-4.4207,-4.2795,-4.2244,-4.1541,-4.072,-4.1017,-4.158,-4.2174,-4.2231,-4.2652,-4.3368,-4.3339,-4.2829,-4.1987,-4.1187,-4.0385,-3.9582,-3.8534,-3.7984,-3.788,-3.7503,-3.722,-3.7085,-3.722,-3.722,-3.7013,-3.6478,-3.6164,-3.6182,-3.631,-3.6363,-3.6399,-3.6988,-3.7452,-3.7416,-3.6756,-3.6041,-3.5323,-3.5286,-3.4517,-3.3194,-3.2932,-3.2882,-3.2882,-3.2437,-3.2144,-3.2074,-3.1694,-3.1672,-3.2114,-3.3104,-3.3922,-3.4385,-3.4619,-3.4955,-3.5501,-3.538,-3.5085,-3.4787,-3.4937,-3.5466,-3.6621,-3.702,-3.7655,-3.8211,-3.9192,-4.0036,-4.0686,-4.0551,-4.051,-4.0823,-4.0806,-4.0728,-4.0412,-4.0303,-4.0188,-3.9773,-3.9662,-3.989,-4.0314,-4.0625,-4.0707,-4.075,-4.0415,-4.0015,-3.9503,-3.8821,-3.8089,-3.7411,-3.659,-3.581,-3.5195,-3.479,-3.4438,-3.4016,-3.3591,-3.3151,-3.2636,-3.1891,-3.1099,-3.0283,-2.9616,-2.9001,-2.8621,-2.8355,-2.7926,-2.7586,-2.7342,-2.7179,-4.7035,-4.6972,-4.6105,-4.572,-4.5624,-4.4343,-4.3406,-4.277,-4.2104,-4.1307,-4.0619,-4.1035,-4.1433,-4.1594,-4.2043,-4.2593,-4.3232,-4.3214,-4.2521,-4.1282,-4.0636,-3.9644,-3.8382,-3.7666,-3.7355,-3.7318,-3.7201,-3.7085,-3.7027,-3.7085,-3.7085,-3.6992,-3.6784,-3.6664,-3.672,-3.6891,-3.6984,-3.7001,-3.7415,-3.7595,-3.7559,-3.7327,-3.6488,-3.5049,-3.469,-3.4057,-3.2967,-3.2672,-3.247,-3.2402,-3.2403,-3.2235,-3.1893,-3.1816,-3.1957,-3.242,-3.3201,-3.3835,-3.4269,-3.4751,-3.4991,-3.5052,-3.4961,-3.4723,-3.4423,-3.4448,-3.4685,-3.5215,-3.6156,-3.6832,-3.7478,-3.868,-3.9714,-3.9961,-3.9961,-3.991,-4.002,-4.007,-4.0011,-3.9817,-3.9525,-3.9282,-3.9364,-3.902,-3.8862,-3.9416,-3.9731,-3.9897,-4.0024,-4.0081,-3.9905,-3.9401,-3.8762,-3.7933,-3.6598,-3.5864,-3.5117,-3.4448,-3.3903,-3.3304,-3.2804,-3.2277,-3.1813,-3.1455,-3.0684,-2.9793,-2.9019,-2.8329,-2.7851,-2.7296,-2.7033,-2.7342,-2.7272,-2.6994,-2.6742,-4.623,-4.5675,-4.4979,-4.4694,-4.4702,-4.3432,-4.2729,-4.2534,-4.2013,-4.1437,-4.1094,-4.1484,-4.1678,-4.1692,-4.2096,-4.2492,-4.2881,-4.2788,-4.1938,-4.0438,-4.0031,-3.8999,-3.7643,-3.7163,-3.6989,-3.6989,-3.6989,-3.693,-3.6811,-3.6869,-3.6869,-3.6753,-3.6849,-3.6906,-3.6928,-3.7105,-3.7201,-3.722,-3.7222,-3.7206,-3.7188,-3.6845,-3.6075,-3.4849,-3.4194,-3.3565,-3.2825,-3.2529,-3.249,-3.2551,-3.2615,-3.2378,-3.1874,-3.2141,-3.2447,-3.2747,-3.3484,-3.406,-3.4303,-3.4765,-3.4937,-3.4715,-3.457,-3.4374,-3.4126,-3.4101,-3.4219,-3.4655,-3.5284,-3.6174,-3.6825,-3.785,-3.8827,-3.9385,-3.948,-3.948,-3.9568,-3.9404,-3.9123,-3.8734,-3.8428,-3.8431,-3.8624,-3.8308,-3.837,-3.8783,-3.8858,-3.8827,-3.9195,-3.9028,-3.9056,-3.8546,-3.7827,-3.7032,-3.5989,-3.5185,-3.4612,-3.3947,-3.3271,-3.254,-3.177,-3.1174,-3.0557,-3.0203,-2.9512,-2.8597,-2.777,-2.708,-2.6487,-2.5853,-2.6032,-2.6418,-2.6465,-2.6599,-2.6392,-4.5513,-4.4547,-4.483,-4.405,-4.2972,-4.2687,-4.2449,-4.2097,-4.2008,-4.1967,-4.1961,-4.2313,-4.2118,-4.2192,-4.2068,-4.2228,-4.2169,-4.1941,-4.1141,-3.9875,-3.947,-3.8556,-3.7185,-3.6985,-3.6911,-3.6911,-3.695,-3.6751,-3.6385,-3.6564,-3.6585,-3.6423,-3.6585,-3.6664,-3.6681,-3.6829,-3.695,-3.6853,-3.6597,-3.6437,-3.6284,-3.5562,-3.4945,-3.4584,-3.3956,-3.3314,-3.2674,-3.2623,-3.2821,-3.324,-3.2962,-3.2512,-3.2306,-3.2748,-3.3105,-3.3275,-3.4079,-3.4601,-3.4642,-3.4658,-3.4691,-3.457,-3.4325,-3.4059,-3.3984,-3.4,-3.4246,-3.4797,-3.5221,-3.5631,-3.6225,-3.6614,-3.7379,-3.9059,-3.8947,-3.8892,-3.9129,-3.8902,-3.8209,-3.7415,-3.7297,-3.7274,-3.7266,-3.7412,-3.7813,-3.8167,-3.7855,-3.7535,-3.804,-3.7447,-3.674,-3.6665,-3.6493,-3.5979,-3.5249,-3.4526,-3.4032,-3.3498,-3.2806,-3.2087,-3.1215,-3.0534,-2.9584,-2.9052,-2.8402,-2.7516,-2.6588,-2.5946,-2.574,-2.5349,-2.5508,-2.5701,-2.6034,-2.6249,-2.6139,-4.4553,-4.3756,-4.3638,-4.3058,-4.2159,-4.1852,-4.1603,-4.1388,-4.1303,-4.1298,-4.1311,-4.1328,-4.1311,-4.1265,-4.118,-4.1139,-4.1094,-4.0756,-4.0509,-4.0264,-3.9491,-3.8531,-3.7565,-3.6852,-3.6509,-3.6509,-3.6509,-3.6447,-3.6322,-3.6381,-3.6381,-3.6322,-3.6381,-3.6297,-3.6088,-3.6262,-3.6266,-3.5998,-3.602,-3.6041,-3.6041,-3.569,-3.5137,-3.4358,-3.4011,-3.3622,-3.305,-3.288,-3.2858,-3.2981,-3.302,-3.315,-3.3405,-3.3663,-3.3777,-3.3834,-3.4054,-3.43,-3.43,-3.4275,-3.425,-3.4201,-3.3774,-3.3527,-3.3475,-3.3475,-3.3609,-3.4054,-3.4736,-3.5425,-3.5673,-3.6122,-3.6614,-3.7336,-3.7293,-3.7263,-3.7288,-3.7065,-3.6984,-3.6969,-3.6602,-3.6634,-3.702,-3.6981,-3.649,-3.6921,-3.6357,-3.5988,-3.6022,-3.5813,-3.544,-3.5507,-3.5251,-3.4775,-3.3887,-3.3363,-3.3066,-3.2498,-3.1881,-3.1398,-3.0573,-2.9807,-2.8831,-2.7801,-2.7177,-2.6399,-2.5486,-2.5029,-2.4907,-2.4935,-2.5093,-2.5409,-2.579,-2.5778,-2.5577,-4.3323,-4.2639,-4.2414,-4.1868,-4.1167,-4.0862,-4.0767,-4.0744,-4.0679,-4.0696,-4.0778,-4.0754,-4.0713,-4.0689,-4.0577,-4.0487,-4.048,-4.0136,-4.0021,-3.9964,-3.9123,-3.822,-3.7383,-3.6388,-3.5898,-3.5898,-3.5898,-3.5898,-3.5898,-3.5898,-3.5898,-3.5898,-3.5898,-3.5788,-3.5588,-3.5683,-3.5621,-3.5425,-3.5442,-3.5459,-3.5419,-3.5305,-3.4864,-3.4197,-3.4084,-3.3912,-3.3543,-3.3395,-3.3304,-3.3254,-3.3403,-3.3631,-3.3767,-3.3748,-3.3688,-3.3507,-3.3455,-3.3455,-3.3471,-3.3429,-3.3455,-3.3377,-3.3124,-3.2922,-3.2895,-3.2922,-3.2982,-3.3456,-3.4079,-3.4543,-3.4498,-3.4768,-3.4955,-3.4611,-3.5458,-3.5601,-3.5265,-3.4878,-3.4813,-3.4936,-3.4931,-3.5337,-3.5639,-3.5808,-3.5127,-3.5399,-3.4815,-3.4332,-3.429,-3.4124,-3.3901,-3.3623,-3.3271,-3.2789,-3.2302,-3.2085,-3.2035,-3.1452,-3.0826,-3.0417,-2.9839,-2.9129,-2.8291,-2.6874,-2.5979,-2.5158,-2.4257,-2.4375,-2.4346,-2.4526,-2.4636,-2.4856,-2.5061,-2.4832,-2.4736,-4.1906,-4.1248,-4.1104,-4.0565,-3.9839,-3.9738,-3.9817,-4.007,-4.0045,-4.0228,-4.0538,-4.0407,-4.0424,-4.0431,-4.0152,-4.0052,-4.0152,-3.9868,-3.9505,-3.9029,-3.8343,-3.7611,-3.6678,-3.5768,-3.5339,-3.5293,-3.5293,-3.527,-3.5299,-3.5316,-3.5224,-3.5293,-3.5316,-3.5201,-3.5201,-3.5178,-3.5178,-3.5021,-3.4818,-3.4715,-3.4691,-3.4382,-3.4118,-3.4003,-3.3962,-3.3912,-3.3754,-3.3698,-3.3838,-3.4002,-3.388,-3.3659,-3.3277,-3.3156,-3.2964,-3.2574,-3.2437,-3.2508,-3.2437,-3.2434,-3.2407,-3.2407,-3.2296,-3.2244,-3.2031,-3.2046,-3.2335,-3.2805,-3.3104,-3.3147,-3.2944,-3.2996,-3.2607,-3.1983,-3.3488,-3.4018,-3.3003,-3.2729,-3.2916,-3.2766,-3.2874,-3.3435,-3.4113,-3.4362,-3.4354,-3.4113,-3.3467,-3.2925,-3.2778,-3.2302,-3.1581,-3.1335,-3.1276,-3.1098,-3.073,-3.0864,-3.0709,-2.9907,-2.9532,-2.9458,-2.8872,-2.815,-2.7173,-2.5805,-2.4922,-2.4004,-2.3624,-2.3804,-2.3861,-2.3876,-2.4057,-2.421,-2.4278,-2.4259,-2.4297,-4.094,-4.0213,-3.9722,-3.9052,-3.8383,-3.825,-3.8502,-3.8897,-3.8859,-3.9156,-3.9549,-3.9497,-3.9401,-3.9391,-3.9135,-3.9044,-3.8974,-3.8882,-3.8957,-3.8868,-3.8257,-3.7044,-3.5904,-3.5388,-3.5195,-3.5188,-3.5175,-3.5201,-3.5201,-3.5085,-3.5091,-3.5201,-3.5045,-3.4991,-3.4883,-3.4747,-3.465,-3.4431,-3.4308,-3.4226,-3.4226,-3.4126,-3.3882,-3.3475,-3.3449,-3.324,-3.2911,-3.2846,-3.3044,-3.3423,-3.3433,-3.3188,-3.2695,-3.2586,-3.252,-3.2355,-3.2342,-3.237,-3.2244,-3.1832,-3.1603,-3.156,-3.1144,-3.0719,-3.0229,-3.0646,-3.0953,-3.1184,-3.1349,-3.1713,-3.1962,-3.1915,-3.1426,-3.0919,-3.1829,-3.2379,-3.1992,-3.2021,-3.2264,-3.2669,-3.3014,-3.3391,-3.3723,-3.3579,-3.3352,-3.3054,-3.2091,-3.1045,-3.1057,-3.0609,-2.9932,-2.9612,-2.9487,-2.9407,-2.9361,-2.9544,-2.9212,-2.8333,-2.8182,-2.849,-2.7698,-2.6724,-2.5564,-2.4208,-2.4103,-2.3428,-2.3392,-2.3485,-2.3457,-2.345,-2.3649,-2.3943,-2.4165,-2.4214,-2.4235,-3.9866,-3.9406,-3.874,-3.8144,-3.7722,-3.7632,-3.7764,-3.7966,-3.7879,-3.7982,-3.8254,-3.8096,-3.7994,-3.7982,-3.7767,-3.765,-3.7666,-3.7608,-3.7504,-3.7246,-3.6534,-3.5892,-3.5407,-3.5273,-3.5144,-3.498,-3.5021,-3.4964,-3.4733,-3.4439,-3.4169,-3.4028,-3.4028,-3.3853,-3.3495,-3.3672,-3.3578,-3.3319,-3.3335,-3.3377,-3.3393,-3.3377,-3.3245,-3.2895,-3.2868,-3.2695,-3.2437,-3.2425,-3.2574,-3.2815,-3.2841,-3.2614,-3.2104,-3.2035,-3.1908,-3.168,-3.1407,-3.1218,-3.1116,-3.0542,-3.0153,-3.0093,-2.9742,-2.9417,-2.9105,-2.9306,-2.9476,-2.9753,-3.0106,-3.046,-3.0563,-3.0439,-3.0164,-2.9991,-3.0303,-3.0599,-3.0676,-3.0751,-3.1245,-3.1841,-3.2253,-3.2575,-3.3106,-3.2395,-3.1972,-3.1577,-3.053,-2.9909,-2.9555,-2.8912,-2.8391,-2.8111,-2.7923,-2.7876,-2.7395,-2.7337,-2.7316,-2.6539,-2.6132,-2.6648,-2.6568,-2.5578,-2.4648,-2.368,-2.3343,-2.3169,-2.3153,-2.321,-2.3284,-2.3367,-2.3483,-2.3742,-2.4011,-2.4152,-2.4152,-3.8645,-3.8571,-3.7877,-3.7517,-3.7324,-3.7354,-3.7251,-3.7251,-3.7101,-3.7086,-3.7115,-3.6798,-3.6843,-3.66,-3.6737,-3.6477,-3.6477,-3.6569,-3.6107,-3.5613,-3.4997,-3.4742,-3.5404,-3.5015,-3.4745,-3.4584,-3.4643,-3.4413,-3.4017,-3.3286,-3.2784,-3.2749,-3.2559,-3.2269,-3.2321,-3.2367,-3.2269,-3.2308,-3.2461,-3.2532,-3.2574,-3.2574,-3.252,-3.2299,-3.1934,-3.1905,-3.1821,-3.1849,-3.1806,-3.1934,-3.2145,-3.1992,-3.1508,-3.1393,-3.1073,-3.0539,-3.004,-2.9642,-2.9453,-2.8971,-2.846,-2.8478,-2.8446,-2.8214,-2.8005,-2.8038,-2.8325,-2.8702,-2.9183,-2.9197,-2.9089,-2.8663,-2.8647,-2.8802,-2.8957,-2.9147,-2.9371,-2.9448,-2.9791,-3.057,-3.0781,-3.1061,-3.1003,-3.0678,-3.0068,-3.0259,-2.9155,-2.8208,-2.7834,-2.7374,-2.6958,-2.6635,-2.6512,-2.6436,-2.5703,-2.4982,-2.4963,-2.466,-2.4119,-2.4358,-2.5237,-2.4631,-2.3966,-2.3345,-2.2881,-2.2698,-2.2778,-2.2906,-2.3059,-2.3249,-2.3435,-2.3746,-2.4053,-2.4053,-2.4053,-3.6871,-3.6962,-3.6275,-3.5973,-3.5941,-3.5941,-3.6133,-3.6384,-3.6368,-3.6368,-3.6691,-3.6584,-3.6477,-3.6477,-3.6198,-3.643,-3.6119,-3.5963,-3.5982,-3.5658,-3.4972,-3.4744,-3.4796,-3.4236,-3.4005,-3.3975,-3.3931,-3.3671,-3.3171,-3.2881,-3.2518,-3.2048,-3.1905,-3.1946,-3.1862,-3.1806,-3.1975,-3.1959,-3.2015,-3.1972,-3.1931,-3.2046,-3.1921,-3.1522,-3.0733,-3.0254,-3.0072,-2.9645,-2.9352,-2.9678,-3.0719,-3.1262,-3.0748,-3.0297,-2.9979,-2.9732,-2.9156,-2.873,-2.857,-2.7986,-2.7471,-2.7471,-2.7245,-2.7002,-2.6496,-2.682,-2.7283,-2.7679,-2.7766,-2.7726,-2.7767,-2.786,-2.7793,-2.7601,-2.7669,-2.7907,-2.8385,-2.9557,-3.0064,-2.9919,-3.008,-3.0134,-2.9498,-2.9326,-2.8958,-2.8762,-2.7798,-2.6547,-2.602,-2.5702,-2.5421,-2.5091,-2.5003,-2.4914,-2.4494,-2.3696,-2.3205,-2.3035,-2.2565,-2.2426,-2.325,-2.3671,-2.2974,-2.2588,-2.227,-2.2259,-2.2371,-2.2535,-2.2743,-2.3029,-2.3179,-2.3288,-2.3388,-2.3587,-2.3994,-3.5561,-3.5359,-3.4714,-3.4438,-3.439,-3.4308,-3.4413,-3.457,-3.4437,-3.4493,-3.4615,-3.453,-3.4478,-3.4464,-3.4426,-3.4292,-3.4225,-3.4028,-3.381,-3.3534,-3.318,-3.3033,-3.2956,-3.2792,-3.2785,-3.3672,-3.3683,-3.3322,-3.2871,-3.2109,-3.1486,-3.116,-3.1087,-3.0881,-3.0896,-3.0955,-3.0733,-3.0451,-3.0556,-3.0497,-3.0258,-3.0273,-3.0287,-2.9983,-2.9317,-2.8953,-2.9062,-2.878,-2.8556,-2.878,-2.949,-2.9966,-2.9656,-2.9282,-2.9125,-2.8953,-2.8312,-2.792,-2.769,-2.7116,-2.6598,-2.6564,-2.6148,-2.5697,-2.5217,-2.5252,-2.5289,-2.5618,-2.5819,-2.609,-2.6757,-2.7021,-2.6961,-2.7316,-2.728,-2.7493,-2.7726,-2.8678,-2.9494,-2.9128,-2.9307,-2.9225,-2.8866,-2.8006,-2.7468,-2.708,-2.6136,-2.4876,-2.4131,-2.3854,-2.3764,-2.3525,-2.3484,-2.3326,-2.3141,-2.254,-2.1712,-2.1487,-2.1164,-2.1245,-2.1753,-2.1987,-2.2018,-2.1812,-2.1724,-2.185,-2.1987,-2.2177,-2.2013,-2.1804,-2.1845,-2.2223,-2.256,-2.2693,-2.3361,-3.4481,-3.3994,-3.3389,-3.3143,-3.3143,-3.301,-3.2912,-3.282,-3.2464,-3.2615,-3.2285,-3.2146,-3.255,-3.2218,-3.229,-3.2001,-3.1842,-3.1756,-3.1825,-3.1642,-3.1602,-3.1476,-3.1293,-3.1409,-3.1889,-3.3605,-3.3085,-3.2684,-3.2057,-3.1171,-3.0335,-2.9992,-2.973,-2.9529,-2.9387,-2.9481,-2.939,-2.8876,-2.8911,-2.8784,-2.8382,-2.833,-2.8395,-2.8446,-2.79,-2.788,-2.788,-2.767,-2.7591,-2.7834,-2.7802,-2.7802,-2.7834,-2.8233,-2.8201,-2.8122,-2.7371,-2.6833,-2.6352,-2.5953,-2.5641,-2.5535,-2.4898,-2.449,-2.4198,-2.3971,-2.4011,-2.4222,-2.4728,-2.5218,-2.5958,-2.6053,-2.6282,-2.6515,-2.6844,-2.6863,-2.6627,-2.6801,-2.6983,-2.7628,-2.7259,-2.6926,-2.6808,-2.627,-2.5837,-2.5256,-2.4307,-2.3393,-2.2693,-2.224,-2.224,-2.224,-2.224,-2.1785,-2.1507,-2.1114,-2.0324,-2.025,-1.9928,-1.9963,-2.0232,-2.0191,-2.0421,-2.1224,-2.1352,-2.1292,-2.1047,-2.0864,-2.0644,-2.0398,-2.0458,-2.0809,-2.1229,-2.1693,-2.2432,-3.3367,-3.3333,-3.3066,-3.2925,-3.289,-3.2713,-3.2393,-3.2429,-3.2141,-3.2227,-3.2074,-3.2074,-3.1892,-3.1942,-3.1869,-3.1599,-3.113,-3.0981,-3.0919,-3.0745,-3.0694,-3.0694,-3.0367,-3.043,-3.0913,-3.1306,-3.1217,-3.0864,-3.0635,-2.9797,-2.9289,-2.8699,-2.8292,-2.8059,-2.8078,-2.7934,-2.8065,-2.7802,-2.7841,-2.7762,-2.7485,-2.7465,-2.7564,-2.7538,-2.6642,-2.6336,-2.6233,-2.5367,-2.4648,-2.4791,-2.4684,-2.4672,-2.5121,-2.6395,-2.6769,-2.6497,-2.6171,-2.5557,-2.4672,-2.4576,-2.4217,-2.3818,-2.3423,-2.3482,-2.3552,-2.3504,-2.3275,-2.4087,-2.4634,-2.502,-2.4082,-2.4331,-2.3914,-2.3573,-2.3526,-2.3677,-2.3493,-2.3471,-2.3752,-2.447,-2.4398,-2.4526,-2.4511,-2.4417,-2.3984,-2.3498,-2.2767,-2.2038,-2.1387,-2.1191,-2.1191,-2.1183,-2.1183,-2.0534,-1.9872,-1.9459,-1.8972,-1.9231,-1.9022,-1.8674,-1.873,-1.8492,-1.8795,-1.9749,-2.0148,-2.003,-1.9801,-1.9537,-1.924,-1.8927,-1.913,-1.9368,-1.9811,-2.0268,-2.0668,-3.138,-3.1191,-3.0779,-3.0453,-3.0252,-3.0075,-3.0177,-3.0442,-3.0392,-3.0544,-3.0632,-3.0355,-3.0304,-3.043,-2.9948,-2.9769,-2.9897,-2.9833,-2.9485,-2.9174,-2.942,-2.9032,-2.8603,-2.8785,-2.8615,-2.8394,-2.8251,-2.911,-2.9798,-2.914,-2.8525,-2.8294,-2.7758,-2.7517,-2.7504,-2.7571,-2.7204,-2.7035,-2.6921,-2.6578,-2.5867,-2.5693,-2.553,-2.532,-2.4968,-2.4625,-2.4601,-2.4254,-2.3734,-2.3806,-2.3734,-2.3672,-2.3784,-2.3956,-2.4554,-2.4589,-2.4529,-2.4228,-2.3478,-2.361,-2.3564,-2.3382,-2.2575,-2.2216,-2.2179,-2.1838,-2.1809,-2.2249,-2.2838,-2.2999,-2.2483,-2.267,-2.2509,-2.2339,-2.208,-2.1744,-2.1491,-2.1065,-2.1174,-2.1534,-2.2171,-2.2536,-2.2613,-2.2416,-2.208,-2.1591,-2.1089,-2.0688,-2.0181,-2.013,-2.0122,-2.0223,-2.0236,-1.9852,-1.9126,-1.8599,-1.805,-1.8171,-1.7976,-1.7601,-1.7478,-1.7321,-1.7724,-1.8441,-1.8627,-1.85,-1.8375,-1.8074,-1.7831,-1.7482,-1.7428,-1.7579,-1.8282,-1.8829,-1.9182,-2.9606,-2.9135,-2.8585,-2.8096,-2.7723,-2.7533,-2.7879,-2.8343,-2.8331,-2.8609,-2.9,-2.8359,-2.8255,-2.8466,-2.8068,-2.7747,-2.8171,-2.8023,-2.762,-2.7325,-2.7609,-2.7069,-2.6224,-2.6287,-2.6648,-2.6086,-2.6243,-2.6967,-2.8229,-2.789,-2.7618,-2.7103,-2.6886,-2.6654,-2.6377,-2.6099,-2.6124,-2.5928,-2.5697,-2.4945,-2.3806,-2.3084,-2.2702,-2.2643,-2.251,-2.2472,-2.2637,-2.2227,-2.2136,-2.2173,-2.2211,-2.2323,-2.2285,-2.1604,-2.1556,-2.2237,-2.251,-2.2558,-2.2328,-2.2277,-2.2112,-2.1903,-2.1241,-2.0995,-2.0945,-2.044,-1.9731,-1.9766,-2.0443,-2.0955,-2.1021,-2.1055,-2.1205,-2.1123,-2.0813,-2.0515,-1.9979,-1.9471,-1.8986,-1.9435,-2.0207,-2.0538,-2.0538,-2.0656,-2.0357,-2.0158,-1.9702,-1.982,-1.9368,-1.9146,-1.9124,-1.9295,-1.9258,-1.9168,-1.8672,-1.8103,-1.7654,-1.7401,-1.694,-1.6389,-1.6348,-1.6348,-1.6753,-1.6899,-1.6857,-1.6731,-1.6683,-1.6704,-1.6386,-1.6064,-1.5681,-1.5922,-1.6834,-1.7412,-1.7753,-2.8934,-2.8454,-2.8203,-2.7896,-2.7371,-2.7058,-2.711,-2.718,-2.718,-2.7191,-2.725,-2.6964,-2.6789,-2.6614,-2.6438,-2.6202,-2.6171,-2.6088,-2.5933,-2.5672,-2.5922,-2.5472,-2.4735,-2.5546,-2.5052,-2.4352,-2.502,-2.5839,-2.6176,-2.5705,-2.5318,-2.5018,-2.4638,-2.3966,-2.3988,-2.387,-2.3489,-2.3415,-2.3415,-2.2914,-2.2146,-2.1797,-2.1435,-2.0919,-2.0343,-2.0042,-2.0352,-1.9935,-1.9485,-1.9485,-1.9219,-1.9031,-1.8833,-1.8652,-1.8492,-1.9022,-1.9701,-2.0468,-2.0108,-2.0239,-2.0233,-2.0049,-1.9435,-1.9488,-1.9591,-1.9792,-1.9537,-2.011,-2.0285,-1.9916,-1.947,-1.9633,-1.9552,-1.8875,-1.8203,-1.821,-1.8105,-1.7586,-1.7101,-1.7279,-1.8039,-1.8321,-1.844,-1.8662,-1.8729,-1.852,-1.837,-1.8482,-1.8429,-1.8101,-1.814,-1.8243,-1.824,-1.8106,-1.776,-1.7295,-1.6855,-1.6535,-1.5967,-1.5274,-1.5198,-1.5217,-1.4952,-1.5089,-1.5105,-1.5457,-1.5818,-1.5716,-1.5146,-1.5016,-1.5075,-1.5276,-1.5592,-1.6034,-1.6597,-2.6033,-2.5928,-2.5848,-2.5346,-2.4628,-2.4469,-2.4586,-2.4851,-2.5346,-2.5639,-2.5607,-2.5115,-2.447,-2.399,-2.4045,-2.4248,-2.4173,-2.4151,-2.3851,-2.3733,-2.3808,-2.3411,-2.2484,-2.2877,-2.2901,-2.244,-2.2372,-2.2328,-2.2934,-2.4138,-2.4565,-2.3501,-2.3065,-2.2743,-2.2059,-2.1711,-2.1576,-2.1425,-2.1092,-2.0681,-2.0256,-1.9876,-1.9494,-1.9191,-1.8713,-1.8634,-1.8532,-1.8483,-1.8189,-1.827,-1.8149,-1.8149,-1.7989,-1.7706,-1.7472,-1.8029,-1.7592,-1.7976,-1.8714,-1.888,-1.8859,-1.8939,-1.8715,-1.8503,-1.8405,-1.8202,-1.8214,-1.8095,-1.7819,-1.7526,-1.7197,-1.6962,-1.6775,-1.6284,-1.5896,-1.6009,-1.6115,-1.5583,-1.5245,-1.553,-1.5802,-1.6227,-1.6764,-1.7404,-1.7509,-1.7186,-1.6975,-1.6922,-1.6869,-1.6599,-1.682,-1.7246,-1.7197,-1.7089,-1.666,-1.6192,-1.5615,-1.5295,-1.5158,-1.4544,-1.4214,-1.407,-1.4136,-1.4268,-1.4623,-1.4883,-1.5164,-1.5025,-1.4704,-1.4649,-1.4696,-1.4992,-1.5242,-1.5558,-1.6042,-2.3168,-2.3138,-2.3631,-2.326,-2.2438,-2.2394,-2.2541,-2.28,-2.3418,-2.3796,-2.3627,-2.2988,-2.208,-2.1549,-2.1963,-2.2261,-2.2261,-2.2199,-2.1875,-2.1664,-2.1664,-2.1274,-2.0684,-2.0675,-2.0577,-1.9579,-1.9909,-1.9765,-2.0212,-2.1394,-2.2317,-2.1933,-2.1339,-2.1036,-2.0644,-2.0168,-1.9809,-1.977,-1.9358,-1.8933,-1.8545,-1.8052,-1.7674,-1.7391,-1.7237,-1.7139,-1.7171,-1.6788,-1.6723,-1.6852,-1.6716,-1.6565,-1.6609,-1.6243,-1.6159,-1.6369,-1.5906,-1.6004,-1.6889,-1.7415,-1.7916,-1.7997,-1.7992,-1.7077,-1.6874,-1.6401,-1.613,-1.6333,-1.5834,-1.5457,-1.5088,-1.4888,-1.5045,-1.4866,-1.4288,-1.4298,-1.425,-1.3976,-1.4132,-1.4669,-1.4883,-1.4615,-1.5257,-1.6174,-1.6287,-1.5855,-1.5642,-1.5411,-1.5388,-1.5258,-1.5688,-1.6189,-1.6309,-1.6179,-1.5795,-1.5295,-1.4649,-1.4261,-1.4093,-1.4038,-1.3805,-1.394,-1.4182,-1.425,-1.4171,-1.4455,-1.4782,-1.4509,-1.431,-1.4419,-1.4552,-1.4758,-1.5055,-1.5382,-1.5709,-2.1177,-2.0718,-2.2385,-2.278,-2.2306,-2.2394,-2.2085,-2.1578,-2.1721,-2.1471,-2.1043,-2.0576,-2.0387,-2.0215,-2.0107,-2.0234,-2.0296,-2.0359,-2.007,-2.0025,-2.0223,-1.9526,-1.894,-1.874,-1.8732,-1.801,-1.7949,-1.757,-1.7255,-1.8239,-1.9026,-1.923,-1.9052,-1.8652,-1.8365,-1.8106,-1.7865,-1.7865,-1.7681,-1.7399,-1.6992,-1.6599,-1.6327,-1.5661,-1.5118,-1.4761,-1.4983,-1.4646,-1.4516,-1.4879,-1.481,-1.479,-1.4993,-1.4828,-1.4909,-1.4828,-1.4747,-1.4767,-1.5248,-1.5631,-1.5393,-1.5239,-1.5316,-1.5747,-1.5755,-1.5053,-1.4843,-1.4927,-1.447,-1.4223,-1.4253,-1.43,-1.3847,-1.3491,-1.3004,-1.3004,-1.2955,-1.2792,-1.3004,-1.3809,-1.3809,-1.3383,-1.3275,-1.4137,-1.4728,-1.4406,-1.3725,-1.3495,-1.4082,-1.4139,-1.4665,-1.5116,-1.5382,-1.5325,-1.5128,-1.4618,-1.4201,-1.3749,-1.3512,-1.3627,-1.3667,-1.3836,-1.3424,-1.3736,-1.3626,-1.4035,-1.4177,-1.3754,-1.3607,-1.4111,-1.4418,-1.4714,-1.5183,-1.5703,-1.6019,-1.8734,-1.8549,-1.9252,-2.0124,-2.1033,-2.0268,-1.9679,-1.9231,-1.9015,-1.8924,-1.8748,-1.8664,-1.8303,-1.794,-1.7716,-1.7468,-1.7142,-1.7088,-1.7181,-1.7088,-1.6955,-1.6821,-1.6586,-1.6673,-1.6438,-1.621,-1.6196,-1.6149,-1.5819,-1.5872,-1.5801,-1.6153,-1.6401,-1.6419,-1.6152,-1.5985,-1.5696,-1.5489,-1.5602,-1.5445,-1.5014,-1.4733,-1.4647,-1.4626,-1.4246,-1.4141,-1.4293,-1.4084,-1.4002,-1.395,-1.3874,-1.3795,-1.3773,-1.3791,-1.3798,-1.3843,-1.3804,-1.375,-1.3851,-1.4337,-1.4862,-1.5108,-1.5102,-1.4948,-1.487,-1.423,-1.3837,-1.3649,-1.3218,-1.2851,-1.2646,-1.2321,-1.1932,-1.1878,-1.1873,-1.1932,-1.1878,-1.1769,-1.1769,-1.2521,-1.2254,-1.1773,-1.1769,-1.1932,-1.2526,-1.2842,-1.2156,-1.1755,-1.2409,-1.3044,-1.3507,-1.4008,-1.4274,-1.4501,-1.4301,-1.3994,-1.3724,-1.3323,-1.297,-1.2917,-1.2903,-1.212,-1.1897,-1.241,-1.2894,-1.2928,-1.2867,-1.2711,-1.2933,-1.3569,-1.4165,-1.4624,-1.5227,-1.5744,-1.5952,-1.7289,-1.7289,-1.7289,-1.8087,-1.9209,-1.8349,-1.7662,-1.7264,-1.6994,-1.68,-1.6861,-1.6861,-1.6593,-1.5994,-1.5906,-1.5764,-1.552,-1.5378,-1.5242,-1.533,-1.5425,-1.5105,-1.5051,-1.4949,-1.4991,-1.4717,-1.4484,-1.4382,-1.4328,-1.3844,-1.3525,-1.3431,-1.3501,-1.3586,-1.4494,-1.4132,-1.3851,-1.3646,-1.3743,-1.4038,-1.3709,-1.3689,-1.379,-1.4008,-1.3774,-1.3682,-1.3676,-1.3507,-1.3197,-1.3049,-1.294,-1.2865,-1.2801,-1.2731,-1.2772,-1.2772,-1.2748,-1.2634,-1.262,-1.3124,-1.3938,-1.4294,-1.3702,-1.3818,-1.3927,-1.3294,-1.261,-1.2636,-1.1918,-1.135,-1.1295,-1.1181,-1.1126,-1.1232,-1.1177,-1.1177,-1.1122,-1.1067,-1.0962,-1.1122,-1.0743,-1.0574,-1.1013,-1.1164,-1.1263,-1.1711,-1.1502,-1.1136,-1.1256,-1.1836,-1.2231,-1.2712,-1.3142,-1.3367,-1.3505,-1.3529,-1.3456,-1.2802,-1.24,-1.2044,-1.1755,-1.1033,-1.0958,-1.1747,-1.1991,-1.1737,-1.1779,-1.2006,-1.2536,-1.3089,-1.3572,-1.3903,-1.4017,-1.4426,-1.5068,-1.7149,-1.7289,-1.7102,-1.7149,-1.7134,-1.7048,-1.668,-1.6231,-1.5846,-1.5561,-1.5283,-1.5283,-1.5235,-1.5099,-1.5092,-1.4806,-1.4519,-1.4615,-1.4567,-1.4274,-1.4028,-1.4615,-1.437,-1.389,-1.3264,-1.3613,-1.313,-1.2694,-1.2754,-1.2002,-1.1334,-1.0785,-1.0774,-1.102,-1.3125,-1.3349,-1.3355,-1.3319,-1.3155,-1.3157,-1.3065,-1.2957,-1.3043,-1.315,-1.2837,-1.2595,-1.2612,-1.2289,-1.1895,-1.1594,-1.1334,-1.1015,-1.0501,-1.0378,-1.0343,-1.0254,-1.0125,-1.0004,-0.994,-1.0898,-1.1864,-1.2666,-1.1971,-1.1793,-1.2389,-1.2051,-1.1474,-1.1639,-1.1059,-1.0802,-1.0692,-1.0637,-1.0582,-1.0523,-1.0468,-1.0304,-1.019,-1.008,-0.9915,-0.986,-0.9746,-0.9691,-1.0245,-1.055,-1.0411,-1.0512,-1.0631,-1.0633,-1.0564,-1.0943,-1.1501,-1.2169,-1.269,-1.2887,-1.3185,-1.334,-1.3179,-1.2421,-1.1753,-1.1222,-1.0933,-1.057,-1.0741,-1.1238,-1.1162,-1.0953,-1.1186,-1.1493,-1.1578,-1.1686,-1.2459,-1.2792,-1.292,-1.3319,-1.4175,-1.425,-1.4208,-1.3519,-1.3134,-1.3278,-1.4918,-1.5507,-1.5235,-1.4382,-1.395,-1.4286,-1.4286,-1.4286,-1.4286,-1.4088,-1.3601,-1.2678,-1.2484,-1.2334,-1.1599,-1.1745,-1.1404,-1.1453,-1.1604,-1.1219,-1.1023,-1.0739,-1.0837,-1.0641,-1.0288,-1.0008,-0.9548,-0.8922,-0.9302,-1.0076,-1.0496,-1.0704,-1.045,-1.0598,-1.085,-1.0791,-1.0753,-1.0862,-1.1272,-1.0953,-1.0896,-1.112,-1.0795,-1.0492,-1.0226,-0.9985,-0.9783,-0.9452,-0.941,-0.946,-0.9509,-0.9558,-0.9608,-0.939,-0.968,-0.961,-1.0115,-1.0229,-1.0038,-1.0845,-1.0478,-1.0421,-1.0609,-1.0186,-1.0139,-1.0523,-1.0025,-0.986,-0.9805,-0.964,-0.9247,-0.9027,-0.8861,-0.8696,-0.864,-0.8527,-0.8559,-0.8882,-0.9421,-0.9414,-0.9533,-0.9686,-1.0105,-1.0226,-1.0685,-1.1229,-1.2035,-1.2552,-1.2669,-1.28,-1.2723,-1.228,-1.1424,-1.0699,-1.0062,-0.99,-0.9834,-0.9727,-0.9817,-1.0043,-1.0196,-1.0272,-1.0297,-0.9939,-1.0058,-1.1048,-1.1987,-1.2332,-1.2949,-1.3816,-1.2193,-1.2096,-1.1365,-1.0974,-1.1072,-1.2716,-1.3343,-1.2958,-1.2106,-1.1965,-1.2296,-1.2387,-1.2339,-1.2387,-1.229,-1.2047,-1.0685,-1.0632,-1.0538,-0.9608,-0.9657,-0.9899,-0.985,-0.9505,-0.9998,-0.9558,-0.9558,-0.9706,-0.9756,-0.9258,-0.8709,-0.8092,-0.7593,-0.7428,-0.7892,-0.8617,-0.9335,-0.9244,-0.9544,-0.9607,-0.9468,-0.9397,-0.939,-0.9615,-0.9653,-0.9583,-0.962,-0.9558,-0.9361,-0.9209,-0.9011,-0.8863,-0.8715,-0.852,-0.8517,-0.8467,-0.8368,-0.8347,-0.8056,-0.7592,-0.7614,-0.8064,-0.8183,-0.8779,-0.9405,-0.9281,-0.9288,-0.9299,-0.9137,-0.9361,-0.9581,-0.9027,-0.8972,-0.892,-0.8806,-0.8416,-0.8251,-0.8085,-0.8017,-0.7907,-0.7581,-0.7515,-0.7567,-0.795,-0.8311,-0.8557,-0.8808,-0.9226,-0.9611,-1.0022,-1.049,-1.1234,-1.1661,-1.1567,-1.1664,-1.1821,-1.1261,-1.0386,-0.9813,-0.9282,-0.8929,-0.8855,-0.8657,-0.8612,-0.9245,-0.9567,-0.922,-0.903,-0.9206,-0.9493,-1.0131,-1.0954,-1.167,-1.2285,-1.2944,-1.1112,-1.1112,-1.0828,-1.0583,-1.0636,-1.0382,-1.0092,-0.9752,-0.9706,-0.9756,-0.9756,-0.9998,-1.0145,-0.9899,-0.9801,-0.9752,-0.9604,-0.9554,-0.9308,-0.911,-0.8715,-0.8913,-0.8859,-0.8707,-0.8209,-0.8757,-0.8757,-0.7961,-0.9008,-0.7816,-0.681,-0.6179,-0.5332,-0.5426,-0.6227,-0.6969,-0.7749,-0.7869,-0.8294,-0.8295,-0.8135,-0.8638,-0.8706,-0.8811,-0.8886,-0.8882,-0.8966,-0.8962,-0.8616,-0.8269,-0.7971,-0.7375,-0.688,-0.6487,-0.6434,-0.6384,-0.6337,-0.6446,-0.6492,-0.61,-0.594,-0.6442,-0.6796,-0.768,-0.8251,-0.8306,-0.8309,-0.8309,-0.8198,-0.8143,-0.8088,-0.8033,-0.7974,-0.7977,-0.7977,-0.7808,-0.7695,-0.7631,-0.7561,-0.7304,-0.679,-0.6603,-0.6609,-0.6883,-0.7232,-0.7306,-0.7471,-0.7607,-0.7999,-0.8631,-0.9136,-0.9874,-1.017,-1.0168,-1.0372,-1.0751,-1.0246,-0.9364,-0.9247,-0.88,-0.8387,-0.8219,-0.8472,-0.869,-0.8969,-0.9117,-0.9117,-0.912,-0.9108,-0.9402,-0.9725,-1.0006,-1.0747,-1.0891,-1.1314,-0.9895,-0.9807,-0.892,-0.8425,-0.8173,-0.772,-0.8269,-0.9509,-0.9608,-0.9608,-0.9608,-0.9608,-0.9209,-0.9608,-0.9608,-0.9011,-0.8616,-0.8368,-0.7872,-0.7425,-0.6775,-0.6376,-0.6074,-0.577,-0.532,-0.522,-0.532,-0.562,-0.5172,-0.4724,-0.4722,-0.3987,-0.3722,-0.3865,-0.415,-0.4508,-0.522,-0.5987,-0.663,-0.6651,-0.6625,-0.6897,-0.714,-0.731,-0.7325,-0.7325,-0.7325,-0.7325,-0.6977,-0.688,-0.6833,-0.6534,-0.6537,-0.6387,-0.6387,-0.6139,-0.6052,-0.6037,-0.5894,-0.5638,-0.5529,-0.5515,-0.5881,-0.6366,-0.6932,-0.7263,-0.7315,-0.7371,-0.726,-0.7204,-0.7304,-0.7243,-0.7124,-0.7061,-0.6995,-0.6864,-0.6751,-0.6521,-0.6508,-0.6439,-0.5938,-0.5966,-0.5904,-0.5927,-0.6208,-0.6188,-0.6228,-0.6376,-0.6623,-0.7263,-0.7832,-0.863,-0.9063,-0.9107,-0.9343,-0.9713,-0.9075,-0.8467,-0.8453,-0.8438,-0.8233,-0.8231,-0.8495,-0.8754,-0.902,-0.9268,-0.9456,-0.9242,-0.8799,-0.9144,-0.9472,-0.9594,-0.9716,-1.0069,-1.0494,-0.8621,-0.8343,-0.7233,-0.6295,-0.5611,-0.5304,-0.5958,-0.7091,-0.7941,-0.817,-0.772,-0.7621,-0.7468,-0.6913,-0.6813,-0.6517,-0.6024,-0.5872,-0.5575,-0.5127,-0.4481,-0.4429,-0.3877,-0.3525,-0.3574,-0.3175,-0.3175,-0.3725,-0.3124,-0.3175,-0.3272,-0.3268,-0.2833,-0.2795,-0.3047,-0.3078,-0.2921,-0.3709,-0.4312,-0.4539,-0.4714,-0.4834,-0.5031,-0.524,-0.524,-0.524,-0.524,-0.524,-0.5186,-0.5133,-0.5131,-0.5131,-0.5231,-0.5331,-0.5534,-0.5336,-0.5541,-0.5627,-0.5638,-0.5444,-0.5442,-0.5433,-0.5456,-0.5701,-0.5935,-0.6267,-0.6434,-0.6599,-0.6434,-0.632,-0.6415,-0.6508,-0.6325,-0.609,-0.595,-0.5866,-0.5584,-0.5362,-0.5303,-0.5303,-0.532,-0.5408,-0.5371,-0.5333,-0.538,-0.5696,-0.582,-0.5916,-0.6038,-0.6383,-0.6834,-0.7399,-0.7841,-0.8174,-0.846,-0.8805,-0.8488,-0.8153,-0.8145,-0.8127,-0.8052,-0.8271,-0.8627,-0.8885,-0.9118,-0.9134,-0.902,-0.8676,-0.8353,-0.8635,-0.8503,-0.8295,-0.8772,-0.9904,-1.034,-0.7198,-0.6867,-0.5737,-0.4581,-0.3345,-0.3357,-0.3434,-0.344,-0.5392,-0.5634,-0.4933,-0.4734,-0.4477,-0.4273,-0.4175,-0.4024,-0.3976,-0.3976,-0.4024,-0.3224,-0.3173,-0.3073,-0.3073,-0.2922,-0.2369,-0.267,-0.2771,-0.2268,-0.2722,-0.2571,-0.242,0.0,-0.1963,-0.1762,-0.2162,-0.176,-0.1605,-0.1854,-0.2458,-0.2919,-0.3187,-0.3188,-0.3187,-0.3348,-0.34,-0.34,-0.3348,-0.3293,-0.3187,-0.3238,-0.3292,-0.3401,-0.3695,-0.3861,-0.4112,-0.4261,-0.4425,-0.4512,-0.465,-0.4651,-0.4893,-0.5088,-0.5326,-0.5437,-0.5603,-0.5659,-0.588,-0.5935,-0.5826,-0.5826,-0.5924,-0.5865,-0.5667,-0.5584,-0.5498,-0.5437,-0.5333,-0.5247,-0.5294,-0.5306,-0.5349,-0.5386,-0.5443,-0.5463,-0.5429,-0.5534,-0.5653,-0.569,-0.5753,-0.592,-0.6192,-0.6586,-0.7061,-0.7568,-0.7808,-0.8036,-0.805,-0.7878,-0.7914,-0.793,-0.793,-0.8343,-0.8809,-0.8531,-0.8257,-0.8413,-0.8327,-0.7827,-0.7357,-0.733,-0.7143,-0.6801,-0.754,-0.8954,-1.0126,-0.5106,-0.488,-0.4289,-0.3685,-0.3206,-0.3224,-0.3158,-0.3252,-0.3665,-0.3775,-0.3626,-0.3525,-0.3425,-0.2972,-0.2923,-0.2922,-0.2972,-0.272,-0.3124,-0.272,-0.2318,-0.1966,-0.1815,-0.1412,0.0,-0.0757,-0.0757,0.0,0.0,0.0,0.0,0.0,0.0,-0.0858,-0.1009,-0.0505,-0.0505,-0.0555,-0.081,-0.1478,-0.1955,-0.2762,-0.3199,-0.309,-0.3088,-0.2977,-0.2978,-0.3034,-0.3142,-0.3199,-0.32,-0.3231,-0.3246,-0.2966,-0.2859,-0.2842,-0.2909,-0.3013,-0.3163,-0.3517,-0.3834,-0.4325,-0.465,-0.5156,-0.5437,-0.5382,-0.5382,-0.5382,-0.5382,-0.5382,-0.5355,-0.5288,-0.517,-0.5136,-0.5163,-0.5175,-0.5138,-0.5269,-0.5337,-0.5394,-0.5439,-0.5486,-0.5547,-0.5582,-0.5558,-0.5663,-0.572,-0.5757,-0.5765,-0.5879,-0.6149,-0.6451,-0.6788,-0.7183,-0.7344,-0.7637,-0.7812,-0.7889,-0.7906,-0.7919,-0.7856,-0.7443,-0.7153,-0.7241,-0.714,-0.728,-0.7085,-0.6542,-0.6201,-0.6101,-0.5778,-0.5462,-0.609,-0.7339,-0.8963,-0.4229,-0.3826,-0.2993,-0.2283,-0.1842,-0.1776,-0.1752,-0.1772,-0.175,-0.1765,-0.1865,-0.2217,-0.2267,-0.1865,-0.1765,0.0,0.0,-0.1765,-0.1563,-0.1412,0.0,-0.1009,-0.0555,0.0,0.0,0.0,0.0,0.0,0.0,0.0,0.0,0.0,0.0,0.0152,0.0202,0.0202,0.0202,0.0152,0.0153,-0.0258,-0.0888,-0.1526,-0.1799,-0.18,0.0,0.0,-0.1808,-0.1755,-0.1754,-0.1701,-0.1539,-0.1324,-0.1262,-0.1319,-0.1425,-0.1526,-0.164,-0.1714,-0.1845,-0.2189,-0.2641,-0.306,-0.3302,-0.3585,-0.4424,-0.448,-0.4931,-0.4987,-0.5326,-0.5382,-0.5296,-0.5224,-0.5141,-0.5086,-0.5092,-0.5106,-0.5212,-0.5333,-0.5426,-0.5524,-0.5539,-0.5524,-0.5561,-0.5549,-0.553,-0.558,-0.571,-0.5661,-0.5687,-0.5476,-0.5825,-0.6075,-0.6194,-0.6684,-0.7099,-0.7522,-0.785,-0.7917,-0.757,-0.7389,-0.6921,-0.5953,-0.5348,-0.5708,-0.5934,-0.5894,-0.5669,-0.5169,-0.494,-0.4833,-0.4509,-0.4064,-0.4918,-0.573,-0.7047,-0.3534,-0.2998,-0.1794,-0.0765,0.0,0.0,0.0,0.0,0.0099,0.0151,0.0101,-0.0605,-0.0404,0.0,0.0,0.0,0.0,0.0,0.0,0.0,0.0,0.0,0.0,0.0,0.0,0.0,0.0,0.0,0.0,0.0,0.0,0.0,0.0557,0.0608,0.0659,0.0659,0.0762,0.056,0.0462,0.0312,0.0157,0.0,0.0,0.0,0.0,0.0,0.0,0.0,0.0,0.0054,0.0,0.0161,0.0269,0.0054,-0.0054,-0.0214,-0.043,-0.0706,-0.0985,-0.1209,-0.1439,-0.1617,-0.1622,-0.2182,-0.3131,-0.358,-0.4085,-0.4468,-0.4804,-0.5234,-0.515,-0.5106,-0.5022,-0.5061,-0.5077,-0.511,-0.5261,-0.5402,-0.5514,-0.5566,-0.554,-0.5571,-0.5506,-0.5491,-0.5454,-0.5504,-0.5463,-0.5467,-0.5362,-0.4975,-0.4868,-0.4939,-0.4973,-0.5627,-0.6458,-0.6882,-0.7165,-0.6594,-0.6182,-0.6241,-0.5968,-0.4746,-0.4154,-0.4604,-0.4767,-0.4339,-0.4206,-0.395,-0.3729,-0.3686,-0.3342,-0.3069,-0.3486,-0.4292,-0.5061,-0.1433,-0.0986,-0.0449,-0.0136,0.0,0.0,0.0,0.0,0.0982,0.1292,0.1408,0.1965,0.0,0.0,0.0,0.0,0.0,0.0,0.0,0.0,0.0,0.0,0.0,0.111,0.1815,0.2116,0.2417,0.2768,0.2327,0.2724,0.3169,0.2978,0.3176,0.288,0.2112,0.2059,0.185,0.149,0.1123,0.1027,0.0735,0.0,0.0,0.0,0.0,0.0,0.0,0.0,0.0278,0.0445,0.0773,0.0931,0.1036,0.1089,0.1034,0.0867,0.0653,0.0714,0.0442,0.0,-0.0223,-0.0391,-0.0671,-0.1451,-0.2008,-0.2176,-0.2615,-0.2981,-0.3537,-0.4663,-0.479,-0.4829,-0.4788,-0.4949,-0.5042,-0.5221,-0.5386,-0.5488,-0.5588,-0.5552,-0.5534,-0.5472,-0.5307,-0.5294,-0.5167,-0.5139,-0.5018,-0.4902,-0.4194,-0.4033,-0.3926,-0.3938,-0.3893,-0.4491,-0.5333,-0.5714,-0.5884,-0.5215,-0.4725,-0.4628,-0.4208,-0.3233,-0.2935,-0.3316,-0.2779,-0.2194,-0.2186,-0.2932,-0.2649,-0.2541,-0.2252,-0.2154,-0.2501,-0.3031,-0.3851]},{"header":{"parameterUnit":"m.s-1","parameterCategory":1,"la1":31.0,"la2":29.5877,"lo1":-88.7671,"lo2":-86.6584,"dy":0.0162,"dx":0.0185,"nx":115,"ny":88,"refTime":"2024-06-10T00:00:00:Z","depth":0,"parameterNumber":3,"parameterNumberName":"V-component_of_WINDS"},"data":[0.0,0.0,0.0,0.0,0.0,0.0,0.0,0.0,0.0,0.0,0.0,0.0,0.0,0.0,0.0,0.0,0.0,0.0,0.0,0.0,0.0,0.0,0.0,0.0,0.0,0.0,0.0,0.0,0.0,0.0,0.0,0.0,0.0,0.0,0.0,0.0,0.0,0.0,0.0,0.0,0.0,0.0,0.0,0.0,0.0,0.0,0.0,0.0,0.0,0.0,0.0,0.0,0.0,0.0,0.0,0.0,0.0,0.0,0.0,0.0,0.0,0.0,0.0,0.0,0.0,0.0,0.0,0.0,0.0,0.0,0.0,0.0,0.0,0.0,0.0,0.0,0.0,0.0,0.0,0.0,0.0,0.0,0.0,0.0,0.0,0.0,0.0,0.0,0.0,0.0,0.0,0.0,0.0,0.0,0.0,0.0,0.0,0.0,0.0,0.0,0.0,0.0,0.0,0.0,0.0,0.0,0.0,0.0,0.0,0.0,0.0,0.0,0.0,0.0,0.0,0.0,0.0,0.0,0.0,0.0,0.0,0.0,0.0,0.0,0.0,0.0,0.0,0.0,0.0,0.0,0.0,0.0,0.0,0.0,0.0,0.0,0.0,0.0,0.0,0.0,0.0,0.0,0.0,0.0,0.0,0.0,0.0,0.0,0.0,0.0,0.0,0.0,0.0,0.0,0.0,0.0,0.0,0.0,0.0,0.0,0.0,0.0,0.0,0.0,0.0,0.0,0.0,0.0,0.0,0.0,0.0,0.0,0.0,0.0,0.0,0.0,0.0,0.0,0.0,0.0,0.0,0.0,0.0,0.0,0.0,0.0,0.0,0.0,0.0,0.0,0.0,0.0,0.0,0.0,0.0,0.0,0.0,0.0,0.0,0.0,0.0,0.0,0.0,0.0,0.0,0.0,0.0,0.0,0.0,0.0,0.0,0.0,0.0,0.0,0.0,0.0,0.0,0.0,0.0,0.0,0.0,0.0,0.0,0.0,0.0,0.0,0.0,0.0,0.0,0.0,0.0,0.0,0.0,0.0,0.0,0.0,0.0,0.0,0.0,0.0,0.0,0.0,0.0,0.0,0.0,0.0,0.0,0.0,0.0,0.0,0.0,0.0,0.0,0.0,0.0,0.0,0.0,0.0,0.0,0.0,0.0,0.0,0.0,0.0,0.0,0.0,0.0,0.0,0.0,0.0,0.0,0.0,0.0,0.0,0.0,0.0,0.0,0.0,0.0,0.0,0.0,0.0,0.0,0.0,0.0,0.0,0.0,0.0,0.0,0.0,0.0,0.0,0.0,0.0,0.0,0.0,0.0,0.0,0.0,0.0,0.0,0.0,0.0,0.0,0.0,0.0,0.0,0.0,0.0,0.0,0.0,0.0,0.0,0.0,0.0,0.0,0.0,0.0,0.0,0.0,0.0,0.0,0.0,0.0,0.0,0.0,0.0,0.0,0.0,0.0,0.0,0.0,0.0,0.0,0.0,0.0,0.0,0.0,0.0,0.0,0.0,0.0,0.0,0.0,0.0,0.0,0.0,0.0,0.0,0.0,0.0,0.0,0.0,0.0,0.0,0.0,0.0,0.0,0.0,0.0,0.0,0.0,0.0,0.0,0.0,0.0,0.0,0.0,0.0,0.0,0.0,0.0,0.0,0.0,0.0,0.0,0.0,0.0,0.0,0.0,0.0,0.0,0.0,0.0,0.0,0.0,0.0,0.0,0.0,0.0,0.0,0.0,0.0,0.0,0.0,0.0,0.0,0.0,0.0,0.0,0.0,0.0,0.0,0.0,0.0,0.0,0.0,0.0,0.0,0.0,0.0,0.0,0.0,0.0,0.0,0.0,0.0,0.0,0.0,0.0,0.0,0.0,0.0,0.0,0.0,0.0,0.0,0.0,0.0,0.0,0.0,0.0,0.0,0.0,0.0,0.0,0.0,0.0,0.0,0.0,0.0,0.0,0.0,0.0,0.0,0.0,0.0,0.0,0.0,0.0,0.0,0.0,0.0,0.0,0.0,0.0,0.0,0.0,0.0,0.0,0.0,0.0,0.0,0.0,0.0,0.0,0.0,0.0,0.0,0.0,0.0,0.0,0.0,0.0,0.0,0.0,0.0,0.0,0.0,0.0,0.0,0.0,0.0,0.0,0.0,0.0,0.0,0.0,0.0,0.0,0.0,0.0,0.0,0.0,0.0,0.0,0.0,0.0,0.0,0.0,0.0,0.0,0.0,0.0,0.0,0.0,0.0,0.0,0.0,0.0,0.0,0.0,0.0,0.0,0.0,0.0,0.0,0.0,0.0,0.0,0.0,0.0,0.0,0.0,0.0,0.0,0.0,0.0,0.0,0.0,0.0,0.0,0.0,0.0,0.0,0.0,0.0,0.0,0.0,0.0,0.0,0.0,0.0,0.0,0.0,0.0,0.0,0.0,0.0,0.0,0.0,0.0,0.0,0.0,0.0,0.0,0.0,0.0,0.0,0.0,0.0,0.0,0.0,0.0,0.0,0.0,0.0,0.0,0.0,0.0,0.0,0.0,0.0,0.0,0.0,0.0,0.0,0.0,0.0,0.0,0.0,0.0,0.0,0.0,0.0,0.0,0.0,0.0,0.0,0.0,0.0,0.0,0.0,0.0,0.0,0.0,0.0,0.0,0.0,0.0,0.0,0.0,0.0,0.0,0.0,0.0,0.0,0.0,0.0,0.0,0.0,0.0,0.0,0.0,0.0,0.0,0.0,0.0,0.0,0.0,0.0,0.0,0.0,0.0,0.0,0.0,0.0,0.0,0.0,0.0,0.0,0.0,0.0,0.0,0.0,0.0,0.0,0.0,0.0,0.0,0.0,0.0,0.0,0.0,0.0,0.0,0.0,0.0,0.0,0.0,0.0,0.0,0.0,0.0,0.0,0.0,0.0,0.0,0.0,0.0,0.0,0.0,0.0,0.0,0.0,0.0,0.0,0.0,0.0,0.0,0.0,0.0,0.0,0.0,0.0,0.0,0.0,0.0,0.0,0.0,0.0,0.0,0.0,0.0,0.0,0.0,0.0,0.0,0.0,0.0,0.0,0.0,0.0,0.0,0.0,0.0,0.0,0.0,0.0,0.0,0.0,0.0,0.0,0.0,0.0,0.0,0.0,0.0,0.0,0.0,0.0,0.0,0.0,0.0,0.0,0.0,0.0,0.0,0.0,0.0,0.0,0.0,0.0,0.0,0.0,0.0,0.0,0.0,0.0,0.0,0.0,0.0,0.0,0.0,0.0,0.0,0.0,0.0,0.0,0.0,0.0,0.0,0.0,0.0,0.0,0.0,0.0,0.0,0.0,0.0,0.0,0.0,0.0,0.0,0.0,0.0,0.0,0.0,0.0,0.0,0.0,0.0,0.0,0.0,0.0,0.0,0.0,0.0,0.0,0.0,0.0,0.0,0.0,0.0,0.0,0.0,0.0,0.0,0.0,0.0,0.0,0.0,0.0,0.0,0.0,0.0,0.0,0.0,0.0,0.0,0.0,0.0,0.0,0.0,0.0,0.0,0.0,0.0,0.0,0.0,0.0,0.0,0.0,0.0,0.0,0.0,0.0,0.0,0.0,0.0,0.0,0.0,0.0,0.0,0.0,0.0,0.0,0.0,0.0,0.0,0.0,0.0,0.0,0.0,0.0,0.0,0.0,0.0,0.0,0.0,0.0,0.0,0.0,0.0,0.0,0.0,0.0,0.0,0.0,0.0,0.0,0.0,0.0,0.0,0.0,0.0,0.0,0.0,0.0,0.0,0.0,0.0,0.0,0.0,0.0,0.0,0.0,0.0,0.0,0.0,0.0,0.0,0.0,0.0,0.0,0.0,0.0,0.0,0.0,0.0,0.0,0.0,0.0,0.0,0.0,0.0,0.0,0.0,0.0,0.0,0.0,0.0,0.0,0.0,0.0,0.0,0.0,0.0,0.0,0.0,0.0,0.0,0.0,0.0,0.0,0.0,0.0,0.0,0.0,0.0,0.0,0.0,0.0,0.0,0.0,0.0,0.0,0.0,0.0,0.0,0.0,0.0,0.0,0.0,0.0,0.0,0.0,0.0,0.0,0.0,0.0,0.0,0.0,0.0,0.0,0.0,0.0,0.0,0.0,0.0,0.0,0.0,0.0,0.0,0.0,0.0,0.0,0.0,0.0,0.0,0.0,0.0,0.0,0.0,0.0,0.0,0.0,0.0,0.0,0.0,0.0,0.0,0.0,0.0,0.0,0.0,0.0,0.0,0.0,0.0,0.0,0.0,0.0,0.0,0.0,0.0,1.5477,0.0,0.0,0.0,0.0,0.0,0.0,0.0,0.0,0.0,0.0,0.0,0.0,0.0,0.0,0.0,0.0,0.0,0.0,0.0,0.0,0.0,0.0,0.0,0.0,0.0,0.0,0.0,0.0,0.0,0.0,0.0,0.0,0.0,0.0,0.0,0.0,0.0,0.0,0.0,0.0,0.0,0.0,0.0,0.0,0.0,0.0,0.0,0.0,0.0,0.0,0.0,0.0,0.0,0.0,0.0,0.0,0.0,0.0,0.0,0.0,0.0,0.0,0.0,0.0,0.0,0.0,0.0,0.0,0.0,0.0,0.0,0.0,0.0,0.0,0.0,0.0,0.0,0.0,0.0,0.0,0.0,0.0,0.0,0.0,0.0,0.0,0.0,0.0,0.0,0.0,0.0,0.0,0.0,0.0,0.0,0.0,0.0,0.0,0.0,0.0,0.0,0.0,0.0,0.0,0.0,0.0,0.0,0.0,0.0,0.0,1.5492,1.5062,1.5107,1.5015,1.4751,0.0,0.0,0.0,0.0,0.0,0.0,0.0,0.0,0.0,0.0,0.0,0.0,0.0,0.0,0.0,0.0,0.0,0.0,0.0,0.0,0.0,0.0,0.0,0.0,0.0,0.0,0.0,0.0,0.0,0.0,0.0,0.0,0.0,0.0,0.0,0.0,0.0,0.0,0.0,0.0,0.0,0.0,0.0,0.0,0.0,0.0,0.0,0.0,0.0,0.0,0.0,0.0,0.0,0.0,0.0,0.0,0.0,0.0,0.0,0.0,0.0,0.0,0.0,0.0,0.0,0.0,0.0,0.0,0.0,0.0,0.0,0.0,0.0,0.0,0.0,0.0,0.0,0.0,0.0,0.0,0.0,0.0,0.0,0.0,0.0,0.0,0.0,0.0,0.0,0.0,0.0,0.0,0.0,0.0,0.0,0.0,0.0,0.0,0.0,0.0,0.0,0.0,0.0,0.0,0.0,0.0,0.0,0.0,0.0,0.0,0.0,0.0,1.4737,1.452,1.4365,0.0,0.0,0.0,0.0,0.0,0.0,0.0,0.0,0.0,0.0,0.0,0.0,0.0,0.0,0.0,0.0,0.0,0.0,0.0,0.0,0.0,0.0,0.0,0.0,0.0,0.0,0.0,0.0,0.0,0.0,0.0,0.0,0.0,0.0,0.0,0.0,0.0,0.0,0.0,0.0,0.0,0.0,0.0,0.0,0.0,0.0,0.0,0.0,0.0,0.0,0.0,0.0,0.0,0.0,0.0,0.0,0.0,0.0,0.0,0.0,0.0,0.0,0.0,0.0,0.0,0.0,0.0,0.0,0.0,0.0,0.0,0.0,0.0,0.0,0.0,0.0,0.0,0.0,0.0,0.0,0.0,0.0,0.0,0.0,0.0,0.0,0.0,0.0,0.0,0.0,0.0,0.0,0.0,0.0,0.0,0.0,0.0,0.0,0.0,0.0,0.0,0.0,0.0,0.0,0.0,0.0,0.0,0.0,0.0,0.0,1.5053,1.6344,1.5388,0.0,1.4822,0.0,0.0,0.0,0.0,0.0,0.0,0.0,0.0,0.0,0.0,0.0,0.0,0.0,0.0,0.0,0.0,0.0,0.0,0.0,0.0,0.0,0.0,0.0,0.0,0.0,0.0,0.0,0.0,0.0,0.0,0.0,0.0,0.0,0.0,0.0,0.0,0.0,0.0,0.0,0.0,0.0,0.0,0.0,0.0,0.0,0.0,0.0,0.0,0.0,0.0,0.0,0.0,0.0,0.0,0.0,0.0,0.0,0.0,0.0,0.0,0.0,0.0,0.0,0.0,0.0,0.0,0.0,0.0,0.0,0.0,0.0,0.0,0.0,0.0,0.0,0.0,0.0,0.0,0.0,0.0,0.0,0.0,0.0,0.0,0.0,0.0,0.0,0.0,0.0,0.0,0.0,0.0,0.0,0.0,0.0,0.0,0.0,0.0,0.0,0.0,0.0,0.0,0.0,0.0,0.0,0.0,0.0,0.0,0.0,0.0,1.5036,1.5533,1.5118,1.4661,0.0,0.0,0.0,0.0,0.0,0.0,0.0,0.0,0.0,0.0,0.0,0.0,0.0,0.0,0.0,0.0,0.0,0.0,0.0,0.0,0.0,0.0,0.0,0.0,0.0,0.0,0.0,0.0,0.0,0.0,0.0,0.0,0.0,0.0,0.0,0.0,0.0,0.0,0.0,0.0,0.0,0.0,0.0,0.0,0.0,0.0,0.0,0.0,0.0,0.0,0.0,0.0,0.0,0.0,0.0,0.0,0.0,0.0,0.0,0.0,0.0,0.0,0.0,0.0,0.0,0.0,0.0,0.0,0.0,0.0,0.0,0.0,0.0,0.0,0.0,0.0,0.0,0.0,0.0,0.0,0.0,0.0,0.0,0.0,0.0,0.0,0.0,0.0,0.0,0.0,0.0,0.0,0.0,0.0,0.0,0.0,0.0,0.0,0.0,0.0,0.0,0.0,0.0,0.0,0.0,0.0,0.0,0.0,0.0,0.0,1.4555,0.0,1.496,1.5081,1.4564,1.3343,0.0,0.0,0.0,0.0,0.0,0.0,0.0,0.0,0.0,0.0,0.0,0.0,0.0,0.0,0.0,0.0,0.0,0.0,0.0,0.0,0.0,0.0,0.0,0.0,0.0,0.0,0.0,0.0,0.0,0.0,0.0,0.0,0.0,0.0,0.0,0.0,0.0,0.0,0.0,0.0,0.0,0.0,0.0,0.0,0.0,0.0,0.0,0.0,0.0,0.0,0.0,0.0,0.0,0.0,0.0,0.0,0.0,0.0,0.0,0.0,0.0,0.0,0.0,0.0,0.0,0.0,0.0,0.0,0.0,0.0,0.0,0.0,0.0,0.0,0.0,0.0,0.0,0.0,0.0,0.0,0.0,0.0,0.0,0.0,0.0,0.0,0.0,0.0,0.0,0.0,0.0,0.0,0.0,0.0,0.0,0.0,0.0,0.0,0.0,0.0,0.0,0.0,0.0,0.0,0.0,0.0,0.0,0.0,0.0,1.5038,1.4608,1.5336,1.5611,1.4829,0.0,0.0,0.0,0.0,0.0,0.0,0.0,0.0,0.0,0.0,0.0,0.0,0.0,0.0,0.0,0.0,0.0,0.0,0.0,0.0,0.0,0.0,0.0,0.0,0.0,0.0,0.0,0.0,0.0,0.0,0.0,0.0,0.0,0.0,0.0,0.0,0.0,0.0,0.0,0.0,0.0,0.0,0.0,0.0,0.0,0.0,0.0,0.0,0.0,0.0,0.0,0.0,0.0,0.0,0.0,0.0,0.0,0.0,0.0,0.0,0.0,0.0,0.0,0.0,0.0,0.0,0.0,0.0,0.0,0.0,0.0,0.0,0.0,0.0,0.0,0.0,0.0,0.0,0.0,0.0,0.0,0.0,0.0,0.0,0.0,0.0,0.0,0.0,0.0,0.0,0.0,0.0,0.0,0.0,0.0,0.0,0.0,0.0,0.0,0.0,0.0,0.0,0.0,0.0,0.0,0.0,0.0,0.0,0.0,1.336,1.3574,1.444,1.5931,1.4929,1.3858,0.0,0.0,0.0,0.0,0.0,0.0,0.0,0.0,0.0,0.0,0.0,0.0,0.0,0.0,0.0,0.0,0.0,0.0,0.0,0.0,0.0,0.0,0.0,0.0,0.0,0.0,0.0,0.0,0.0,0.0,0.0,0.0,0.0,0.0,0.0,0.0,0.0,0.0,0.0,0.0,0.0,0.0,0.0,0.0,0.0,0.0,0.0,0.0,0.0,0.0,0.0,0.0,0.0,0.0,0.0,0.0,0.0,0.0,0.0,0.0,0.0,0.0,0.0,0.0,0.0,0.0,0.0,0.0,0.0,0.0,0.0,0.0,0.0,0.0,0.0,0.0,0.0,0.0,0.0,0.0,0.0,0.0,0.0,0.0,0.0,0.0,0.0,0.0,0.0,0.0,0.0,0.0,0.0,0.0,0.0,0.0,0.0,0.0,0.0,0.0,0.0,0.0,0.0,0.0,0.0,0.0,0.0,0.0,0.0,1.2069,0.0,1.4173,0.0,1.4107,1.2913,0.0,0.0,0.0,0.0,0.0,0.0,0.0,0.0,0.0,0.0,0.0,0.0,0.0,0.0,0.0,0.0,0.0,0.0,0.0,0.0,0.0,0.0,0.0,0.0,0.0,0.0,0.0,0.0,0.0,0.0,0.0,0.0,0.0,0.0,0.0,0.0,0.0,0.0,0.0,0.0,0.0,0.0,0.0,0.0,0.0,0.0,0.0,0.0,0.0,0.0,0.0,0.0,0.0,0.0,0.0,0.0,0.0,0.0,0.0,0.0,0.0,0.0,0.0,0.0,0.0,0.0,0.0,0.0,0.0,0.0,0.0,0.0,0.0,0.0,0.0,0.0,0.0,0.0,0.0,0.0,0.0,0.0,0.0,0.0,0.0,0.0,0.0,0.0,0.0,0.0,0.0,0.0,0.0,0.0,0.0,0.0,0.0,0.0,0.0,0.0,0.0,0.0,0.0,0.0,0.0,0.0,0.0,0.0,1.1702,1.3068,1.3559,1.3742,1.3541,1.3244,1.2099,0.0,0.0,0.0,0.0,0.0,0.0,0.0,0.0,0.0,0.0,0.0,0.0,0.0,0.0,0.0,0.0,0.0,0.0,0.0,0.0,0.0,0.0,0.0,0.0,0.0,0.0,0.0,0.0,0.0,0.0,0.0,0.0,0.0,0.0,0.0,0.0,0.0,0.0,0.0,0.0,0.0,0.0,0.0,0.0,0.0,0.0,0.0,0.0,0.0,0.0,0.0,0.0,0.0,0.0,0.0,0.0,0.0,0.0,0.0,0.0,0.0,0.0,0.0,0.0,0.0,0.0,0.0,0.0,0.0,0.0,0.0,0.0,0.0,0.0,0.0,0.0,0.0,0.0,0.0,0.0,0.0,0.0,0.0,0.0,0.0,0.0,0.0,0.0,0.0,0.0,0.0,0.0,0.0,0.0,0.0,0.0,0.0,0.0,0.0,0.0,0.0,0.0,0.0,0.0,0.0,0.0,0.0,0.0,0.0,1.1663,1.2152,1.2812,1.3615,1.258,1.2012,0.0,0.0,0.0,0.0,0.0,0.0,0.0,0.0,0.0,0.0,0.0,0.0,0.0,0.0,0.0,0.0,0.0,0.0,0.0,0.0,0.0,0.0,0.0,0.0,0.0,0.0,0.0,0.0,0.0,0.0,0.0,0.0,0.0,0.0,0.0,0.0,0.0,0.0,0.0,0.0,0.0,0.0,0.0,0.0,0.0,0.0,0.0,0.0,0.0,0.0,0.0,0.0,0.0,0.0,0.0,0.0,0.0,0.0,0.0,0.0,0.0,0.0,0.0,0.0,0.0,0.0,0.0,0.0,0.0,0.0,0.0,0.0,0.0,0.0,0.0,0.0,0.0,0.0,0.0,0.0,0.0,0.0,0.0,0.0,0.0,0.0,0.0,0.0,0.0,0.0,0.0,0.0,0.0,0.0,0.0,0.0,0.0,0.0,0.0,0.0,0.0,0.0,0.0,0.0,0.0,0.0,0.0,0.0,0.0,1.1362,1.2161,1.29,1.3564,1.2517,1.193,1.1865,0.0,0.0,0.0,0.0,0.0,0.0,0.0,0.0,0.0,0.0,0.0,0.0,0.0,0.0,0.0,0.0,0.0,0.0,0.0,0.0,0.0,0.0,0.0,0.0,0.0,0.0,0.0,0.0,0.0,0.0,0.0,0.0,0.0,0.0,0.0,0.0,0.0,0.0,0.0,0.0,0.0,0.0,0.0,0.0,0.0,0.0,0.0,0.0,0.0,0.0,0.0,0.0,0.0,0.0,0.0,0.0,0.0,0.0,0.0,0.0,0.0,0.0,0.0,0.0,0.0,0.0,0.0,0.0,0.0,0.0,0.0,0.0,0.0,0.0,0.0,0.0,0.0,0.0,0.0,0.0,0.0,0.0,0.0,0.0,0.0,0.0,0.0,0.0,0.0,0.0,0.0,0.0,0.0,0.0,0.0,0.0,0.0,0.0,0.0,0.0,0.0,0.0,0.0,0.0,0.0,0.0,0.0,0.0,1.1955,1.3434,1.3926,1.332,1.2885,1.1965,0.0,0.0,0.0,0.0,0.0,0.0,0.0,0.0,0.0,0.0,0.0,0.0,0.0,0.0,0.0,0.0,0.0,0.0,0.0,0.0,0.0,0.0,0.0,0.0,0.0,0.0,0.0,0.0,0.0,0.0,0.0,0.0,0.0,0.0,0.0,0.0,0.0,0.0,0.0,0.0,0.0,0.0,0.0,0.0,0.0,0.0,0.0,0.0,0.0,0.0,0.0,0.0,0.0,0.0,0.0,0.0,0.0,0.0,0.0,0.0,0.0,0.0,0.0,0.0,0.0,0.0,0.0,0.0,0.0,0.0,0.0,0.0,0.0,0.0,0.0,0.0,0.0,0.0,0.0,0.0,0.0,0.0,0.0,0.0,0.0,0.0,0.0,0.0,0.0,0.0,0.0,0.0,0.0,0.0,0.0,0.0,0.0,0.0,0.0,0.0,0.0,0.0,0.0,0.0,0.0,0.0,0.0,0.0,0.0,1.2572,1.4552,1.5136,1.4242,1.3243,1.2496,0.0,0.0,0.0,0.0,0.0,0.0,0.0,0.0,0.0,0.0,0.0,0.0,0.0,0.0,0.0,0.0,0.0,0.0,0.0,0.0,0.0,0.0,0.0,0.0,0.0,0.0,0.0,0.0,0.0,0.0,0.0,0.0,0.0,0.0,0.0,0.0,0.0,0.0,0.0,0.0,0.0,0.0,0.0,0.0,0.0,0.0,0.0,0.0,0.0,0.0,0.0,0.0,0.0,0.0,0.0,0.0,0.0,0.0,0.0,0.0,0.0,0.0,0.0,0.0,0.0,0.0,0.0,0.0,0.0,0.0,0.0,0.0,0.0,0.0,0.0,0.0,0.0,0.0,0.0,0.0,0.0,0.0,0.0,0.0,0.0,0.0,0.0,0.0,0.0,0.0,0.0,0.0,0.0,0.0,0.0,0.0,0.0,0.0,0.0,0.0,0.0,0.0,0.0,0.0,0.0,0.0,0.0,0.0,1.167,1.254,1.4999,1.5748,1.4566,1.3866,1.3094,0.0,0.0,0.0,0.0,0.0,0.0,0.0,0.0,0.0,0.0,0.0,0.0,0.0,0.0,0.0,0.0,0.0,0.0,0.0,0.0,0.0,0.0,0.0,0.0,0.0,0.0,0.0,0.0,0.0,0.0,0.0,0.0,0.0,0.0,0.0,0.0,0.0,0.0,0.0,0.0,0.0,0.0,0.0,0.0,0.0,0.0,0.0,0.0,0.0,0.0,0.0,0.0,0.0,0.0,0.0,0.0,0.0,0.0,0.0,0.0,0.0,0.0,0.0,0.0,0.0,0.0,0.0,0.0,0.0,0.0,0.0,0.0,0.0,0.0,0.0,0.0,0.0,0.0,0.0,0.0,0.0,0.0,0.0,0.0,0.0,0.0,0.0,0.0,0.0,0.0,0.0,0.0,0.0,0.0,0.0,0.0,0.0,0.0,0.0,0.0,0.0,0.0,0.0,0.0,0.0,0.0,0.0,0.0,1.2104,1.2248,1.4998,1.5817,1.4558,1.4479,1.3562,0.0,0.0,0.0,0.0,0.0,0.0,0.0,0.0,0.0,0.0,0.0,0.0,0.0,0.0,0.0,0.0,0.0,0.0,0.0,0.0,0.0,0.0,0.0,0.0,0.0,0.0,0.0,0.0,0.0,0.0,0.0,0.0,0.0,0.0,0.0,0.0,0.0,0.0,0.0,0.0,0.0,0.0,0.0,0.0,0.0,0.0,0.0,0.0,0.0,0.0,0.0,0.0,0.0,0.0,0.0,0.0,0.0,0.0,0.0,0.0,0.0,0.0,0.0,0.0,0.0,0.0,0.0,0.0,0.0,0.0,0.0,0.0,0.0,0.0,0.0,0.0,0.0,0.0,0.0,0.0,0.0,0.0,0.0,0.0,0.0,0.0,0.0,0.0,0.0,0.0,0.0,0.0,0.0,0.0,0.0,0.0,0.0,0.0,0.0,0.0,0.0,0.0,0.0,0.0,0.0,0.0,0.0,0.0,1.1985,1.2384,1.4513,1.5305,1.4501,1.4002,1.3035,0.0,0.0,0.0,0.0,0.0,0.0,0.0,0.0,0.0,0.0,0.0,0.0,0.0,0.0,0.0,0.0,0.0,0.0,0.0,0.0,0.0,0.0,0.0,0.0,0.0,0.0,0.0,0.0,0.0,0.0,0.0,0.0,0.0,0.0,0.0,0.0,0.0,0.0,0.0,0.0,0.0,0.0,0.0,0.0,0.0,0.0,0.0,0.0,1.5824,0.0,0.0,0.0,0.0,0.0,0.0,0.0,0.0,0.0,0.0,0.0,0.0,0.0,0.0,0.0,0.0,0.0,0.0,0.0,0.0,0.0,0.0,0.0,0.0,0.0,0.0,0.0,0.0,0.0,0.0,0.0,0.0,0.0,0.0,0.0,0.0,0.0,0.0,0.0,0.0,0.0,0.0,0.0,0.0,0.0,0.0,0.0,0.0,0.0,0.0,0.0,0.0,0.0,0.0,0.0,0.0,0.0,0.0,0.0,1.1796,1.2517,1.3974,1.4471,1.407,1.3696,1.2892,0.0,0.0,0.0,0.0,0.0,0.0,0.0,0.0,0.0,0.0,0.0,0.0,0.0,0.0,0.0,0.0,0.0,0.0,0.0,0.0,0.0,0.0,0.0,0.0,0.0,0.0,0.0,0.0,0.0,0.0,0.0,0.0,0.0,0.0,0.0,0.0,0.0,0.0,0.0,0.0,0.0,0.0,0.0,0.0,0.0,0.0,0.0,0.0,0.0,0.0,0.0,0.0,0.0,0.0,0.0,0.0,0.0,0.0,0.0,0.0,0.0,0.0,0.0,0.0,0.0,0.0,0.0,0.0,0.0,0.0,0.0,0.0,0.0,0.0,0.0,0.0,0.0,0.0,0.0,0.0,0.0,0.0,0.0,0.0,0.0,0.0,0.0,0.0,0.0,0.0,0.0,0.0,0.0,0.0,0.0,0.0,0.0,0.0,0.0,0.0,0.0,0.0,0.0,0.0,0.0,0.0,0.0,1.0571,1.1575,1.2729,1.3477,1.3725,1.3453,1.3374,1.2698,1.1255,0.0,0.0,0.0,0.0,0.0,0.0,0.0,0.0,0.0,0.0,0.0,0.0,0.0,0.0,0.0,0.0,0.0,0.0,0.0,0.0,0.0,0.0,0.0,0.0,0.0,0.0,0.0,0.0,0.0,0.0,0.0,0.0,0.0,0.0,0.0,0.0,0.0,0.0,1.5012,1.5745,0.0,0.0,0.0,0.0,0.0,0.0,0.0,0.0,1.5691,0.0,0.0,0.0,0.0,0.0,0.0,0.0,0.0,0.0,0.0,0.0,0.0,0.0,0.0,0.0,0.0,0.0,0.0,0.0,0.0,0.0,0.0,0.0,0.0,0.0,0.0,0.0,0.0,0.0,0.0,0.0,0.0,0.0,0.0,0.0,0.0,0.0,0.0,0.0,0.0,0.0,0.0,0.0,0.0,0.0,0.0,0.0,0.0,0.0,0.0,0.0,0.0,0.0,0.0,0.0,0.0,1.1029,1.0801,1.1445,1.3,1.3399,1.3453,1.3175,1.2533,1.1621,1.0462,0.0,0.0,0.0,0.0,0.0,0.0,0.0,0.0,0.0,0.0,0.0,0.0,0.0,0.0,0.0,0.0,0.0,0.0,0.0,0.0,0.0,0.0,0.0,0.0,0.0,0.0,0.0,0.0,0.0,0.0,0.0,0.0,0.0,0.0,0.0,0.0,0.0,0.0,0.0,1.809,1.8548,0.0,0.0,0.0,0.0,0.0,0.0,0.0,0.0,1.5786,0.0,0.0,0.0,0.0,0.0,0.0,0.0,0.0,0.0,0.0,0.0,0.0,0.0,0.0,0.0,0.0,0.0,0.0,0.0,0.0,0.0,0.0,0.0,0.0,0.0,0.0,0.0,0.0,0.0,0.0,0.0,0.0,0.0,0.0,0.0,0.0,0.0,0.0,0.0,0.0,0.0,0.0,0.0,0.0,0.0,0.0,0.0,0.0,0.0,0.0,0.0,0.0,0.0,0.0,0.0,1.0647,1.0734,1.138,1.2666,1.2841,1.2911,1.2939,1.2172,1.1352,0.0,0.0,0.0,0.0,0.0,0.0,0.0,0.0,0.0,0.0,0.0,0.0,0.0,0.0,0.0,0.0,0.0,0.0,0.0,0.0,0.0,0.0,0.0,0.0,0.0,0.0,0.0,0.0,0.0,0.0,0.0,0.0,0.0,0.0,0.0,0.0,0.0,0.0,0.0,0.0,1.8749,1.9284,1.9989,0.0,0.0,0.0,0.0,0.0,0.0,1.6842,1.6088,0.0,0.0,0.0,0.0,0.0,0.0,0.0,0.0,0.0,0.0,0.0,0.0,0.0,0.0,0.0,0.0,0.0,0.0,0.0,0.0,0.0,0.0,0.0,0.0,0.0,0.0,0.0,0.0,0.0,0.0,0.0,0.0,0.0,0.0,0.0,0.0,0.0,0.0,0.0,0.0,0.0,0.0,0.0,0.0,0.0,0.0,0.0,0.0,0.0,0.0,0.0,0.0,0.0,0.0,0.0,1.0135,1.0448,1.1146,1.2228,1.2241,1.2331,1.2586,1.1754,1.1077,0.0,0.0,0.0,0.0,0.0,0.0,0.0,0.0,0.0,0.0,0.0,0.0,0.0,0.0,0.0,0.0,0.0,0.0,0.0,0.0,0.0,0.0,0.0,0.0,0.0,0.0,0.0,0.0,0.0,0.0,0.0,0.0,0.0,0.0,0.0,0.0,0.0,0.0,0.0,0.0,0.0,2.0051,2.1315,1.99,0.0,0.0,0.0,0.0,1.8043,1.7601,0.0,0.0,0.0,0.0,0.0,0.0,0.0,0.0,0.0,0.0,0.0,0.0,0.0,0.0,0.0,0.0,0.0,0.0,0.0,0.0,0.0,0.0,0.0,0.0,0.0,0.0,0.0,0.0,0.0,0.0,0.0,0.0,0.0,0.0,0.0,0.0,0.0,0.0,0.0,0.0,0.0,0.0,0.0,0.0,0.0,0.0,0.0,0.0,0.0,0.0,0.0,0.0,0.0,0.0,0.0,0.0,1.011,0.995,1.0556,1.1943,1.1624,1.164,1.2046,1.0865,1.0218,0.0,0.0,0.0,0.0,0.0,0.0,0.0,0.0,0.0,0.0,0.0,0.0,0.0,0.0,0.0,0.0,0.0,0.0,0.0,0.0,0.0,0.0,0.0,0.0,0.0,0.0,0.0,0.0,0.0,0.0,0.0,0.0,0.0,0.0,0.0,0.0,0.0,0.0,0.0,0.0,0.0,2.1683,2.0379,2.0398,1.9951,0.0,0.0,1.9045,1.9234,2.0107,0.0,0.0,0.0,0.0,0.0,0.0,0.0,0.0,0.0,0.0,0.0,0.0,0.0,0.0,0.0,0.0,0.0,0.0,0.0,0.0,0.0,0.0,0.0,0.0,0.0,0.0,0.0,0.0,0.0,0.0,0.0,0.0,0.0,0.0,0.0,0.0,0.0,0.0,0.0,0.0,0.0,0.0,0.0,0.0,0.0,0.0,0.0,0.0,0.0,0.0,0.0,0.0,0.0,0.0,0.0,0.8384,1.0148,1.0436,1.0933,1.175,1.1695,1.1738,1.174,1.0604,0.9971,0.0,0.0,0.0,0.0,0.0,0.0,0.0,0.0,0.0,0.0,0.0,0.0,0.0,0.0,0.0,0.0,0.0,0.0,0.0,0.0,0.0,0.0,0.0,0.0,0.0,0.0,0.0,0.0,0.0,0.0,0.0,0.0,0.0,0.0,0.0,0.0,0.0,0.0,0.0,0.0,0.0,0.0,2.1108,2.0969,0.0,0.0,0.0,1.9458,1.9662,0.0,0.0,0.0,0.0,0.0,0.0,0.0,0.0,0.0,0.0,0.0,0.0,0.0,0.0,0.0,0.0,0.0,0.0,0.0,0.0,0.0,0.0,0.0,0.0,0.0,0.0,0.0,0.0,0.0,0.0,0.0,0.0,0.0,0.0,0.0,0.0,0.0,0.0,0.0,0.0,0.0,0.0,0.0,0.0,0.0,0.0,0.0,0.0,0.0,0.0,0.0,0.0,0.0,0.0,0.0,0.0,0.0,1.0065,1.0846,1.1332,1.1614,1.1738,1.1775,1.1565,1.0539,0.0,0.0,0.0,0.0,0.0,0.0,0.0,0.0,0.0,0.0,0.0,0.0,0.0,0.0,0.0,0.0,0.0,0.0,0.0,0.0,0.0,0.0,0.0,0.0,0.0,0.0,0.0,0.9947,0.0,0.0,0.0,0.0,0.0,0.0,0.0,0.0,0.0,0.0,0.0,0.0,0.0,0.0,2.1735,2.1724,2.1577,2.1531,0.0,0.0,1.9957,2.0194,2.1257,2.1054,0.0,0.0,0.0,0.0,0.0,0.0,0.0,0.0,0.0,0.0,0.0,0.0,0.0,0.0,0.0,0.0,0.0,0.0,0.0,0.0,0.0,0.0,0.0,0.0,0.0,0.0,0.0,0.0,0.0,0.0,0.0,0.0,0.0,0.0,0.0,0.0,0.0,0.0,0.0,0.0,0.0,0.0,0.0,0.0,0.0,0.0,0.0,0.0,0.0,0.0,0.0,0.0,0.0,0.0,0.0,0.9807,1.0714,1.1334,1.1564,1.1438,1.1438,1.1558,1.0574,0.9661,0.0,0.0,0.0,0.0,0.0,0.0,0.0,0.0,0.0,0.0,0.0,0.0,0.0,0.0,0.0,0.0,0.0,0.0,0.0,0.0,0.0,0.0,0.0,0.0,0.0,0.0,0.0,0.0,0.0,0.0,0.0,0.0,0.0,0.0,0.0,0.0,0.0,0.0,0.0,0.0,0.0,2.1609,2.1527,2.2252,2.2697,0.0,0.0,2.1173,2.1199,2.2702,2.2618,1.886,0.0,0.0,0.0,0.0,0.0,0.0,0.0,0.0,0.0,0.0,0.0,0.0,0.0,0.0,0.0,0.0,0.0,0.0,0.0,0.0,0.0,0.0,0.0,0.0,0.0,0.0,0.0,0.0,0.0,0.0,0.0,0.0,0.0,0.0,0.0,0.0,0.0,0.0,0.0,0.0,0.0,0.0,0.0,0.0,0.0,0.0,0.0,0.0,0.0,0.0,0.0,0.0,0.0,0.8335,0.9352,1.0862,1.1677,1.1781,1.2012,1.1937,1.156,1.0813,0.9878,0.0,0.0,0.0,0.0,0.0,0.0,0.0,0.0,0.0,0.0,0.0,0.0,0.0,0.0,0.0,0.0,0.0,0.0,0.0,0.0,0.0,0.0,0.0,0.0,0.0,0.0,0.0,0.0,1.1476,1.1419,1.069,0.0,0.0,0.0,0.0,0.0,0.0,0.0,0.0,0.0,0.0,2.1227,2.1601,2.1887,0.0,0.0,2.15,2.1129,2.1229,2.17,2.1075,1.822,1.6944,0.0,0.0,0.0,0.0,0.0,0.0,0.0,0.0,0.0,0.0,0.0,0.0,0.0,0.0,0.0,0.0,0.0,0.0,0.0,0.0,0.0,0.0,0.0,0.0,0.0,0.0,0.0,0.0,0.0,0.0,0.0,0.0,0.0,0.0,0.0,0.0,0.0,0.0,0.0,0.0,0.0,0.0,0.0,0.0,0.0,0.0,0.0,0.0,0.0,0.0,0.0,0.0,0.7986,0.8975,1.0815,1.1785,1.1773,1.2224,1.2135,1.1531,1.1079,1.0189,0.0,0.0,0.0,0.0,0.0,0.0,0.0,0.0,0.0,0.0,0.0,0.0,0.0,0.0,0.0,0.0,0.0,0.0,0.0,0.0,0.0,0.0,0.0,0.0,0.0,0.0,0.0,0.0,1.1429,1.1154,1.0119,0.0,0.0,0.0,0.0,0.0,0.0,0.0,0.0,0.0,0.0,2.052,2.1005,2.1095,2.1075,2.0991,2.0331,1.9947,2.0194,2.0061,1.9382,1.7783,0.0,0.0,0.0,0.0,0.0,0.0,0.0,0.0,0.0,0.0,0.0,0.0,0.0,0.0,0.0,0.0,0.0,0.0,0.0,0.0,0.0,0.0,0.0,0.0,0.0,0.0,0.0,0.0,0.0,0.0,0.2716,0.0,0.0,0.0,0.0,0.0,0.0,0.0,0.0,0.0,0.0,0.0,0.0,0.0,0.0,0.0,0.0,0.0,0.0,0.0,0.0,0.0,0.0,0.811,0.8699,1.0569,1.1513,1.1504,1.1772,1.179,1.1525,1.1256,1.0472,0.9095,0.0,0.0,0.0,0.0,0.0,0.0,0.0,0.0,0.0,0.0,0.0,0.0,0.0,0.0,0.0,0.0,0.0,0.0,0.0,0.0,0.0,0.0,0.0,0.0,0.0,0.0,0.9328,0.9871,1.0075,0.0,0.0,0.0,0.0,0.0,0.0,0.0,0.0,0.0,0.0,1.7863,1.9431,1.9733,1.992,1.9855,1.9383,1.8179,1.7521,1.8073,1.8109,1.7995,0.0,0.0,0.0,0.0,0.0,0.0,0.0,0.0,0.0,0.0,0.0,0.0,0.0,0.0,0.0,0.0,0.0,0.0,0.0,0.0,0.0,0.0,0.0,0.0,0.0,0.0,0.0,0.4016,0.3914,0.0,0.0,0.0,0.0,0.0,0.0,0.0,0.0,0.0,0.0,0.0,0.7834,0.8171,0.0,0.0,0.0,0.0,0.0,0.0,0.0,0.0,0.0,0.0,0.0,0.0,0.7966,0.8571,1.0497,1.1489,1.1495,1.1748,1.1754,1.1501,1.1256,1.037,0.889,0.0,0.0,0.0,0.0,0.0,0.0,0.0,0.0,0.0,0.0,0.0,0.0,0.0,0.0,0.0,0.0,0.0,0.0,0.0,0.0,0.0,0.0,0.0,0.0,0.0,0.9971,0.0,0.0,0.0,0.0,0.0,0.0,0.0,0.0,0.0,0.0,0.0,1.4888,1.6525,1.7323,1.805,1.8792,1.8834,1.8974,0.0,0.0,0.0,0.0,0.0,0.0,0.0,0.0,0.0,0.0,0.0,0.0,0.0,0.0,2.1197,1.7714,1.7604,1.8142,1.8502,0.0,0.0,0.0,0.0,0.0,0.0,0.0,0.0,0.0,0.0,0.0,0.0,0.0,0.0,0.506,0.0,0.4715,0.0,0.0,0.0,0.0,0.0,0.0,0.0,0.0,0.6899,0.7812,0.8643,0.8925,0.9278,0.0,0.9242,0.8213,0.0,0.0,0.0,0.0,0.0,0.0,0.0,0.0,0.8146,0.8598,1.0408,1.1351,1.1395,1.1513,1.1519,1.1351,1.1138,1.0518,0.9569,0.9038,0.8679,0.0,0.0,0.0,0.0,0.0,0.0,0.0,0.0,0.0,0.0,0.0,0.0,0.0,0.0,0.0,0.0,0.0,0.0,0.0,0.0,0.0,0.0,0.0,0.9982,0.0,0.0,0.0,0.0,0.0,0.0,0.0,0.0,0.0,1.3406,1.4503,1.5709,1.713,1.7229,1.7241,1.7442,0.0,0.0,0.0,0.0,0.0,0.0,0.0,1.568,1.6172,1.6475,1.7279,1.9264,2.166,2.3463,2.4011,0.0,0.0,2.08,2.0454,2.0918,2.1309,2.1362,2.1665,2.2782,2.3253,2.365,0.0,0.0,0.0,0.0,0.0,0.0,0.0,0.0,0.6213,0.6251,0.0,0.5809,0.0,0.0,0.0,0.0,0.0,0.5748,0.0,0.0,0.8458,0.9131,0.896,0.9195,0.9712,1.0407,0.9823,0.9524,0.9518,0.8127,0.0,0.0,0.0,0.0,0.0,0.0,0.8561,0.89,1.0319,1.1117,1.1117,1.1123,1.1117,1.1111,1.0924,1.0902,1.1022,1.0064,0.9887,1.0586,0.858,0.0,0.0,0.0,0.0,0.0,0.0,0.0,0.0,0.0,0.0,0.0,0.0,0.0,0.0,0.0,0.0,0.0,0.0,0.0,0.0,0.9471,0.0,0.0,0.0,0.0,0.0,0.0,0.0,0.0,0.0,0.0,1.3923,1.5272,1.6553,1.7313,0.0,0.0,0.0,0.0,1.4987,1.4041,1.3523,1.3587,1.421,1.5133,1.6536,1.8698,0.0,0.0,2.3012,2.2592,2.2679,2.4056,2.5373,2.5742,2.5124,2.4073,2.3486,2.3916,2.3983,2.4236,2.539,2.6489,2.7323,0.9646,0.0,0.0,0.0,0.0,0.6621,0.6972,0.7534,0.7575,0.7484,0.725,0.6917,0.0,0.0,0.0,0.0,0.0,0.0,0.6852,0.7606,0.8223,0.8847,0.9408,0.932,0.964,1.0275,0.9924,1.0005,1.0426,0.9813,0.8641,0.6946,0.0,0.0,0.0,0.0,0.9092,0.9613,1.0587,1.1117,1.1117,1.1117,1.1186,1.1292,1.1131,1.1046,1.1108,1.0558,1.0271,1.0195,0.9585,0.0,0.0,0.0,0.0,0.0,0.0,0.0,0.0,0.0,0.0,0.0,0.0,0.0,0.0,0.0,0.0,0.0,0.0,0.0,1.0002,1.0701,1.0916,0.0,0.0,0.0,0.0,0.0,0.0,0.0,0.0,0.0,1.4664,1.5375,1.5924,0.0,0.0,1.4837,1.373,1.403,1.4531,1.4988,1.5347,0.0,0.0,1.6889,1.7384,1.9044,2.1536,2.355,2.4492,2.5772,2.7119,2.8231,2.893,2.9376,2.9457,2.8599,2.7898,2.7865,2.7668,2.7767,2.8483,2.9088,2.9595,1.0988,0.9743,0.7695,0.7085,0.7436,0.7539,0.7937,0.8501,0.8607,0.8514,0.8379,0.81,0.7658,0.7094,0.6728,0.0,0.0,0.0,0.7524,0.8308,0.8273,0.8611,0.9168,0.895,0.9133,0.9751,0.9486,0.9712,1.0464,1.0408,0.9688,0.8352,0.0,0.0,0.8282,0.9239,0.9916,1.0327,1.0991,1.1335,1.1335,1.1335,1.144,1.162,1.1301,1.1149,1.1211,1.0836,1.0677,1.0783,1.0149,0.9621,0.0,0.0,0.0,0.0,0.0,0.0,0.0,0.0,0.0,0.0,0.0,1.0059,0.9271,0.0,0.0,0.0,1.051,1.0801,1.1624,1.1901,0.0,0.0,0.0,0.0,0.0,0.0,0.0,1.3539,1.4404,1.4995,1.5133,1.5283,1.5549,1.5875,1.5323,1.4615,1.3786,0.0,1.4547,1.5034,1.5435,1.6071,1.7274,1.7561,1.8422,2.086,2.3145,2.4999,2.5925,2.7235,2.8598,2.9863,3.0409,3.0862,3.1905,3.1524,3.0753,2.9955,2.9742,2.9942,3.0675,3.1352,3.1937,1.2055,1.1855,0.8887,0.7836,0.8198,0.8194,0.8629,0.9324,0.9333,0.9437,0.9569,0.9202,0.888,0.8498,0.7785,0.0,0.8137,0.8034,0.8328,0.9002,0.864,0.8564,0.8656,0.8337,0.8476,0.9145,0.8634,0.8889,0.9847,1.0132,1.0218,1.009,1.0381,1.0285,0.9834,1.0487,1.0908,1.0918,1.1414,1.1687,1.1706,1.1706,1.1811,1.1964,1.1435,1.1211,1.1376,1.0881,1.1021,1.1835,1.0465,1.0033,1.0786,0.0,0.0,0.0,0.0,0.0,0.0,0.0,0.0,0.0,0.0,0.0,0.0,0.0,0.0,0.0,1.2021,0.0,1.3801,1.3144,0.0,0.0,0.0,1.2979,1.4675,1.5206,1.5389,1.5349,0.0,0.0,1.5395,1.5128,1.536,1.636,1.6079,1.5482,1.4975,1.4858,1.4797,1.4507,1.4604,1.5184,1.6711,1.7984,1.9974,2.3237,2.5041,2.6156,2.6979,2.7258,2.8081,2.9852,3.0215,3.0833,3.2742,3.2955,3.2506,3.0748,3.0766,3.1274,3.2156,3.3255,3.4217,1.2393,1.2213,0.9754,0.8819,0.8985,0.8985,0.9208,0.9499,0.9504,0.9572,0.9592,0.9498,0.9338,0.9096,0.8913,0.8977,0.9201,0.9397,0.963,0.9948,1.0057,0.9894,0.9602,0.9172,0.8947,0.8819,0.8365,0.8627,0.9405,0.9359,0.988,1.0866,1.0839,1.0642,1.0324,1.0598,1.0874,1.1191,1.1325,1.1497,1.17,1.1855,1.1862,1.169,1.1442,1.1316,1.1228,1.0909,1.0958,1.1445,1.1088,1.0689,1.0306,0.8812,0.0,0.0,0.0,0.0,0.0,0.0,0.0,0.0,0.0,1.1267,0.976,0.0,1.127,0.0,1.3481,1.4443,1.478,1.4869,0.0,0.0,1.4434,1.4275,1.5291,1.5477,1.5348,1.4912,1.5093,1.5236,1.5149,1.4933,1.5009,1.5628,1.5284,1.4625,1.398,1.4383,1.4746,1.477,1.5687,1.6839,1.7902,2.0645,2.289,2.3934,2.5625,2.7013,2.7262,2.732,2.794,2.9761,3.0215,3.0979,3.2754,3.2952,3.2685,3.2256,3.2697,3.329,3.3569,3.4625,3.5548,1.2558,1.2308,1.0141,0.9234,0.93,0.9437,0.9737,1.0051,1.0051,1.003,1.0011,0.996,0.9861,0.9757,0.9746,0.9802,0.9907,1.0038,1.0136,1.0273,1.0246,1.0054,0.9638,0.9327,0.8943,0.8581,0.8247,0.8327,0.8775,0.8998,0.9536,1.0363,1.0955,1.1119,1.0882,1.1114,1.1309,1.1488,1.1691,1.1932,1.2218,1.2335,1.2134,1.1648,1.1519,1.126,1.0798,1.0585,1.0546,1.065,1.0673,1.0458,0.9975,0.9076,0.8378,0.0,0.0,0.0,0.0,0.0,0.0,0.0,0.0,0.0,0.0,0.0,1.2306,1.3008,1.4755,1.5801,1.5632,1.5993,1.6373,1.6722,1.6095,1.5951,1.675,1.7023,1.6742,1.5725,1.6387,1.6712,1.6,1.5856,1.6069,1.6623,1.6103,1.5332,1.4629,1.4799,1.5065,1.5139,1.615,1.7533,1.876,2.103,2.3003,2.3998,2.508,2.6157,2.7109,2.732,2.794,2.9761,3.0215,3.0845,3.2667,3.2995,3.2982,3.3458,3.4137,3.4526,3.4402,3.5196,3.607,1.2592,1.2278,1.0288,0.9399,0.9346,0.9744,1.0069,1.0406,1.0383,1.0442,1.0531,1.0412,1.0355,1.0315,1.0343,1.0398,1.0367,1.0329,1.0328,1.0328,1.0146,0.9861,0.95,0.9268,0.897,0.8609,0.8356,0.824,0.8257,0.8889,0.9279,0.9374,1.0785,1.1436,1.1307,1.1757,1.1901,1.1744,1.2165,1.2492,1.2793,1.2731,1.2339,1.1614,1.1457,1.1034,1.0315,1.018,1.0087,1.0019,1.0033,1.0006,1.0012,0.9464,0.9081,0.0,0.8393,0.0,0.0,0.0,0.0,0.0,0.0,0.0,0.0,1.343,1.3633,1.413,1.5882,1.6889,1.6646,1.7005,1.757,1.8219,1.7877,1.78,1.8429,1.8812,1.8464,1.7063,1.8242,1.8611,1.7362,1.7296,1.7618,1.8035,1.7426,1.6682,1.6056,1.5873,1.5865,1.5707,1.6504,1.7957,1.9406,2.0652,2.2114,2.3741,2.4581,2.5129,2.7013,2.7452,2.8034,2.9578,3.0215,3.0991,3.2624,3.2982,3.3411,3.4147,3.4978,3.5386,3.5183,3.5696,3.6348,1.2545,1.2174,1.0347,0.9686,0.9862,1.0192,0.9994,0.9513,0.939,0.9582,1.0132,1.0426,1.0518,1.0573,1.0702,1.0778,1.0792,1.0938,1.1032,1.1027,1.0983,1.0857,1.0566,1.0243,0.9934,0.9676,0.9265,0.9004,0.8806,0.8811,0.9019,0.938,1.0187,1.0748,1.1177,0.0,0.0,0.0,1.2144,1.2253,1.233,1.1792,1.1334,1.0985,1.0764,0.0,1.032,1.0271,1.0386,1.0605,1.0633,0.0,0.0,0.0,0.0,0.0,0.0,0.0,0.0,0.0,0.0,0.0,1.2396,1.2798,1.396,1.5047,1.5667,1.5636,1.6667,1.7637,1.8192,1.89,1.9408,1.9527,1.9442,1.9309,1.9067,1.8864,1.8495,1.8076,1.8358,1.8555,1.8442,1.8187,1.8147,1.8655,1.7871,1.7427,1.7655,1.7475,1.7179,1.6787,1.7901,1.9147,1.9613,2.1785,2.3317,2.4245,2.5674,2.6716,2.7251,2.7998,2.8409,2.913,3.026,3.1403,3.1889,3.2525,3.3398,3.423,3.5047,3.5775,3.636,3.6911,3.7341,1.3248,0.0,1.0984,1.0204,0.0,0.9878,0.9798,0.962,0.9946,1.0281,1.0579,1.0834,1.0882,1.0877,1.0783,1.0782,1.0731,1.0631,1.074,1.0886,1.0891,1.0778,1.0579,1.0422,1.005,0.9644,0.9426,0.9235,0.9131,0.8953,0.8955,0.9198,0.9787,1.0433,1.1108,1.2353,1.2816,1.2491,1.2571,1.2657,1.2834,1.2508,1.2085,1.1561,0.0,0.0,0.0,0.0,0.0,0.0,0.0,0.0,0.0,0.0,0.0,1.1854,1.145,1.1364,1.177,1.2113,1.2728,1.3706,1.4349,1.4798,1.5036,1.6165,1.7017,1.7333,1.7962,1.855,1.8962,1.9567,1.9893,1.988,1.9858,1.9687,1.9496,1.947,1.9187,1.8806,1.9443,1.9923,1.9567,1.9567,1.9716,2.0014,1.9349,1.8783,1.8754,1.816,1.7629,1.7722,1.8441,1.934,2.0058,2.1637,2.3404,2.4082,2.5431,2.6802,2.7857,2.8398,2.8991,2.9909,3.0991,3.1713,3.2307,3.3086,3.4008,3.4855,3.5642,3.6517,3.7323,3.7734,3.7877,1.3973,1.2543,1.1653,1.0675,0.9673,0.9574,0.9786,1.0145,0.0,0.0,0.0,1.1165,1.1194,1.117,1.0834,1.0683,1.0706,1.0464,1.0519,1.0766,1.0859,1.0799,1.06,1.0561,1.0212,0.971,0.9657,0.9618,0.9615,0.9531,0.9503,0.9528,1.0171,1.0897,1.1632,1.29,1.3403,1.3104,1.2996,1.3105,1.336,1.3266,1.2874,1.2217,1.232,1.2134,1.1683,1.1817,1.1715,1.1351,1.1312,1.1422,1.16,1.16,1.1972,1.2774,1.2869,1.3028,1.3346,1.3616,1.4122,1.4963,1.6235,1.6846,1.6418,1.7199,1.8,1.8738,1.8991,1.9161,1.9363,1.9616,1.9898,2.0095,2.0101,2.0069,2.0086,2.0329,2.0141,1.943,2.0574,2.132,2.043,2.0628,2.114,2.1306,2.0672,2.0184,1.9646,1.8592,1.8073,1.8716,1.9197,1.9538,2.0449,2.1837,2.2899,2.4189,2.545,2.6829,2.82,2.8991,2.9772,3.0845,3.1613,3.237,3.2988,3.3766,3.4722,3.5519,3.615,3.6844,3.7616,3.7854,3.7875,1.4077,1.2306,1.1771,1.0789,0.9637,1.0098,1.0465,1.0759,1.0707,1.0706,1.073,1.1042,1.1194,1.1194,1.1132,1.1109,1.1152,1.153,1.1627,0.0,1.1937,1.1999,1.1756,1.1521,1.1373,1.1268,1.1111,1.0911,1.0861,1.1293,1.1502,1.1438,1.2383,1.307,1.3404,1.3645,1.3659,1.3418,1.3041,1.2862,1.2891,1.2337,1.1973,1.188,1.1803,1.1788,1.1855,1.1894,1.1958,1.2104,1.2134,1.2328,1.2806,1.283,1.3139,1.3823,1.3894,1.4053,1.4351,1.4431,1.4963,1.6065,1.6942,1.7658,1.8262,1.844,1.8722,1.9149,1.8669,1.8628,1.9593,1.9549,1.982,2.075,2.1224,2.1417,2.1355,2.1364,2.1087,2.0204,2.0997,2.1329,2.0628,2.0763,2.1195,2.1392,2.0977,2.0371,2.0326,1.9428,1.8958,1.9617,2.0434,2.0933,2.1329,2.3138,2.4307,2.4822,2.6675,2.8082,2.8685,2.9954,3.0775,3.0496,3.2296,3.345,3.3191,3.3888,3.4858,3.5676,3.5685,3.5773,3.6563,3.6693,3.6874,1.5332,1.3901,1.3646,1.2846,1.1672,1.14,1.135,1.1432,1.0851,1.0687,1.0764,1.0953,1.1094,1.1219,1.1297,1.1285,1.1323,1.1595,1.1789,1.1869,1.1989,1.1986,1.2016,1.2154,1.2147,1.1968,1.2275,1.2323,1.2289,1.2473,1.2496,1.2441,1.3094,1.3459,1.3585,1.3828,1.392,1.3811,1.3381,1.3165,1.3165,1.2882,1.2729,1.2722,1.2748,1.2886,1.3081,1.3217,1.3266,1.3278,1.3262,1.3407,1.3632,1.364,1.4066,1.4942,1.4606,1.4608,1.5223,1.5258,1.5703,1.6656,1.7194,1.7961,1.8969,1.8824,1.8891,1.928,1.9124,1.9259,1.9843,2.0087,2.0467,2.1046,2.1484,2.1678,2.1642,2.123,2.0943,2.0997,2.0997,2.0952,2.1042,2.123,2.141,2.1616,2.1202,2.0959,2.0933,2.0645,2.044,2.074,2.1027,2.1348,2.1908,2.3251,2.4542,2.5385,2.6802,2.8186,2.9124,3.0474,3.0961,3.1039,3.2807,3.3713,3.3014,3.4219,3.5245,3.533,3.5705,3.5892,3.6229,3.6286,3.6461,1.6465,1.519,1.5184,1.4575,1.3545,1.2779,1.2431,1.2355,1.1349,1.0964,1.1022,1.0891,1.0938,1.1133,1.1353,1.1517,1.1549,1.1828,1.2103,1.231,1.2197,1.2164,1.2287,1.2686,1.2805,1.2717,1.3324,1.3613,1.3587,1.3629,1.3641,1.3736,1.3853,1.386,1.3757,1.4117,1.4252,1.4216,1.3969,1.3822,1.3748,1.3719,1.3675,1.3712,1.3829,1.3974,1.4101,1.4281,1.4336,1.4225,1.4236,1.4193,1.4228,1.4193,1.4628,1.5384,1.5026,1.5067,1.5837,1.5992,1.6393,1.7185,1.7565,1.8248,1.9277,1.9082,1.8962,1.9268,1.9426,1.9656,2.0003,2.0422,2.0918,2.1202,2.1495,2.1678,2.1642,2.1042,2.0763,2.123,2.0907,2.0907,2.1275,2.1553,2.1687,2.1688,2.159,2.149,2.1455,2.1789,2.1998,2.2107,2.1851,2.2011,2.2756,2.395,2.5074,2.6174,2.7272,2.8551,2.9789,3.0519,3.1227,3.1833,3.3118,3.4005,3.366,3.4609,3.546,3.5307,3.5568,3.5988,3.6153,3.6187,3.6382,1.6639,1.5322,1.5259,1.4725,1.4036,1.387,1.3803,1.3601,1.2316,1.1631,1.1494,1.0881,1.0768,1.0996,1.1447,1.1765,1.2035,1.2886,1.3188,1.3036,1.3232,1.3228,1.3069,1.3447,1.3587,1.3688,1.4272,1.4601,1.4643,1.515,1.5572,1.5832,1.5615,1.5209,1.4839,1.4807,1.4754,1.4568,1.482,1.479,1.4501,1.4313,1.4201,1.4216,1.4231,1.42,1.4116,1.4289,1.4446,1.4557,1.4542,1.455,1.4585,1.455,1.4637,1.4804,1.5026,1.5488,1.6242,1.6602,1.719,1.7994,1.8389,1.9044,1.9963,1.9618,1.9262,1.9326,1.902,1.9377,2.0219,2.0216,2.0563,2.1487,2.1641,2.1687,2.1687,2.1642,2.1275,2.0484,2.1042,2.132,2.0808,2.132,2.1741,2.183,2.1976,2.2121,2.2536,2.2869,2.3315,2.3928,2.3864,2.3657,2.4008,2.5529,2.6549,2.7162,2.8691,2.9708,3.0214,3.0902,3.1675,3.2312,3.3647,3.436,3.4964,3.5673,3.547,3.5381,3.5429,3.5487,3.5819,3.5974,3.6318,1.7291,1.6866,1.6652,1.6529,1.6236,1.5332,1.4873,1.4719,1.3264,1.2508,1.2273,1.2281,1.1986,1.1415,1.1884,1.239,1.2948,1.363,1.382,1.3608,1.3948,1.3944,1.3805,1.4542,1.4901,1.495,1.5567,1.5899,1.5948,1.6147,1.6373,1.6451,1.6166,1.5881,1.5653,1.5464,1.5315,1.5277,1.5372,1.5482,1.5482,1.505,1.4699,1.4509,1.4614,1.4535,1.4328,1.4425,1.4533,1.4605,1.4605,1.484,1.5419,1.5428,1.5877,1.6802,1.6977,1.6839,1.6454,1.7204,1.7979,1.8687,1.9274,1.9946,2.0672,2.0547,2.043,2.0381,1.9992,2.0051,2.0738,2.0878,2.114,2.1615,2.1687,2.1687,2.1687,2.1221,2.0853,2.1042,2.0952,2.1033,2.1221,2.1811,2.2318,2.2435,2.2834,2.3432,2.3772,2.438,2.5275,2.6097,2.6259,2.6029,2.5802,2.6118,2.7231,2.8273,2.9052,2.9613,3.0271,3.1224,3.2059,3.2239,3.3639,3.4468,3.4461,3.572,3.6131,3.5766,3.5645,3.5769,3.6258,3.6117,3.6423,1.8003,1.801,1.7964,1.7946,1.7872,1.6738,1.6159,1.5814,1.4443,1.3667,1.3441,1.3586,1.3306,1.2866,1.3081,1.3602,1.4178,1.4675,1.4763,1.4492,1.4715,1.465,1.4489,1.5253,1.5692,1.5816,1.6484,1.6943,1.7017,1.6935,1.6935,1.696,1.6613,1.6412,1.634,1.6014,1.5817,1.5833,1.5904,1.6095,1.623,1.574,1.5204,1.4858,1.4978,1.485,1.4413,1.4533,1.4605,1.4605,1.4848,1.5286,1.593,1.6254,1.7028,1.8325,1.844,1.8059,1.7339,1.8111,1.8828,1.9362,2.0072,2.0741,2.1242,2.128,2.1401,2.1783,2.1343,2.1137,2.1182,2.1848,2.2104,2.1776,2.182,2.1963,2.1687,2.1042,2.1087,2.1767,2.1535,2.1293,2.2113,2.2731,2.312,2.334,2.3964,2.4723,2.5037,2.5918,2.6941,2.7819,2.8225,2.8205,2.7625,2.7598,2.8171,2.8834,2.952,2.9945,3.0355,3.1566,3.2651,3.3067,3.4371,3.5203,3.5316,3.6126,3.655,3.6061,3.5959,3.6305,3.68,3.6538,3.6723,1.867,1.8174,1.86,1.8497,1.7924,1.8007,1.7749,1.7019,1.5899,1.5325,1.5123,1.4475,1.4521,1.5298,1.5371,1.5471,1.5731,1.615,1.612,1.575,1.5656,1.5402,1.5095,1.5471,1.5733,1.5982,1.6894,1.7554,1.7838,1.7554,1.7554,1.7853,1.7204,1.6863,1.6824,1.6452,1.619,1.6254,1.6468,1.6626,1.661,1.6317,1.5905,1.5451,1.5389,1.5053,1.4519,1.4533,1.4597,1.4597,1.5471,1.5983,1.6123,1.6941,1.7873,1.8635,1.8634,1.8852,1.9306,1.9487,1.9726,2.0188,2.0788,2.1395,2.1949,2.1672,2.1894,2.3106,2.2686,2.2236,2.1784,2.2742,2.2999,2.2033,2.2362,2.2397,2.182,2.1811,2.1998,2.2574,2.2687,2.2969,2.3604,2.3714,2.4206,2.4524,2.4652,2.519,2.64,2.7261,2.8084,2.8833,2.952,2.9892,2.9427,2.9236,2.9454,3.0126,3.0712,3.0872,3.1307,3.1877,3.2863,3.3648,3.4274,3.5073,3.601,3.641,3.6378,3.6305,3.6538,3.6892,3.7195,3.7375,3.7494,2.0451,2.0302,1.9749,1.9407,1.9132,1.8141,1.7592,1.7498,1.6904,1.6532,1.6514,1.6527,1.674,1.7123,1.7468,1.7155,1.6379,1.6534,1.6269,1.5847,1.6367,1.6421,1.6046,1.677,1.7172,1.7253,1.7595,1.7838,1.7959,1.7838,1.7838,1.7942,1.7743,1.7586,1.7515,1.7153,1.6952,1.696,1.6805,1.6689,1.6722,1.657,1.6437,1.625,1.5627,1.503,1.4549,1.5062,1.5401,1.5498,1.6555,1.7502,1.8275,1.9402,2.0066,2.0062,2.0246,2.033,2.0287,2.047,2.0869,2.1375,2.1634,2.2014,2.2515,2.2478,2.2579,2.3088,2.3649,2.3465,2.3023,2.3414,2.3627,2.3246,2.3246,2.3333,2.3105,2.3018,2.3159,2.3454,2.3867,2.4487,2.5198,2.6011,2.6834,2.7407,2.8079,2.8655,2.9146,2.9794,3.0482,3.1131,3.1459,3.1759,3.2881,3.159,3.1137,3.1704,3.2172,3.2232,3.2519,3.2989,3.3893,3.4252,3.4606,3.5427,3.6563,3.7002,3.6875,3.7312,3.7551,3.7375,3.745,3.7844,3.7926,2.1803,2.1969,2.0974,2.0427,2.0078,1.8941,1.8303,1.8164,1.7942,1.7749,1.7655,1.7984,1.8176,1.829,1.8632,1.8311,1.738,1.7505,1.7157,1.6647,1.7458,1.7568,1.7106,1.7676,1.7991,1.7991,1.7991,1.8112,1.8353,1.8282,1.8282,1.8425,1.8322,1.825,1.8161,1.7797,1.7595,1.7554,1.7505,1.7448,1.744,1.7525,1.7595,1.7518,1.6816,1.6145,1.5701,1.6174,1.6599,1.699,1.7986,1.9072,2.016,2.1223,2.168,2.1368,2.1486,2.149,2.1176,2.1356,2.1672,2.2063,2.2289,2.259,2.2964,2.3001,2.3244,2.3818,2.442,2.4746,2.5073,2.5231,2.4914,2.4135,2.4016,2.4016,2.3833,2.4029,2.4447,2.5094,2.5981,2.6599,2.7108,2.8217,2.9112,2.9826,3.084,3.1441,3.1669,3.2459,3.3063,3.3656,3.3762,3.4232,3.4906,3.4276,3.3352,3.3725,3.3489,3.355,3.3772,3.4244,3.4614,3.4898,3.5484,3.6275,3.6936,3.7445,3.7915,3.842,3.8323,3.8081,3.8239,3.8431,3.8762,2.2568,2.3005,2.223,2.1425,2.0785,2.0475,2.002,1.9296,1.9255,1.9015,1.8792,1.8673,1.8918,1.8896,1.9171,1.8912,1.8996,1.9446,1.913,1.833,1.8826,1.8701,1.8036,1.8089,1.8152,1.8152,1.8072,1.8474,1.9143,1.8882,1.8843,1.9112,1.8843,1.8732,1.874,1.8362,1.8072,1.8224,1.8647,1.8917,1.904,1.9108,1.9221,1.9269,1.8871,1.8419,1.7879,1.7851,1.8099,1.8711,1.9659,2.0613,2.1434,2.2037,2.2277,2.2234,2.2184,2.2096,2.2069,2.208,2.2101,2.2289,2.2665,2.3027,2.3139,2.315,2.3757,2.5108,2.5589,2.6186,2.7609,2.7905,2.6971,2.4585,2.4872,2.4956,2.451,2.4724,2.5712,2.7121,2.8297,2.9253,2.9642,3.0364,3.117,3.1814,3.2546,3.3209,3.3581,3.4616,3.5479,3.564,3.5705,3.6057,3.6581,3.6944,3.6256,3.5687,3.5103,3.4864,3.5127,3.5515,3.5729,3.6037,3.6353,3.7101,3.7796,3.8286,3.8613,3.8941,3.8814,3.9014,3.9333,3.9658,4.0058,2.4569,2.4317,2.3142,2.2355,2.1713,2.0981,2.0516,2.0466,2.0593,2.0647,2.0709,2.0718,2.0709,2.0799,2.0926,2.0962,2.1051,2.1614,2.0864,1.9205,1.9368,1.9368,1.8986,1.8878,1.8904,1.8904,1.8904,1.9024,1.9262,1.9192,1.9192,1.9262,1.9192,1.935,1.9696,1.9332,1.9283,1.9698,1.9659,1.962,1.962,1.9732,1.988,2.0137,2.0034,2.0152,2.0602,1.9756,1.9451,1.9817,2.0834,2.1786,2.2426,2.2706,2.2783,2.2768,2.2754,2.2703,2.2703,2.274,2.2777,2.2852,2.3375,2.3694,2.3768,2.3768,2.4418,2.572,2.582,2.6333,2.7559,2.8222,2.7968,2.7064,2.7157,2.7197,2.703,2.7302,2.7933,2.8819,2.9905,3.0876,3.1898,3.2862,3.3953,3.458,3.534,3.591,3.618,3.6523,3.694,3.693,3.7228,3.762,3.8135,3.8465,3.8206,3.7715,3.7164,3.66,3.676,3.6808,3.6985,3.74,3.7664,3.8142,3.8781,3.9194,3.9571,3.9808,3.9963,4.0271,4.0677,4.1054,4.1433,2.5774,2.5242,2.3875,2.3089,2.2702,2.1956,2.1676,2.1721,2.18,2.181,2.1739,2.1784,2.1819,2.1863,2.2031,2.2155,2.2208,2.2824,2.207,2.0472,2.0312,2.0268,1.9929,1.9963,2.0001,2.0001,2.0001,2.0001,2.0001,2.0001,2.0001,2.0001,2.0001,2.0196,2.0547,2.0343,2.0411,2.0711,2.0721,2.0731,2.076,2.0952,2.1156,2.142,2.1453,2.176,2.2254,2.148,2.1115,2.1339,2.2005,2.2684,2.3316,2.3412,2.3534,2.379,2.3863,2.3863,2.3875,2.39,2.3863,2.3973,2.4288,2.4528,2.4564,2.4528,2.5194,2.6493,2.6745,2.7354,2.9076,2.9694,2.9986,3.0353,2.9359,2.9217,2.9591,2.9986,3.0597,3.1457,3.2361,3.3242,3.4341,3.5343,3.6455,3.6979,3.7663,3.813,3.8167,3.8316,3.8487,3.8679,3.8956,3.9337,3.9713,3.9888,4.0004,3.9719,3.9367,3.8844,3.8625,3.848,3.8496,3.9285,3.9719,4.0359,4.0975,4.0769,4.0922,4.102,4.1204,4.1573,4.202,4.2473,4.2844,2.6441,2.5837,2.4576,2.3954,2.3761,2.3701,2.3454,2.3018,2.3062,2.2702,2.2183,2.234,2.235,2.2296,2.2717,2.2892,2.2717,2.325,2.3212,2.2477,2.2026,2.1496,2.0804,2.0859,2.0972,2.1049,2.1049,2.1088,2.1001,2.1011,2.1165,2.1049,2.1011,2.1203,2.1203,2.1242,2.1242,2.1461,2.1863,2.2063,2.2101,2.2542,2.2905,2.2936,2.2962,2.3036,2.3198,2.3106,2.304,2.3043,2.3014,2.3404,2.4011,2.4145,2.4504,2.5052,2.5229,2.517,2.5229,2.517,2.5205,2.5205,2.5346,2.5476,2.565,2.5662,2.636,2.8142,2.8274,2.9326,3.1537,3.2213,3.2607,3.3192,3.1502,3.09,3.201,3.2374,3.2988,3.4228,3.5253,3.5933,3.6582,3.7336,3.782,3.8221,3.884,3.9326,3.9499,3.9889,4.0512,4.0653,4.0576,4.0712,4.0966,4.0865,4.1031,4.1354,4.1022,4.0546,4.0198,4.0016,4.0097,4.0899,4.158,4.2319,4.2509,4.2073,4.2175,4.2525,4.2737,4.301,4.3352,4.3765,4.3945,2.781,2.7316,2.6541,2.6032,2.5768,2.5861,2.5484,2.484,2.4935,2.4467,2.394,2.4026,2.4145,2.4198,2.4573,2.4754,2.4829,2.5009,2.4819,2.4228,2.3732,2.2534,2.136,2.1158,2.1252,2.13,2.1397,2.1203,2.1203,2.1395,2.1346,2.1203,2.1423,2.1548,2.1797,2.1977,2.2128,2.2467,2.2654,2.2815,2.2815,2.2964,2.3287,2.3768,2.3804,2.4095,2.4576,2.4695,2.4396,2.3841,2.3793,2.4168,2.4862,2.5004,2.5123,2.5335,2.5382,2.5347,2.5476,2.5834,2.6052,2.6074,2.6599,2.7059,2.7519,2.7113,2.8116,2.9787,3.0208,3.0759,3.2668,3.3339,3.3774,3.4264,3.3394,3.2806,3.3346,3.3965,3.4674,3.5497,3.6346,3.7085,3.7784,3.8458,3.8964,3.9218,3.9984,4.0826,4.0842,4.1178,4.1673,4.1901,4.1917,4.1997,4.2029,4.1901,4.2109,4.2706,4.2478,4.1942,4.165,4.1448,4.1716,4.2247,4.2711,4.3374,4.3083,4.2698,4.3203,4.3872,4.3898,4.3983,4.4507,4.4947,4.4869,2.8765,2.8434,2.7316,2.6771,2.6659,2.6719,2.6565,2.6276,2.64,2.6287,2.5924,2.6121,2.6235,2.6287,2.6629,2.6794,2.6805,2.6887,2.6628,2.608,2.57,2.4152,2.2503,2.2094,2.2335,2.2554,2.2526,2.2652,2.2826,2.2741,2.2723,2.2898,2.2898,2.3158,2.3672,2.3522,2.3621,2.3986,2.3998,2.3973,2.3984,2.3973,2.4154,2.4564,2.46,2.4862,2.5229,2.5276,2.5052,2.4671,2.4636,2.4969,2.5652,2.5769,2.5896,2.6173,2.6471,2.6663,2.6752,2.7259,2.7631,2.7696,2.8101,2.847,2.8789,2.8611,2.9412,3.0676,3.104,3.2028,3.3427,3.4405,3.5162,3.5821,3.5558,3.5278,3.5211,3.5688,3.6422,3.7198,3.7847,3.8394,3.902,3.9738,4.0104,4.0416,4.1164,4.1642,4.1917,4.2363,4.2691,4.2876,4.2998,4.3029,4.3314,4.3327,4.3294,4.3843,4.3815,4.3273,4.2933,4.278,4.3345,4.3726,4.4018,4.4154,4.4007,4.3999,4.449,4.4887,4.4871,4.4889,4.5277,4.5423,4.5423,2.9653,2.9396,2.7582,2.6946,2.718,2.7139,2.7313,2.7313,2.7516,2.7504,2.7464,2.7855,2.7763,2.8084,2.7936,2.8307,2.8307,2.8187,2.8083,2.7699,2.722,2.5943,2.4106,2.4121,2.4442,2.4668,2.4653,2.4773,2.4886,2.4856,2.4873,2.4791,2.504,2.5381,2.5252,2.5288,2.5381,2.5299,2.5134,2.5075,2.5052,2.5052,2.5123,2.5406,2.5802,2.5836,2.5941,2.5906,2.5928,2.5802,2.5569,2.5791,2.638,2.6517,2.6892,2.7497,2.8012,2.8376,2.8629,2.9034,2.9535,2.949,2.9521,2.9797,2.9966,2.9936,3.0309,3.1529,3.1778,3.3001,3.4513,3.5873,3.6831,3.7451,3.7653,3.7728,3.7678,3.7692,3.8217,3.9393,3.9575,4.0026,4.0588,4.1176,4.1575,4.1363,4.2125,4.2718,4.2963,4.3281,4.3564,4.3785,4.3905,4.3997,4.4406,4.4838,4.4804,4.4949,4.4887,4.4514,4.4044,4.4095,4.4837,4.5207,4.4786,4.5033,4.5561,4.5693,4.5748,4.5629,4.538,4.5373,4.5476,4.5476,4.5476,3.1352,3.0267,2.9441,2.9131,2.917,2.917,2.887,2.849,2.8542,2.8414,2.7964,2.8072,2.8243,2.8243,2.86,2.8398,2.873,2.8863,2.8621,2.8682,2.8257,2.7885,2.7064,2.705,2.6807,2.6844,2.6869,2.6663,2.6444,2.6213,2.6041,2.5721,2.5836,2.5755,2.5859,2.5928,2.572,2.5707,2.5638,2.566,2.5742,2.5662,2.5849,2.6333,2.7191,2.7723,2.792,2.8317,2.8593,2.8225,2.7178,2.6641,2.7263,2.7762,2.8078,2.8338,2.8903,2.93,2.9456,3.0011,3.051,3.051,3.0659,3.0925,3.1437,3.1057,3.1664,3.2841,3.3608,3.4546,3.635,3.7479,3.8254,3.8874,3.9423,3.9948,4.0257,3.9672,3.9536,4.0158,4.0744,4.1286,4.1933,4.2078,4.2332,4.2442,4.301,4.3747,4.4063,4.4294,4.4478,4.4688,4.476,4.4831,4.4995,4.5399,4.5542,4.5453,4.5383,4.5103,4.4662,4.4285,4.4607,4.4935,4.5159,4.5512,4.574,4.6204,4.5992,4.5938,4.5862,4.5829,4.5778,4.5675,4.5485,3.2657,3.1629,3.112,3.0872,3.0897,3.0959,3.0782,3.0518,3.0668,3.0517,3.029,3.0416,3.0504,3.0491,3.0592,3.0742,3.0817,3.0976,3.1185,3.1339,3.1145,3.1074,3.107,3.0646,3.0107,2.8632,2.7889,2.7652,2.7521,2.7303,2.6951,2.679,2.6845,2.7082,2.7035,2.6968,2.7191,2.7419,2.7272,2.728,2.7545,2.7558,2.7571,2.7959,2.8684,2.9079,2.8998,2.9223,2.9442,2.9223,2.8478,2.8005,2.839,2.8776,2.8935,2.9079,2.9704,3.0072,3.0284,3.0852,3.135,3.1379,3.165,3.2018,3.2422,3.2321,3.3032,3.4229,3.5052,3.5992,3.8035,3.859,3.932,4.0213,4.0732,4.1341,4.189,4.1244,4.0688,4.131,4.1758,4.2029,4.2395,4.2921,4.3221,4.3442,4.4039,4.4763,4.5147,4.5338,4.5407,4.5554,4.5597,4.5656,4.5662,4.5832,4.6035,4.5817,4.5515,4.5046,4.4477,4.41,4.3801,4.423,4.4665,4.4799,4.508,4.5596,4.6152,4.597,4.5929,4.6073,4.6126,4.6017,4.5726,3.3516,3.2756,3.2314,3.2146,3.2146,3.2227,3.2272,3.2393,3.2749,3.2544,3.2925,3.3143,3.2692,3.3073,3.3003,3.3283,3.3408,3.3463,3.3317,3.349,3.3448,3.3459,3.3631,3.3388,3.2521,2.9928,2.966,2.9493,2.9311,2.8688,2.8724,2.8462,2.8398,2.8578,2.8753,2.8656,2.8693,2.9129,2.9038,2.9164,2.9583,2.9659,2.9597,2.9521,2.9984,3.0029,3.0029,3.0197,3.0242,3.0045,3.0076,3.0076,3.0045,2.9752,2.9782,2.983,3.0599,3.1072,3.1405,3.1836,3.2163,3.2247,3.2668,3.3096,3.3382,3.3762,3.445,3.5325,3.6233,3.7388,3.9312,3.9927,4.0664,4.1721,4.2137,4.2679,4.324,4.2787,4.2765,4.2747,4.2891,4.2986,4.3427,4.3937,4.4193,4.4527,4.5119,4.5665,4.6017,4.6238,4.6238,4.6238,4.6238,4.6454,4.6519,4.5668,4.5918,4.5886,4.5559,4.4839,4.4267,4.405,4.3793,4.3757,4.4021,4.4266,4.488,4.5782,4.6096,4.5949,4.6222,4.66,4.6582,4.6389,4.5993,3.3367,3.2259,3.2282,3.2285,3.2321,3.25,3.282,3.2784,3.3066,3.301,3.3213,3.3213,3.3388,3.3367,3.3437,3.3665,3.4047,3.4182,3.4264,3.4447,3.4466,3.4466,3.4703,3.4699,3.4033,3.3645,3.3112,3.2881,3.2212,3.1954,3.0796,3.0708,3.0207,3.0023,2.9979,3.0086,2.9964,3.0208,3.0119,3.0165,3.0392,3.0436,3.0346,3.0317,3.1056,3.1316,3.1402,3.2106,3.271,3.2602,3.2683,3.2667,3.2299,3.1317,3.0998,3.1231,3.1607,3.213,3.2741,3.2837,3.3103,3.3391,3.3764,3.4246,3.4671,3.501,3.584,3.6826,3.7752,3.8805,4.0579,4.1408,4.2593,4.3872,4.4716,4.5122,4.5372,4.5208,4.4906,4.4719,4.4358,4.4019,4.4563,4.4971,4.5225,4.5502,4.5915,4.6334,4.666,4.6771,4.6771,4.6753,4.6753,4.7084,4.7389,4.6122,4.5521,4.5582,4.5225,4.4396,4.3991,4.3964,4.3878,4.3586,4.3704,4.408,4.4868,4.5749,4.6023,4.5836,4.647,4.7196,4.6672,4.6199,4.615,3.4927,3.3964,3.4259,3.4497,3.4648,3.4827,3.4791,3.4637,3.4655,3.4599,3.4547,3.4765,3.4784,3.4699,3.5065,3.5242,3.516,3.524,3.5531,3.5787,3.561,3.5852,3.612,3.6026,3.6136,3.6261,3.6322,3.5157,3.3459,3.2292,3.203,3.1424,3.0829,3.0494,3.048,3.0419,3.0748,3.0896,3.097,3.1188,3.173,3.187,3.1952,3.2118,3.2392,3.2678,3.2721,3.3003,3.3427,3.3375,3.3427,3.3495,3.3344,3.3124,3.2658,3.2705,3.2848,3.3119,3.3608,3.3563,3.3809,3.4503,3.5013,3.5726,3.646,3.7074,3.7679,3.8732,4.006,4.1069,4.2396,4.3202,4.4296,4.5299,4.6033,4.6365,4.6483,4.6356,4.6328,4.6312,4.5837,4.5572,4.573,4.6088,4.6293,4.6566,4.6817,4.7017,4.7258,4.728,4.7262,4.707,4.6958,4.691,4.7042,4.6033,4.5243,4.5258,4.4915,4.4118,4.381,4.3831,4.3458,4.3052,4.3355,4.3982,4.4225,4.4876,4.5267,4.5842,4.6614,4.7016,4.6412,4.6024,4.6026,3.6317,3.5819,3.6259,3.6615,3.6873,3.704,3.6829,3.6523,3.6508,3.629,3.6053,3.6461,3.6492,3.6353,3.6661,3.6905,3.6631,3.6769,3.7072,3.7266,3.7057,3.7429,3.7978,3.7982,3.7706,3.7955,3.7917,3.6947,3.5094,3.3758,3.2841,3.266,3.19,3.1277,3.1435,3.159,3.162,3.1806,3.2018,3.2583,3.3375,3.3903,3.4137,3.4129,3.417,3.4195,3.4039,3.4308,3.4414,3.4389,3.4365,3.4292,3.4317,3.4658,3.4665,3.4325,3.417,3.4162,3.4382,3.4717,3.5215,3.5919,3.6698,3.749,3.8277,3.9057,3.99,4.0752,4.1683,4.2845,4.3703,4.4769,4.5604,4.6351,4.6748,4.6901,4.7068,4.7153,4.7288,4.7211,4.7034,4.6955,4.6955,4.6945,4.7097,4.7204,4.7417,4.741,4.7639,4.7687,4.7632,4.731,4.7072,4.6708,4.6361,4.5664,4.5106,4.5036,4.4565,4.3833,4.3723,4.3723,4.336,4.3178,4.3488,4.4017,4.4035,4.4236,4.5021,4.5841,4.6695,4.6737,4.5938,4.5806,4.5947,3.6132,3.6337,3.6507,3.6768,3.716,3.7413,3.7399,3.7324,3.7324,3.734,3.7249,3.7456,3.7557,3.7658,3.7758,3.7946,3.7991,3.8048,3.8177,3.833,3.8161,3.8393,3.8826,3.8414,3.8668,3.9067,3.8712,3.8218,3.7297,3.6626,3.5991,3.5318,3.4462,3.4148,3.3245,3.3234,3.3624,3.3675,3.3675,3.3971,3.443,3.4629,3.4808,3.5075,3.5413,3.5606,3.543,3.5688,3.5981,3.5981,3.6146,3.6267,3.637,3.6507,3.6588,3.625,3.5818,3.5363,3.5905,3.6324,3.6975,3.7607,3.8454,3.9301,4.0056,4.0805,4.1425,4.1345,4.241,4.3575,4.4778,4.5559,4.6485,4.7311,4.7887,4.7906,4.7945,4.7992,4.8126,4.8125,4.7929,4.7884,4.7881,4.7836,4.7852,4.7933,4.8012,4.799,4.801,4.8093,4.7723,4.737,4.7057,4.6711,4.5966,4.5203,4.4931,4.4821,4.4321,4.3738,4.3826,4.3882,4.389,4.3822,4.4024,4.4108,4.4208,4.4535,4.5103,4.5537,4.6052,4.5821,4.5281,4.5437,4.5755,3.7967,3.7992,3.8141,3.8476,3.8939,3.9063,3.8966,3.8728,3.8476,3.8281,3.8233,3.8581,3.897,3.9244,3.9142,3.8994,3.9063,3.9123,3.9306,3.94,3.9332,3.9547,4.0148,3.9926,3.9867,4.0173,4.0256,4.028,3.9623,3.8256,3.7026,3.6624,3.5859,3.5021,3.4625,3.466,3.4698,3.4792,3.5017,3.5284,3.553,3.5766,3.5998,3.6094,3.6432,3.6473,3.6568,3.6571,3.6783,3.6744,3.6803,3.6803,3.6882,3.7018,3.7151,3.6862,3.6986,3.7062,3.733,3.7661,3.8348,3.9265,4.002,4.072,4.1705,4.2624,4.317,4.3284,4.4663,4.5658,4.6304,4.7243,4.7868,4.8491,4.8743,4.8727,4.8692,4.8864,4.8909,4.8881,4.8815,4.8675,4.8513,4.8308,4.827,4.8365,4.844,4.8458,4.8477,4.8549,4.7997,4.7223,4.6929,4.6635,4.5773,4.4945,4.4715,4.4578,4.4336,4.3945,4.4073,4.4119,4.416,4.4076,4.4022,4.4161,4.4354,4.4422,4.4591,4.4918,4.5231,4.4969,4.4741,4.5024,4.5145,3.9826,3.9775,3.9621,3.9885,4.0375,4.04,4.0251,3.9992,3.9656,3.9408,3.9419,3.9817,4.035,4.0636,4.0347,4.0161,4.0161,4.0151,4.0394,4.053,4.053,4.0758,4.1148,4.1131,4.1158,4.175,4.1507,4.1555,4.1099,3.9921,3.8558,3.7516,3.6867,3.6072,3.5577,3.5557,3.5736,3.5758,3.6027,3.6274,3.6496,3.6808,3.7055,3.7189,3.7282,3.7392,3.757,3.7487,3.7451,3.8185,3.7989,3.8097,3.8312,3.8617,3.8653,3.8564,3.8758,3.9118,3.9192,3.9345,3.9656,4.054,4.1502,4.2266,4.3251,4.4308,4.4926,4.4874,4.6313,4.7222,4.7853,4.8509,4.8828,4.9006,4.9218,4.9256,4.929,4.9348,4.9283,4.9126,4.9062,4.9142,4.8947,4.8692,4.8676,4.8797,4.8866,4.8878,4.8803,4.8762,4.7927,4.7017,4.6376,4.6007,4.5231,4.4578,4.4424,4.455,4.4358,4.4355,4.4632,4.455,4.4473,4.4349,4.4271,4.4159,4.4339,4.4162,4.4042,4.4376,4.4621,4.4429,4.435,4.4672,4.4827,4.1117,4.1328,4.0383,4.0161,4.0449,4.04,4.057,4.0797,4.0744,4.081,4.0966,4.1268,4.134,4.1446,4.1455,4.1372,4.1385,4.1397,4.1495,4.1516,4.1464,4.1754,4.2044,4.2091,4.2073,4.2429,4.2413,4.255,4.2574,4.1821,4.0456,3.921,3.8318,3.7513,3.6936,3.6716,3.6833,3.6833,3.6965,3.7207,3.7394,3.7613,3.7775,3.8161,3.838,3.8707,3.9416,3.9042,3.9216,4.0331,3.9877,3.9823,4.0101,4.0329,4.0278,4.0329,4.038,4.085,4.1194,4.0988,4.1307,4.2154,4.3102,4.386,4.4645,4.499,4.5512,4.6285,4.7513,4.8016,4.8312,4.8665,4.9303,4.9483,4.9613,4.9613,4.9646,4.9688,4.9613,4.9375,4.9375,4.9512,4.9541,4.9302,4.9129,4.9224,4.9074,4.9077,4.8708,4.8509,4.7596,4.6696,4.5806,4.5146,4.4408,4.4332,4.5041,4.5324,4.5252,4.5279,4.541,4.5256,4.5319,4.5103,4.5096,4.4683,4.4454,4.4812,4.4856,4.425,4.4048,4.4135,4.441,4.4809,4.4925,4.22,4.2282,4.1881,4.149,4.1169,4.1442,4.1725,4.1955,4.1967,4.2009,4.2109,4.2167,4.2346,4.2523,4.2638,4.2698,4.283,4.283,4.2793,4.283,4.2904,4.2978,4.3069,4.3014,4.3105,4.3212,4.3175,4.3193,4.3315,4.2879,4.1843,4.0617,3.9842,3.8798,3.8168,3.7772,3.7893,3.7978,3.8017,3.8228,3.886,3.8634,3.8917,4.0049,3.9543,3.9933,4.0501,4.0471,4.0809,4.1095,4.1018,4.123,4.1464,4.1519,4.1538,4.1523,4.1556,4.2006,4.263,4.2387,4.2558,4.3878,4.4809,4.5498,4.5934,4.6545,4.7091,4.7796,4.8484,4.9027,4.9343,4.9646,4.9942,4.9955,4.9936,4.9942,4.9955,4.9981,4.9981,4.9757,4.9844,5.0,4.9981,4.9942,4.9776,4.9655,4.9445,4.9201,4.8859,4.8471,4.7694,4.7102,4.6327,4.5991,4.5357,4.5596,4.5963,4.6081,4.6182,4.6379,4.6525,4.6654,4.6631,4.6315,4.6102,4.6031,4.6008,4.6031,4.5665,4.4909,4.4417,4.4186,4.4539,4.5084,4.5363,4.2792,4.2792,4.2792,4.2482,4.2029,4.2327,4.2639,4.2865,4.2868,4.2923,4.2941,4.2941,4.3087,4.3355,4.3408,4.346,4.3526,4.3577,4.3646,4.3594,4.356,4.3714,4.3712,4.3726,4.3691,4.3825,4.3923,4.3936,4.3934,4.3412,4.2571,4.1801,4.1245,4.0167,3.8766,3.8566,3.871,3.8803,3.881,3.9099,3.9815,3.9616,3.9767,4.0972,4.0722,4.1041,4.1475,4.1571,4.1855,4.2188,4.2324,4.2245,4.2366,4.2469,4.2436,4.2436,4.2525,4.2824,4.3296,4.3778,4.4038,4.4991,4.6072,4.6649,4.7207,4.7937,4.8323,4.8861,4.9644,5.0158,5.017,5.0175,5.0188,5.0144,5.0156,5.0156,5.0169,5.0181,5.0224,5.0169,5.0271,5.0287,5.0193,5.0099,4.9777,4.9733,4.9822,4.9465,4.8997,4.8599,4.8159,4.765,4.7188,4.7003,4.6903,4.6794,4.6734,4.716,4.7308,4.7642,4.7814,4.8026,4.7943,4.7555,4.7433,4.7517,4.7245,4.6845,4.618,4.5458,4.5275,4.5297,4.5671,4.628,4.6548,4.2848,4.2792,4.2867,4.2848,4.2812,4.2867,4.3032,4.3267,4.3388,4.3491,4.361,4.361,4.3627,4.3695,4.3677,4.3775,4.3871,4.3839,4.3855,4.3931,4.3989,4.3839,4.3899,4.4053,4.4246,4.4181,4.4327,4.4453,4.4477,4.4403,4.363,4.2662,4.204,4.1127,3.9085,3.8906,3.8925,3.8958,3.9034,3.961,4.036,4.0477,4.09,4.1706,4.1824,4.2183,4.2749,4.268,4.3075,4.3844,4.363,4.3772,4.438,4.4509,4.4577,4.4638,4.4748,4.4895,4.5069,4.5611,4.5873,4.6064,4.7136,4.7966,4.834,4.8787,4.9207,4.967,5.0142,5.0278,5.0302,5.0314,5.0325,5.0317,5.0329,5.0363,5.0366,5.0388,5.0421,5.0432,5.0434,5.0445,5.0355,5.0172,4.9782,4.9721,5.0015,4.9755,4.9171,4.8608,4.8137,4.8134,4.7777,4.7886,4.7744,4.7498,4.7523,4.8029,4.872,4.9345,4.957,4.9729,4.9472,4.8921,4.9079,4.9406,4.8452,4.7416,4.7315,4.7308,4.6909,4.692,4.7189,4.7423,4.7663,4.3856,4.389,4.4046,4.4162,4.4119,4.3634,4.349,4.3627,4.3936,4.4075,4.3968,4.3968,4.3968,4.3968,4.4011,4.4143,4.4397,4.4452,4.4474,4.4651,4.4612,4.4701,4.4688,4.467,4.4788,4.4837,4.4946,4.4922,4.4969,4.5011,4.4454,4.3516,4.2431,4.1109,4.0041,3.969,3.9776,4.0409,4.0613,4.1031,4.2297,4.2146,4.238,4.3585,4.3324,4.35,4.4189,4.3907,4.4342,4.4965,4.4579,4.4824,4.5194,4.5243,4.5232,4.5222,4.5211,4.5201,4.5646,4.6284,4.7235,4.7589,4.8384,4.9341,4.9689,4.9828,5.0099,5.018,5.0347,5.0396,5.0317,5.0399,5.0432,5.0442,5.0474,5.0508,5.0548,5.0577,5.0606,5.0615,5.0615,5.0471,5.0375,5.0218,4.9881,4.962,4.9829,4.9666,4.9163,4.8445,4.7921,4.8268,4.8318,4.855,4.8617,4.8758,4.9254,4.998,5.0879,5.1765,5.1836,5.1491,5.1233,5.0798,5.1073,5.1261,4.9931,4.8968,4.9401,4.9436,4.8824,4.83,4.8334,4.8537,4.8784,4.4533,4.4559,4.4751,4.4849,4.4825,4.4346,4.4161,4.4276,4.4597,4.4655,4.4525,4.4479,4.4493,4.4479,4.4506,4.4572,4.4938,4.4931,4.4973,4.5201,4.5191,4.5118,4.5129,4.5203,4.5096,4.5211,4.5211,4.518,4.5169,4.5254,4.4806,4.3929,4.2788,4.2124,4.1323,4.0979,4.0841,4.1482,4.1755,4.2242,4.3153,4.3508,4.371,4.452,4.4692,4.4607,4.5019,4.5211,4.5253,4.5264,4.5304,4.5333,4.5362,4.5419,4.5399,4.5409,4.5427,4.559,4.6277,4.7265,4.8073,4.8514,4.99,5.0433,5.0439,5.0383,5.0421,5.0479,5.0528,5.0507,5.0466,5.0548,5.0558,5.0587,5.0587,5.0633,5.0661,5.0687,5.0619,5.0636,5.035,5.0281,5.0254,5.0195,4.9997,4.9797,4.9635,4.9479,4.9446,4.8985,4.8568,4.8902,4.9284,4.9607,5.0025,5.045,5.1058,5.192,5.2628,5.3319,5.3359,5.2916,5.2791,5.2521,5.2096,5.1621,5.0989,5.0567,5.0595,5.0602,5.0358,4.9926,4.9562,4.9736,5.0052,4.4775,4.4775,4.4884,4.4943,4.495,4.4969,4.5055,4.515,4.518,4.5169,4.5169,4.5096,4.5063,4.5118,4.514,4.515,4.5182,4.5192,4.5244,4.5284,4.5362,4.5323,4.5314,4.5323,4.5396,4.5314,4.5314,4.5441,4.5285,4.5486,4.5232,4.4672,4.3817,4.3412,4.2949,4.2499,4.2324,4.2719,4.2917,4.3434,4.4159,4.4183,4.4528,4.5065,4.5189,4.517,4.5333,4.5314,4.5381,4.5445,4.5498,4.5599,4.5696,4.5793,4.578,4.5787,4.5814,4.6232,4.6936,4.7953,4.882,4.9347,5.0344,5.0632,5.0661,5.0652,5.0671,5.0671,5.0689,5.0698,5.0707,5.0715,5.0705,5.0724,5.0724,5.0731,5.0728,5.0679,5.059,5.0372,4.9892,4.9739,4.9778,4.9761,5.0264,5.0391,5.0367,5.0524,5.0503,5.0558,5.0211,5.021,5.055,5.0829,5.1266,5.1687,5.2406,5.3106,5.3464,5.4034,5.41,5.4185,5.3869,5.3359,5.2541,5.2039,5.2039,5.1722,5.1327,5.1353,5.1532,5.1478,5.1109,5.1238,5.1566,4.4179,4.4238,4.5103,4.5456,4.5482,4.5522,4.5445,4.5222,4.5201,4.5201,4.5201,4.5201,4.5264,4.5201,4.5201,4.5304,4.5381,4.5427,4.5516,4.5591,4.5672,4.5729,4.5751,4.5751,4.5805,4.5817,4.5805,4.5769,4.5842,4.591,4.589,4.5568,4.4787,4.4736,4.4632,4.4283,4.4106,4.3989,4.4035,4.4506,4.5003,4.514,4.5399,4.551,4.5607,4.5607,4.5607,4.5607,4.5661,4.5696,4.5723,4.5766,4.5786,4.5807,4.5807,4.586,4.597,4.6248,4.7152,4.8088,4.9005,4.9852,5.0636,5.0932,5.0937,5.0871,5.0844,5.0835,5.0851,5.0859,5.0766,5.0735,5.0693,5.0643,5.0573,5.0433,5.0429,5.038,5.0284,5.0174,4.9705,4.9938,4.9886,5.008,5.0558,5.0855,5.1185,5.1462,5.1608,5.1679,5.1636,5.1568,5.1731,5.1982,5.2317,5.2726,5.3513,5.4226,5.4524,5.4823,5.5091,5.5072,5.4795,5.4121,5.3186,5.3242,5.3626,5.3088,5.2233,5.253,5.271,5.2728,5.2745,5.2719,5.2755,4.3589,4.3683,4.4415,4.4794,4.4885,4.5237,4.5254,4.509,4.5325,4.5463,4.5522,4.5539,4.5544,4.5572,4.5587,4.565,4.5757,4.5757,4.5814,4.5886,4.6013,4.5998,4.6048,4.6076,4.6053,4.6121,4.6121,4.6041,4.6125,4.6121,4.6075,4.6017,4.5498,4.5696,4.5719,4.5443,4.5316,4.5239,4.5303,4.5575,4.5813,4.5997,4.5936,4.5991,4.5991,4.5991,4.5991,4.5991,4.5958,4.5944,4.5925,4.5925,4.5914,4.5902,4.5898,4.5941,4.5956,4.6674,4.7636,4.8248,4.9192,5.0116,5.0841,5.103,5.1102,5.1042,5.1022,5.0981,5.1022,5.1016,5.0867,5.0717,5.0602,5.0513,5.0274,5.0028,4.9982,4.9967,4.9934,4.9934,5.0089,5.0394,5.0575,5.0736,5.1183,5.2013,5.2609,5.2952,5.2997,5.2937,5.2802,5.2647,5.2859,5.3105,5.3416,5.3697,5.4361,5.4965,5.5322,5.562,5.5967,5.5757,5.5248,5.4555,5.3763,5.386,5.3899,5.3639,5.3117,5.3388,5.3686,5.3896,5.3861,5.3763,5.382,4.3015,4.3049,4.3214,4.3588,4.372,4.4522,4.4888,4.4966,4.5561,4.5886,4.5966,4.6007,4.5974,4.5954,4.5983,4.5996,4.602,4.602,4.5996,4.6098,4.6102,4.6109,4.6109,4.6118,4.617,4.6134,4.6128,4.6175,4.615,4.6159,4.6167,4.6133,4.611,4.6138,4.6062,4.608,4.5948,4.592,4.595,4.6079,4.6297,4.6316,4.6297,4.6422,4.6438,4.6438,4.6422,4.6367,4.6297,4.6313,4.6348,4.6458,4.6298,4.6461,4.642,4.6367,4.6489,4.7403,4.8292,4.8861,4.9681,5.0526,5.1208,5.1196,5.1159,5.1153,5.1108,5.1102,5.1134,5.1134,5.1005,5.05,5.0228,4.9982,4.9697,4.9644,4.9695,4.992,5.0367,5.0484,5.0891,5.1241,5.1785,5.1979,5.2199,5.3209,5.3786,5.4135,5.4168,5.4052,5.3825,5.364,5.4092,5.4279,5.4265,5.4587,5.5098,5.5617,5.5868,5.5984,5.5984,5.5825,5.5615,5.5026,5.4436,5.3878,5.3714,5.3572,5.3619,5.3859,5.4258,5.4893,5.4954,5.4603,5.4636,4.2349,4.2415,4.3068,4.3771,4.4455,4.4708,4.5163,4.5783,4.5928,4.6037,4.6068,4.6076,4.6084,4.6115,4.6138,4.6118,4.6115,4.6131,4.6125,4.6131,4.6153,4.6189,4.6195,4.6209,4.625,4.6263,4.6263,4.625,4.623,4.623,4.625,4.625,4.6269,4.6242,4.6219,4.6267,4.6267,4.6247,4.6399,4.6695,4.7147,4.7713,4.7999,4.7947,4.7908,4.7817,4.7837,4.7892,4.7944,4.7999,4.8018,4.7703,4.7154,4.7642,4.759,4.7317,4.7567,4.8402,4.9078,4.9524,5.0107,5.0714,5.1215,5.1206,5.1196,5.1202,5.1202,5.1202,5.1202,5.1202,5.095,5.0309,4.9712,4.9382,4.9124,4.924,4.9401,5.0134,5.0775,5.1319,5.1746,5.2193,5.2776,5.3106,5.3442,5.3883,5.4427,5.4776,5.4854,5.4783,5.4498,5.4502,5.5288,5.5494,5.5315,5.5216,5.5586,5.5694,5.581,5.5907,5.5896,5.5598,5.5262,5.5467,5.5165,5.4378,5.3813,5.3764,5.3902,5.4071,5.4401,5.4846,5.5055,5.4823,5.5036,4.1543,4.1641,4.214,4.2673,4.3261,4.3987,4.4594,4.5102,4.5826,4.6197,4.6193,4.6158,4.6155,4.6193,4.6197,4.6191,4.6172,4.6197,4.6204,4.6209,4.6211,4.6239,4.6266,4.6269,4.6269,4.6289,4.6289,4.6289,4.6289,4.6289,4.6289,4.6289,4.6289,4.6328,4.6328,4.6308,4.6328,4.6308,4.6601,4.7226,4.7863,4.8218,4.8482,4.8521,4.875,4.8789,4.8736,4.8738,4.8718,4.872,4.8647,4.8537,4.8206,4.8361,4.8377,4.8237,4.8468,4.9091,4.9731,5.0147,5.0399,5.0943,5.1241,5.1261,5.1215,5.1211,5.1208,5.1203,5.1208,5.1202,5.0386,4.9707,4.891,4.8386,4.8444,4.858,4.959,5.0736,5.163,5.2562,5.2698,5.2562,5.2912,5.2795,5.317,5.3656,5.433,5.4433,5.4685,5.4982,5.4848,5.4919,5.5436,5.595,5.58,5.5725,5.5857,5.5887,5.562,5.5191,5.4878,5.4912,5.4916,5.488,5.4738,5.4369,5.3941,5.3677,5.3758,5.3885,5.4266,5.4693,5.4838,5.5093,5.5393,4.0902,4.0945,4.1094,4.1243,4.1543,4.2891,4.373,4.418,4.5429,4.6152,4.625,4.6207,4.6248,4.6289,4.6289,4.6289,4.6289,4.6269,4.6269,4.6269,4.6289,4.6289,4.6289,4.6289,4.6269,4.625,4.623,4.623,4.623,4.6211,4.6191,4.6269,4.6383,4.6441,4.6441,4.646,4.6537,4.6696,4.7048,4.7714,4.8047,4.8301,4.875,4.9043,4.9199,4.9219,4.9238,4.9238,4.9258,4.9316,4.9433,4.9257,4.9237,4.9277,4.916,4.914,4.9295,4.9761,5.0146,5.0376,5.0741,5.1107,5.1244,5.1262,5.1193,5.1203,5.1185,5.1074,5.1063,5.0864,5.0048,4.9621,4.8805,4.8153,4.8308,4.8619,5.0056,5.1396,5.2465,5.352,5.3267,5.3009,5.2937,5.2801,5.3001,5.3487,5.3668,5.3707,5.3835,5.4147,5.4274,5.4405,5.4775,5.5281,5.5603,5.5552,5.5358,5.5193,5.4789,5.4251,5.3948,5.4246,5.4294,5.3984,5.3813,5.3633,5.3448,5.3154,5.3327,5.3545,5.3685,5.4053,5.5026,5.5302,5.5747,4.1049,4.1062,4.115,4.1543,4.2148,4.2539,4.3437,4.4648,4.4989,4.5528,4.6092,4.6169,4.6172,4.6289,4.6289,4.6289,4.6269,4.6269,4.6289,4.6289,4.6269,4.6289,4.6269,4.6237,4.6195,4.6162,4.6128,4.6089,4.6328,4.6189,4.6043,4.6213,4.6885,4.708,4.7199,4.7162,4.7073,4.7086,4.6783,4.7079,4.81,4.8789,5.0156,5.0586,5.0918,5.0937,5.0937,5.0918,5.0937,5.0935,5.0639,5.0187,4.997,4.991,4.9872,4.968,4.9878,5.0366,5.0642,5.082,5.121,5.1229,5.1285,5.1132,5.1113,5.1125,5.0968,5.0557,5.0579,5.0743,5.0319,5.0728,5.03,4.9695,4.9529,5.0198,5.1241,5.2212,5.3164,5.3384,5.3209,5.3176,5.3291,5.3155,5.305,5.3366,5.3339,5.3349,5.3292,5.3481,5.3626,5.3782,5.3981,5.4052,5.4152,5.4368,5.4272,5.4163,5.4012,5.357,5.3467,5.3829,5.3767,5.3256,5.3033,5.2904,5.2708,5.2653,5.2746,5.2908,5.2901,5.3335,5.4552,5.5523,5.5942]}]]